     2.10           OBSERVATION DATA    G (GPS)             RINEX VERSION / TYPE
teqc 2002Mar14 Tom Herring 20040320 06:13:17UTC             PGM / RUN BY / DATE
Linux 2.0.36|Pentium II|gcc -static|Linux|486/DX+           COMMENT
BIT 2 OF LLI FLAGS DATA COLLECTED UNDER A/S CONDITION       COMMENT
-Unknown-                                                   MARKER NAME
TRAK                                                        MARKER NUMBER
-Unknown- -Unknown-                                         OBSERVER / AGENCY
-Unknown- ASHTECH -Unknown-                                 REC # / TYPE / VERS
-Unknown- -Unknown-                                         ANT # / TYPE
 -2480030.2781 -4703119.1597  3511306.6342                  APPROX POSITION XYZ
        0.0000        0.0000        0.0000                  ANTENNA: DELTA H/E/N
     1     1                                                WAVELENGTH FACT L1/2
     7    L1    L2    C1    P1    P2    S1    S2            # / TYPES OF OBSERV
     1.0000                                                 INTERVAL
SNR is mapped to RINEX snr flag value [1-9]                 COMMENT
L1: 1 -> 1; 90 -> 5; 210 -> 9                               COMMENT
L2: 1 -> 1; 150 -> 5; 250 -> 9                              COMMENT
teqc windowed: start @ 2003 Dec 22 19:00:00.000             COMMENT
teqc windowed: end @ 2003 Dec 22 20:00:00.000               COMMENT
  2003    12    22    19     0    0.0000000     GPS         TIME OF FIRST OBS
                                                            END OF HEADER
 03 12 22 19  0  0.0000000  0  7G28G29G27G11G26G 8G 7
 -19227692.26548 -14963677.35847  20913990.3074   20913989.6594   20913996.0074
       201.0004        201.0004
 -13323052.37648 -10118592.25147  21866216.5014   21866216.0314   21866223.3764
       186.0004        188.0004
 -10528768.35948  -8184075.63947  22373415.1244   22373414.7424   22373425.7604
       165.0004        166.0004
  -4746160.05448  -3675136.97847  23473406.6664   23473406.4904   23473412.5554
       153.0004        156.0004
  -9974538.45048  -7749280.60947  22191433.4814   22191433.1964   22191441.9394
       175.0004        177.0004
 -18353265.53648 -14279689.84847  20484142.9454   20484142.1064   20484149.8784
       203.0004        203.0004
 -18508210.42648 -13860652.66147  20544839.2554   20544838.3554   20544845.8664
       208.0004        209.0004
 03 12 22 19  0  1.0000000  0  7G28G29G27G11G26G 8G 7
 -19227309.22148 -14963378.88247  20914063.2064   20914062.6514   20914069.0234
       201.0004        201.0004
 -13323025.87048 -10118571.60347  21866221.5244   21866221.2794   21866229.1514
       186.0004        188.0004
 -10526131.19648  -8182020.71147  22373916.9164   22373916.5864   22373927.8694
       166.0004        167.0004
  -4745618.07248  -3674714.65247  23473509.8494   23473509.6764   23473515.8724
       153.0004        156.0004
  -9975171.07148  -7749773.56347  22191313.0014   22191312.8574   22191321.2724
       175.0004        177.0004
 -18351910.62848 -14278634.07647  20484400.7564   20484400.0054   20484407.5304
       203.0004        203.0004
 -18509366.41848 -13861553.43447  20544619.2644   20544618.4664   20544625.7964
       208.0004        209.0004
 03 12 22 19  0  2.0000000  0  7G28G29G27G11G26G 8G 7
 -19226925.89548 -14963080.18747  20914136.1654   20914135.4504   20914142.0264
       201.0004        201.0004
 -13322998.62448 -10118550.37147  21866226.7364   21866226.2494   21866233.9214
       186.0004        187.0004
 -10523493.55448  -8179965.40747  22374418.7904   22374418.2994   22374430.1074
       165.0004        168.0004
  -4745075.40948  -3674291.79847  23473613.2224   23473612.5204   23473619.5174
       153.0004        156.0004
  -9975802.92948  -7750265.91747  22191192.7494   22191192.0794   22191200.4044
       175.0004        176.0004
 -18350555.12248 -14277577.84047  20484658.7294   20484658.0864   20484665.3504
       203.0004        203.0004
 -18510521.78548 -13862453.71947  20544399.3924   20544398.4834   20544405.9674
       208.0004        209.0004
 03 12 22 19  0  3.0000000  0  7G28G29G27G11G26G 8G 7
 -19226542.54848 -14962781.47447  20914209.1164   20914208.8574   20914214.8954
       201.0004        201.0004
 -13322970.92848 -10118528.79047  21866232.0124   21866231.5734   21866239.1204
       186.0004        187.0004
 -10520855.72748  -8177909.95947  22374920.6994   22374920.7264   22374931.7484
       165.0004        167.0004
  -4744532.36048  -3673868.64047  23473716.6304   23473716.0864   23473723.0244
       153.0004        156.0004
  -9976434.33348  -7750757.91847  22191072.6244   22191073.1434   22191080.8344
       175.0004        177.0004
 -18349199.29048 -14276521.34947  20484916.7364   20484915.9724   20484923.6604
       203.0004        203.0004
 -18511676.82848 -13863353.75247  20544179.5994   20544178.5144   20544186.2704
       208.0004        209.0004
 03 12 22 19  0  4.0000000  0  7G28G29G27G11G26G 8G 7
 -19226158.88248 -14962482.51347  20914282.1364   20914281.8134   20914287.9924
       201.0004        201.0004
 -13322942.45848 -10118506.60747  21866237.4464   21866237.2584   21866244.0534
       186.0004        188.0004
 -10518217.40248  -8175854.13247  22375422.7224   22375422.7714   22375433.5464
       165.0004        167.0004
  -4743988.59148  -3673444.92247  23473820.1564   23473818.7884   23473826.3444
       153.0004        157.0004
  -9977064.92648  -7751249.29547  22190952.6014   22190952.6064   22190960.9554
       175.0004        177.0004
 -18347842.82548 -14275464.36547  20485174.9044   20485174.0224   20485181.8974
       203.0004        203.0004
 -18512831.20948 -13864253.26947  20543959.9594   20543959.2504   20543966.6014
       208.0004        209.0004
 03 12 22 19  0  5.0000000  0  7G28G29G27G11G26G 8G 7
 -19225775.17348 -14962183.51947  20914355.1774   20914354.6714   20914360.9014
       201.0004        202.0004
 -13322913.49148 -10118484.04047  21866242.9514   21866242.5414   21866250.0314
       186.0004        187.0004
 -10515578.82948  -8173798.11147  22375924.9954   22375924.5944   22375936.4074
       165.0004        167.0004
  -4743444.40248  -3673020.88047  23473923.7594   23473922.5114   23473930.3564
       153.0004        157.0004
  -9977695.03148  -7751740.28347  22190832.6674   22190833.2054   22190840.7404
       175.0004        177.0004
 -18346486.01348 -14274407.11047  20485433.1224   20485432.4134   20485439.8164
       203.0004        203.0004
 -18513985.22348 -13865152.49947  20543740.3794   20543739.5864   20543747.0674
       208.0004        209.0004
 03 12 22 19  0  6.0000000  0  7G28G29G27G11G26G 8G 7
 -19225391.17248 -14961884.29847  20914428.2864   20914427.8114   20914433.8194
       201.0004        201.0004
 -13322883.78148 -10118460.88547  21866248.6024   21866248.1214   21866256.0054
       186.0004        187.0004
 -10512939.82748  -8171741.74347  22376427.4714   22376427.2974   22376437.8754
       165.0004        167.0004
  -4742899.53948  -3672596.31047  23474027.5134   23474026.5624   23474034.0554
       153.0004        157.0004
  -9978324.38248  -7752230.68347  22190712.9154   22190712.6724   22190720.9764
       175.0004        177.0004
 -18345128.59748 -14273349.38547  20485691.4494   20485690.8474   20485698.2724
       203.0004        203.0004
 -18515138.62448 -13866051.25447  20543520.8874   20543519.9504   20543527.6034
       208.0004        209.0004
 03 12 22 19  0  7.0000000  0  7G28G29G27G11G26G 8G 7
 -19225006.95948 -14961584.91047  20914501.4664   20914500.8694   20914507.3544
       201.0004        201.0004
 -13322853.39648 -10118437.21047  21866254.3974   21866253.6534   21866261.4744
       186.0004        187.0004
 -10510300.40948  -8169685.04847  22376929.9144   22376929.2574   22376939.4334
       165.0004        167.0004
  -4742354.07848  -3672171.27747  23474131.3364   23474130.1894   23474137.6294
       153.0004        156.0004
  -9978953.04048  -7752720.55147  22190593.2944   22190592.9884   22190601.4194
       175.0004        177.0004
 -18343770.63848 -14272291.23447  20485949.8744   20485949.2354   20485956.3744
       203.0004        203.0004
 -18516291.47048 -13866949.57347  20543301.5074   20543300.4144   20543308.3344
       208.0004        209.0004
 03 12 22 19  0  8.0000000  0  7G28G29G27G11G26G 8G 7
 -19224622.70548 -14961285.49247  20914574.6084   20914573.8724   20914580.0644
       201.0004        202.0004
 -13322822.53948 -10118413.16647  21866260.2514   21866259.3084   21866267.3114
       186.0004        188.0004
 -10507660.77048  -8167628.18847  22377432.2014   22377431.9814   22377442.3594
       165.0004        167.0004
  -4741808.19548  -3671745.91347  23474235.2574   23474234.0814   23474241.3464
       153.0004        156.0004
  -9979581.19948  -7753210.02247  22190473.7424   22190473.4294   22190481.8594
       175.0004        177.0004
 -18342412.33248 -14271232.81747  20486208.3994   20486207.4854   20486214.9314
       203.0004        203.0004
 -18517443.93948 -13867847.59847  20543082.2204   20543080.9964   20543089.0074
       208.0004        209.0004
 03 12 22 19  0  9.0000000  0  7G28G29G27G11G26G 8G 7
 -19224238.19148 -14960985.87447  20914647.7934   20914647.0354   20914653.4404
       201.0004        202.0004
 -13322790.97648 -10118388.57047  21866266.2544   21866265.8954   21866273.3084
       186.0004        187.0004
 -10505020.65148  -8165570.95747  22377934.5754   22377934.9794   22377944.9824
       165.0004        167.0004
  -4741261.65348  -3671320.03547  23474339.2964   23474338.4074   23474345.7854
       153.0004        156.0004
  -9980208.64348  -7753698.94347  22190354.3634   22190354.8424   22190362.5114
       175.0004        176.0004
 -18341053.44148 -14270173.94347  20486467.0044   20486465.8524   20486473.6844
       203.0004        203.0004
 -18518595.82248 -13868745.17047  20542863.0174   20542862.0634   20542869.7284
       208.0004        209.0004
 03 12 22 19  0 10.0000000  0  7G28G29G27G11G26G 8G 7
 -19223853.43948 -14960686.06747  20914721.0244   20914720.2244   20914726.5414
       201.0004        202.0004
 -13322758.73648 -10118363.45047  21866272.3944   21866272.0474   21866279.6334
       186.0004        187.0004
 -10502380.15748  -8163513.44147  22378437.1414   22378437.5424   22378447.7744
       165.0004        167.0004
  -4740714.49148  -3670893.67647  23474443.4794   23474442.4664   23474449.7684
       153.0004        156.0004
  -9980835.37648  -7754187.31447  22190235.0904   22190235.3604   22190243.6254
       175.0004        177.0004
 -18339694.00548 -14269114.64447  20486725.7014   20486724.7464   20486732.2544
       203.0004        203.0004
 -18519747.13748 -13869642.30247  20542643.9434   20542643.0534   20542650.6574
       208.0004        209.0004
 03 12 22 19  0 11.0000000  0  7G28G29G27G11G26G 8G 7
 -19223468.61048 -14960386.20047  20914794.3044   20914793.7054   20914799.8854
       201.0004        202.0004
 -13322725.97448 -10118337.92447  21866278.5924   21866278.0964   21866285.7734
       186.0004        187.0004
 -10499739.37048  -8161455.69347  22378939.7964   22378939.8344   22378950.4334
       165.0004        167.0004
  -4740166.86648  -3670466.96247  23474547.6764   23474546.8204   23474554.3214
       153.0004        156.0004
  -9981461.56148  -7754675.25547  22190115.9214   22190115.6864   22190124.2514
       176.0004        177.0004
 -18338334.17648 -14268055.03947  20486984.4904   20486983.4024   20486991.3964
       203.0004        203.0004
 -18520898.03948 -13870539.10947  20542424.9444   20542424.1144   20542431.5644
       208.0004        209.0004
 03 12 22 19  0 12.0000000  0  7G28G29G27G11G26G 8G 7
 -19223083.56948 -14960086.16947  20914867.5634   20914866.8214   20914873.1224
       201.0004        201.0004
 -13322692.53548 -10118311.87047  21866284.9474   21866284.1764   21866292.1004
       186.0004        187.0004
 -10497098.19348  -8159397.63147  22379442.4694   22379441.5254   22379453.4294
       165.0004        167.0004
  -4739618.64448  -3670039.77647  23474651.9854   23474651.0454   23474658.6124
       153.0004        156.0004
  -9982087.06848  -7755162.65947  22189996.9174   22189996.6644   22190005.2174
       176.0004        177.0004
 -18336973.81448 -14266995.02047  20487243.3734   20487242.5914   20487250.1854
       203.0004        203.0004
 -18522048.39548 -13871435.49047  20542206.0394   20542205.0544   20542212.6934
       208.0004        209.0004
 03 12 22 19  0 13.0000000  0  7G28G29G27G11G26G 8G 7
 -19222698.42048 -14959786.05147  20914940.8704   20914940.1554   20914946.2844
       201.0004        201.0004
 -13322658.53948 -10118285.37847  21866291.3984   21866290.9024   21866298.1364
       187.0004        187.0004
 -10494456.72448  -8157339.34847  22379945.0724   22379944.1984   22379955.2534
       165.0004        166.0004
  -4739069.92548  -3669612.20547  23474756.3854   23474755.6514   23474762.3814
       153.0004        156.0004
  -9982712.00348  -7755649.62247  22189878.0114   22189877.6414   22189886.3064
       176.0004        177.0004
 -18335613.04048 -14265934.67747  20487502.3344   20487501.4924   20487509.0984
       203.0004        203.0004
 -18523198.33048 -13872331.54147  20541987.2234   20541986.1774   20541993.8334
       208.0004        209.0004
 03 12 22 19  0 14.0000000  0  7G28G29G27G11G26G 8G 7
 -19222312.97048 -14959485.70247  20915014.2424   20915013.6854   20915019.8304
       201.0004        201.0004
 -13322623.78948 -10118258.30047  21866297.9994   21866297.3154   21866305.2064
       187.0004        187.0004
 -10491814.77148  -8155280.68347  22380447.7934   22380446.3604   22380457.6354
       165.0004        166.0004
  -4738520.52148  -3669184.09747  23474860.9004   23474860.2324   23474866.7334
       153.0004        156.0004
  -9983336.17148  -7756135.99047  22189759.2904   22189759.1324   22189767.7944
       176.0004        177.0004
 -18334251.64048 -14264873.84847  20487761.4154   20487760.5334   20487768.1684
       203.0004        203.0004
 -18524347.63348 -13873227.10047  20541768.5174   20541767.5304   20541775.0534
       208.0004        209.0004
 03 12 22 19  0 15.0000000  0  7G28G29G27G11G26G 8G 7
 -19221927.48048 -14959185.31947  20915087.5994   20915086.9174   20915093.0224
       201.0004        201.0004
 -13322588.55148 -10118230.84347  21866304.6714   21866304.1874   21866312.0814
       187.0004        188.0004
 -10489172.59548  -8153221.84247  22380950.5654   22380949.0164   22380960.4394
       165.0004        166.0004
  -4737970.68048  -3668755.64847  23474965.5204   23474964.9554   23474970.7064
       153.0004        156.0004
  -9983959.83648  -7756621.95547  22189640.6064   22189640.8504   22189649.0664
       176.0004        177.0004
 -18332889.89448 -14263812.74747  20488020.5624   20488019.6084   20488027.0254
       203.0004        203.0004
 -18525496.55548 -13874122.36447  20541549.8614   20541548.9124   20541556.3794
       208.0004        209.0004
 03 12 22 19  0 16.0000000  0  7G28G29G27G11G26G 8G 7
 -19221541.72148 -14958884.72847  20915161.0304   20915160.2314   20915166.7234
       201.0004        201.0004
 -13322552.61348 -10118202.84247  21866311.4914   21866311.4594   21866318.6704
       187.0004        187.0004
 -10486529.98648  -8151162.67447  22381453.4434   22381452.7684   22381463.5674
       165.0004        166.0004
  -4737420.19148  -3668326.69647  23475070.2754   23475069.7594   23475075.6944
       153.0004        156.0004
  -9984582.76048  -7757107.35347  22189522.1114   22189522.0644   22189530.4044
       176.0004        177.0004
 -18331527.56448 -14262751.19447  20488279.8144   20488278.7964   20488286.2744
       203.0004        203.0004
 -18526644.88048 -13875017.16347  20541331.3164   20541330.4664   20541337.9814
       208.0004        209.0004
 03 12 22 19  0 17.0000000  0  7G28G29G27G11G26G 8G 7
 -19221155.79048 -14958584.00347  20915234.4904   20915233.7394   20915239.9514
       201.0004        202.0004
 -13322516.05448 -10118174.35647  21866318.4304   21866318.1144   21866325.7874
       187.0004        187.0004
 -10483887.02948  -8149103.22947  22381956.4384   22381955.8384   22381966.7214
       165.0004        166.0004
  -4736869.15348  -3667897.31547  23475175.1294   23475174.4684   23475181.4114
       153.0004        156.0004
  -9985205.05748  -7757592.26347  22189403.7304   22189403.6014   22189411.9724
       176.0004        177.0004
 -18330164.76148 -14261689.27147  20488539.1484   20488538.3564   20488545.6804
       203.0004        203.0004
 -18527792.71148 -13875911.57647  20541112.8804   20541111.8184   20541119.5474
       208.0004        209.0004
 03 12 22 19  0 18.0000000  0  7G28G29G27G11G26G 8G 7
 -19220769.70648 -14958283.15947  20915307.9694   20915307.2104   20915313.4824
       201.0004        201.0004
 -13322478.88348 -10118145.39647  21866325.5094   21866325.2374   21866332.8664
       187.0004        187.0004
 -10481243.72548  -8147043.51847  22382459.4954   22382458.9274   22382468.7874
       165.0004        166.0004
  -4736317.57048  -3667467.50747  23475280.1214   23475279.2374   23475286.0784
       153.0004        155.0004
  -9985826.74548  -7758076.69247  22189285.4174   22189284.9084   22189293.4814
       176.0004        177.0004
 -18328801.48748 -14260626.98347  20488798.6024   20488797.6274   20488805.1524
       203.0004        203.0004
 -18528940.04748 -13876805.60647  20540894.5564   20540893.7464   20540901.2624
       208.0004        209.0004
 03 12 22 19  0 19.0000000  0  7G28G29G27G11G26G 8G 7
 -19220383.38448 -14957982.12947  20915381.4904   20915380.7814   20915386.9634
       201.0004        202.0004
 -13322441.01948 -10118115.89147  21866332.7064   21866332.2724   21866339.8094
       187.0004        187.0004
 -10478599.99348  -8144983.46847  22382962.6174   22382961.7324   22382972.4684
       165.0004        166.0004
  -4735765.36548  -3667037.22147  23475385.2664   23475384.5604   23475391.3104
       153.0004        156.0004
  -9986447.72848  -7758560.57247  22189167.2744   22189167.0664   22189175.2374
       176.0004        177.0004
 -18327437.65648 -14259564.26047  20489058.1584   20489057.4014   20489064.6624
       203.0004        203.0004
 -18530086.83048 -13877699.20247  20540676.3254   20540675.4604   20540682.9354
       208.0004        209.0004
 03 12 22 19  0 20.0000000  0  7G28G29G27G11G26G 8G 7
 -19219996.90048 -14957680.97647  20915455.0144   20915454.4304   20915460.3034
       201.0004        202.0004
 -13322402.57048 -10118085.93547  21866340.0074   21866339.4864   21866347.0914
       187.0004        187.0004
 -10475955.93048  -8142923.16747  22383465.7814   22383465.0264   22383476.5774
       165.0004        166.0004
  -4735212.61548  -3666606.51247  23475490.4404   23475490.2574   23475496.8944
       153.0004        156.0004
  -9987068.07848  -7759043.96547  22189049.2544   22189048.5034   22189057.5724
       176.0004        177.0004
 -18326073.35548 -14258501.17247  20489317.8244   20489316.6044   20489324.3204
       203.0004        203.0004
 -18531233.12048 -13878592.41647  20540458.1904   20540457.1364   20540464.7834
       208.0004        208.0004
 03 12 22 19  0 21.0000000  0  7G28G29G27G11G26G 8G 7
 -19219610.26148 -14957379.69847  20915528.6034   20915527.7534   20915534.2254
       201.0004        201.0004
 -13322363.51448 -10118055.50247  21866347.4324   21866346.9204   21866354.7534
       187.0004        187.0004
 -10473311.54448  -8140862.61547  22383969.0284   22383968.2474   22383980.2824
       165.0004        166.0004
  -4734659.32848  -3666175.38447  23475595.6874   23475594.7744   23475602.4094
       153.0004        157.0004
  -9987687.82448  -7759526.89047  22188931.3404   22188931.1104   22188939.0124
       176.0004        177.0004
 -18324708.58948 -14257437.71747  20489577.5464   20489576.3924   20489584.0994
       203.0004        203.0004
 -18532378.92748 -13879485.25247  20540240.1534   20540239.1274   20540246.8344
       208.0004        209.0004
 03 12 22 19  0 22.0000000  0  7G28G29G27G11G26G 8G 7
 -19219223.48848 -14957078.31747  20915602.2054   20915601.3694   20915607.8734
       201.0004        202.0004
 -13322323.84448 -10118024.59247  21866354.9754   21866354.3114   21866362.2244
       187.0004        187.0004
 -10470666.82848  -8138801.79747  22384472.2354   22384471.7334   22384482.9514
       165.0004        166.0004
  -4734105.50948  -3665743.83347  23475701.0564   23475699.4454   23475707.2384
       153.0004        156.0004
  -9988306.95948  -7760009.33647  22188813.5394   22188813.7634   22188821.5314
       176.0004        176.0004
 -18323343.35148 -14256373.89647  20489837.3564   20489836.2394   20489843.7944
       203.0004        203.0004
 -18533524.25548 -13880377.71447  20540022.1854   20540021.1634   20540029.0484
       208.0004        209.0004
 03 12 22 19  0 23.0000000  0  7G28G29G27G11G26G 8G 7
 -19218836.48748 -14956776.75547  20915675.8684   20915675.2204   20915681.2164
       201.0004        202.0004
 -13322283.52148 -10117993.17247  21866362.6464   21866362.5394   21866370.1124
       187.0004        187.0004
 -10468021.72248  -8136740.68347  22384975.4914   22384974.2884   22384985.6254
       165.0004        167.0004
  -4733551.09548  -3665311.82147  23475806.4954   23475805.1614   23475812.9244
       153.0004        156.0004
  -9988925.44848  -7760491.28047  22188695.8654   22188695.5394   22188703.6624
       176.0004        177.0004
 -18321977.59448 -14255309.67347  20490097.2714   20490096.2574   20490103.7134
       203.0004        203.0004
 -18534669.04248 -13881269.75547  20539804.3424   20539803.5504   20539810.9774
       208.0004        209.0004
 03 12 22 19  0 24.0000000  0  7G28G29G27G11G26G 8G 7
 -19218449.33448 -14956475.07747  20915749.5674   20915748.9174   20915754.9734
       201.0004        202.0004
 -13322242.58848 -10117961.27347  21866370.4374   21866370.0494   21866377.7144
       187.0004        187.0004
 -10465376.27248  -8134679.30247  22385478.8484   22385477.8204   22385489.3074
       165.0004        167.0004
  -4732996.12448  -3664879.36947  23475912.0084   23475911.5684   23475918.8164
       153.0004        157.0004
  -9989543.26348  -7760972.69347  22188578.2914   22188578.2154   22188586.6084
       176.0004        177.0004
 -18320611.35948 -14254245.07447  20490357.2444   20490356.3724   20490363.5394
       203.0004        203.0004
 -18535813.33148 -13882161.40747  20539586.5614   20539585.7744   20539593.2174
       208.0004        209.0004
 03 12 22 19  0 25.0000000  0  7G28G29G27G11G26G 8G 7
 -19218061.95848 -14956173.22947  20915823.2814   20915822.5694   20915828.6624
       201.0004        201.0004
 -13322200.97748 -10117928.85147  21866378.3234   21866378.2694   21866385.8874
       187.0004        188.0004
 -10462730.40748  -8132617.59547  22385982.4094   22385981.1914   22385992.7994
       165.0004        166.0004
  -4732440.54348  -3664446.44547  23476017.6554   23476016.0744   23476024.5914
       153.0004        156.0004
  -9990160.38148  -7761453.56447  22188460.8674   22188460.5124   22188468.7914
       176.0004        177.0004
 -18319244.58448 -14253180.05847  20490617.3524   20490616.5094   20490623.9454
       203.0004        203.0004
 -18536957.05748 -13883052.62547  20539368.9194   20539367.9164   20539375.6844
       208.0004        209.0004
 03 12 22 19  0 26.0000000  0  7G28G29G27G11G26G 8G 7
 -19217674.42348 -14955871.25547  20915897.0314   20915896.3204   20915902.5044
       201.0004        202.0004
 -13322158.77548 -10117895.97047  21866386.3134   21866385.9414   21866393.6934
       187.0004        187.0004
 -10460084.19648  -8130555.60947  22386486.0544   22386485.5424   22386496.3974
       165.0004        167.0004
  -4731884.43448  -3664013.11547  23476123.4304   23476121.6704   23476131.3174
       153.0004        156.0004
  -9990776.90248  -7761933.96947  22188343.5534   22188342.8554   22188351.5954
       176.0004        177.0004
 -18317877.33748 -14252114.67447  20490877.5224   20490876.6004   20490884.0854
       203.0004        203.0004
 -18538100.31848 -13883943.47747  20539151.3844   20539150.2464   20539158.1954
       208.0004        209.0004
 03 12 22 19  0 27.0000000  0  7G28G29G27G11G26G 8G 7
 -19217286.67448 -14955569.11147  20915970.8004   20915970.0164   20915975.8394
       201.0004        202.0004
 -13322115.92048 -10117862.57647  21866394.4464   21866394.4064   21866401.4134
       187.0004        188.0004
 -10457437.61248  -8128493.33647  22386989.6834   22386989.0074   22386999.8194
       165.0004        167.0004
  -4731327.71748  -3663579.31347  23476229.2844   23476227.6984   23476236.9634
       153.0004        157.0004
  -9991392.78548  -7762413.88147  22188226.3884   22188225.9544   22188233.9254
       176.0004        178.0004
 -18316509.57848 -14251048.88747  20491137.7484   20491136.6964   20491144.1984
       203.0004        203.0004
 -18539243.02648 -13884833.89747  20538933.9344   20538932.8644   20538940.5784
       208.0004        209.0004
 03 12 22 19  0 28.0000000  0  7G28G29G27G11G26G 8G 7
 -19216898.80648 -14955266.87647  20916044.6064   20916043.8244   20916049.8944
       201.0004        202.0004
 -13322072.47248 -10117828.72047  21866402.6954   21866402.5674   21866409.8964
       187.0004        187.0004
 -10454790.69648  -8126430.80847  22387493.2804   22387491.8294   22387503.5774
       165.0004        166.0004
  -4730770.48048  -3663145.10047  23476335.1264   23476333.3994   23476342.4684
       153.0004        157.0004
  -9992008.03248  -7762893.29647  22188109.3234   22188109.4374   22188117.4854
       176.0004        178.0004
 -18315141.36248 -14249982.74847  20491398.0554   20491397.1174   20491404.6204
       203.0004        203.0004
 -18540385.27248 -13885723.96047  20538716.5914   20538715.6264   20538723.2764
       208.0004        209.0004
 03 12 22 19  0 29.0000000  0  7G28G29G27G11G26G 8G 7
 -19216510.74548 -14954964.49147  20916118.4544   20916117.5114   20916123.7284
       201.0004        202.0004
 -13322028.40448 -10117794.37947  21866411.0544   21866410.6514   21866418.6484
       187.0004        187.0004
 -10452143.41648  -8124368.00047  22387997.0314   22387996.1064   22388007.2454
       165.0004        166.0004
  -4730212.68648  -3662710.45947  23476440.9994   23476439.2594   23476449.2094
       153.0004        157.0004
  -9992622.64348  -7763372.21347  22187992.4054   22187992.4824   22188000.4104
       176.0004        177.0004
 -18313772.65848 -14248916.22647  20491658.4984   20491657.5494   20491665.2004
       203.0004        203.0004
 -18541527.00948 -13886613.62547  20538499.3524   20538498.2434   20538506.1164
       208.0004        209.0004
 03 12 22 19  0 30.0000000  0  7G28G29G27G11G26G 8G 7
 -19216122.47748 -14954661.94647  20916192.3774   20916191.5594   20916197.7964
       201.0004        202.0004
 -13321983.67848 -10117759.53447  21866419.5584   21866419.4984   21866426.9894
       187.0004        187.0004
 -10449495.73748  -8122304.88147  22388500.9154   22388499.8194   22388511.3084
       165.0004        166.0004
  -4729654.28748  -3662275.34547  23476547.1204   23476545.5504   23476555.8424
       153.0004        158.0004
  -9993236.58048  -7763850.60547  22187875.5374   22187875.4654   22187883.5334
       176.0004        177.0004
 -18312403.43148 -14247849.29847  20491919.0314   20491918.1424   20491925.5704
       203.0004        203.0004
 -18542668.21848 -13887502.87747  20538282.1854   20538281.2124   20538288.6654
       208.0004        209.0004
 03 12 22 19  0 31.0000000  0  7G28G29G27G11G26G 8G 7
 -19215734.05648 -14954359.28147  20916266.2614   20916265.2564   20916271.8154
       201.0004        201.0004
 -13321938.36348 -10117724.22547  21866428.1744   21866427.9074   21866435.7274
       187.0004        188.0004
 -10446847.75748  -8120241.52547  22389004.8504   22389003.9574   22389015.3534
       165.0004        165.0004
  -4729095.36748  -3661839.82647  23476653.3864   23476651.9444   23476661.8674
       153.0004        158.0004
  -9993849.89248  -7764328.51047  22187758.8504   22187758.5284   22187766.2824
       176.0004        178.0004
 -18311033.74248 -14246782.01047  20492179.6344   20492178.9244   20492186.3724
       203.0004        203.0004
 -18543808.92548 -13888391.74047  20538065.1244   20538064.1244   20538071.7824
       208.0004        209.0004
 03 12 22 19  0 32.0000000  0  7G28G29G27G11G26G 8G 7
 -19215345.51448 -14954056.52347  20916340.2134   20916339.1774   20916345.5944
       201.0004        201.0004
 -13321892.46248 -10117688.45947  21866436.8864   21866436.8404   21866444.8844
       187.0004        188.0004
 -10444199.45548  -8118177.91347  22389508.7604   22389508.4764   22389518.5954
       165.0004        166.0004
  -4728535.91548  -3661403.89347  23476759.6564   23476758.3804   23476768.5894
       154.0004        157.0004
  -9994462.61548  -7764805.95847  22187642.2274   22187642.0884   22187649.7624
       176.0004        178.0004
 -18309663.60548 -14245714.37347  20492440.3544   20492439.6014   20492447.0944
       203.0004        203.0004
 -18544949.16848 -13889280.23947  20537848.1734   20537847.0924   20537854.8714
       208.0004        209.0004
 03 12 22 19  0 33.0000000  0  7G28G29G27G11G26G 8G 7
 -19214956.68248 -14953753.53747  20916414.2224   20916413.3414   20916419.7094
       201.0004        201.0004
 -13321845.82148 -10117652.11747  21866445.7654   21866446.1214   21866453.5004
       187.0004        187.0004
 -10441550.68748  -8116113.94147  22390012.6884   22390012.8674   22390022.5964
       165.0004        166.0004
  -4727975.79148  -3660967.43247  23476866.0694   23476865.0394   23476874.8564
       154.0004        158.0004
  -9995074.58548  -7765282.81947  22187525.7134   22187525.6824   22187533.7174
       176.0004        177.0004
 -18308292.87548 -14244646.27147  20492701.1884   20492700.2974   20492707.9084
       203.0004        203.0004
 -18546088.80648 -13890168.26947  20537631.3114   20537630.2834   20537638.0884
       208.0004        209.0004
 03 12 22 19  0 34.0000000  0  7G28G29G27G11G26G 8G 7
 -19214567.79648 -14953450.50547  20916488.2194   20916487.2984   20916493.5144
       201.0004        202.0004
 -13321798.68948 -10117615.38747  21866454.7354   21866455.1024   21866461.9024
       187.0004        187.0004
 -10438901.68448  -8114049.78947  22390516.7324   22390516.5264   22390525.8894
       165.0004        165.0004
  -4727415.23748  -3660530.63547  23476972.5954   23476971.7794   23476981.3534
       153.0004        156.0004
  -9995686.06248  -7765759.29247  22187409.2854   22187409.1704   22187416.6524
       176.0004        177.0004
 -18306921.77448 -14243577.88147  20492962.0844   20492961.2424   20492968.8464
       203.0004        203.0004
 -18547228.07648 -13891056.01147  20537414.4954   20537413.5534   20537421.2164
       208.0004        209.0004
 03 12 22 19  0 35.0000000  0  7G28G29G27G11G26G 8G 7
 -19214178.56848 -14953147.21147  20916562.2744   20916561.6294   20916567.8114
       201.0004        202.0004
 -13321750.77548 -10117578.05647  21866463.8964   21866463.5124   21866471.5944
       187.0004        186.0004
 -10436252.15448  -8111985.23047  22391020.9284   22391020.1054   22391030.9254
       165.0004        165.0004
  -4726853.94648  -3660093.27047  23477079.2894   23477078.4774   23477087.8964
       153.0004        157.0004
  -9996296.72348  -7766235.13847  22187293.0394   22187292.7724   22187301.6354
       176.0004        177.0004
 -18305550.01548 -14242508.98347  20493223.1124   20493222.2184   20493229.8994
       203.0004        203.0004
 -18548366.66148 -13891943.22247  20537197.7994   20537196.8094   20537204.6834
       208.0004        209.0004
 03 12 22 19  0 36.0000000  0  7G28G29G27G11G26G 8G 7
 -19213789.21748 -14952843.82347  20916636.3554   20916635.5904   20916642.0434
       201.0004        202.0004
 -13321702.29248 -10117540.27947  21866473.1344   21866472.5724   21866480.3244
       187.0004        187.0004
 -10433602.32848  -8109920.42747  22391525.0754   22391524.0714   22391534.7594
       165.0004        165.0004
  -4726292.14648  -3659655.50847  23477186.0644   23477185.8554   23477195.0384
       153.0004        157.0004
  -9996906.77448  -7766710.50547  22187176.9064   22187176.3264   22187185.3064
       176.0004        178.0004
 -18304177.82548 -14241439.74747  20493484.2134   20493483.6794   20493491.0884
       203.0004        203.0004
 -18549504.79248 -13892830.07647  20536981.1984   20536980.2144   20536987.8834
       208.0004        208.0004
 03 12 22 19  0 37.0000000  0  7G28G29G27G11G26G 8G 7
 -19213399.82048 -14952540.39647  20916710.4804   20916709.3874   20916715.8404
       201.0004        201.0004
 -13321653.30448 -10117502.10547  21866482.4324   21866481.9804   21866489.4564
       187.0004        187.0004
 -10430952.26048  -8107855.44047  22392029.3694   22392028.8894   22392039.7754
       165.0004        165.0004
  -4725729.93348  -3659217.42247  23477292.9174   23477292.0174   23477302.5894
       153.0004        156.0004
  -9997516.29948  -7767185.45847  22187060.8464   22187060.3884   22187069.0054
       176.0004        178.0004
 -18302805.26148 -14240370.21847  20493745.3954   20493744.6094   20493752.1314
       203.0004        203.0004
 -18550642.54348 -13893716.63547  20536764.6514   20536763.8454   20536771.3884
       208.0004        208.0004
 03 12 22 19  0 38.0000000  0  7G28G29G27G11G26G 8G 7
 -19213010.24248 -14952236.83147  20916784.5934   20916783.8264   20916789.9964
       201.0004        202.0004
 -13321603.68848 -10117463.44847  21866491.8844   21866491.2774   21866499.5054
       187.0004        187.0004
 -10428301.83648  -8105790.17747  22392533.7084   22392533.6454   22392544.4324
       165.0004        166.0004
  -4725167.13848  -3658778.89047  23477399.8894   23477399.5824   23477410.3324
       153.0004        156.0004
  -9998125.22548  -7767659.94447  22186944.9794   22186944.9584   22186953.0594
       176.0004        176.0004
 -18301432.20848 -14239300.30847  20494006.6874   20494005.8854   20494013.4064
       203.0004        203.0004
 -18551779.77948 -13894602.79547  20536548.2174   20536547.2344   20536554.8684
       208.0004        208.0004
 03 12 22 19  0 39.0000000  0  7G28G29G27G11G26G 8G 7
 -19212620.39448 -14951933.05647  20916858.7494   20916858.0094   20916864.1884
       201.0004        202.0004
 -13321553.35548 -10117424.22947  21866501.4654   21866500.9144   21866508.7244
       187.0004        187.0004
 -10425650.95448  -8103724.55747  22393038.1654   22393038.5844   22393048.5744
       164.0004        165.0004
  -4724603.67848  -3658339.83247  23477507.0724   23477506.9744   23477517.7544
       153.0004        156.0004
  -9998733.41748  -7768133.86547  22186829.2214   22186829.4874   22186837.7824
       176.0004        176.0004
 -18300058.56748 -14238229.94247  20494268.0954   20494267.4014   20494274.8234
       203.0004        203.0004
 -18552916.42648 -13895488.49247  20536331.9234   20536331.0174   20536338.6654
       208.0004        209.0004
 03 12 22 19  0 40.0000000  0  7G28G29G27G11G26G 8G 7
 -19212230.37948 -14951629.14747  20916932.9574   20916931.9664   20916938.4174
       201.0004        201.0004
 -13321502.40648 -10117384.52647  21866511.1644   21866510.5554   21866518.3304
       187.0004        187.0004
 -10422999.74148  -8101658.68447  22393542.7844   22393543.3594   22393553.0944
       164.0004        165.0004
  -4724039.66848  -3657900.34647  23477614.3684   23477614.5174   23477624.1514
       153.0004        157.0004
  -9999340.94648  -7768607.26147  22186713.7434   22186713.8624   22186721.3694
       176.0004        177.0004
 -18298684.45148 -14237159.20047  20494529.5884   20494528.9084   20494536.1744
       203.0004        203.0004
 -18554052.56248 -13896373.79147  20536115.7274   20536114.7674   20536122.3234
       208.0004        209.0004
 03 12 22 19  0 41.0000000  0  7G28G29G27G11G26G 8G 7
 -19211840.23248 -14951325.13247  20917007.2104   20917006.4524   20917012.5614
       201.0004        202.0004
 -13321450.84548 -10117344.34847  21866520.9554   21866520.7364   21866528.4524
       187.0004        187.0004
 -10420348.21148  -8099592.55447  22394047.4814   22394047.0164   22394057.1804
       164.0004        165.0004
  -4723475.14148  -3657460.46147  23477721.7604   23477721.4194   23477731.5234
       153.0004        157.0004
  -9999947.86248  -7769080.18147  22186598.2304   22186598.2094   22186605.6534
       176.0004        177.0004
 -18297309.88548 -14236088.11147  20494791.1504   20494790.3104   20494797.9094
       203.0004        203.0004
 -18555188.23248 -13897258.72847  20535899.6204   20535898.6204   20535906.3234
       208.0004        209.0004
 03 12 22 19  0 42.0000000  0  7G28G29G27G11G26G 8G 7
 -19211449.80948 -14951020.90947  20917081.5154   20917080.6444   20917087.0434
       201.0004        201.0004
 -13321398.58648 -10117303.62947  21866530.8634   21866530.6764   21866538.3544
       187.0004        188.0004
 -10417696.21048  -8097526.06247  22394552.1934   22394551.4254   22394561.6804
       164.0004        165.0004
  -4722909.95948  -3657020.06347  23477829.2564   23477829.2724   23477839.4414
       153.0004        157.0004
 -10000554.08548  -7769552.56347  22186482.9124   22186482.6734   22186490.5644
       176.0004        177.0004
 -18295934.72548 -14235016.56047  20495052.8114   20495051.9414   20495059.7104
       203.0004        203.0004
 -18556323.30348 -13898143.19947  20535683.6394   20535682.7764   20535690.3024
       208.0004        209.0004
 03 12 22 19  0 43.0000000  0  7G28G29G27G11G26G 8G 7
 -19211059.23148 -14950716.56447  20917155.8314   20917155.1274   20917161.1774
       201.0004        201.0004
 -13321345.71548 -10117262.43447  21866540.9444   21866540.9304   21866548.5244
       187.0004        187.0004
 -10415043.86048  -8095459.30147  22395056.8594   22395056.2584   22395066.8964
       164.0004        166.0004
  -4722344.22248  -3656579.23047  23477936.8924   23477936.8914   23477947.2744
       154.0004        157.0004
 -10001159.65248  -7770024.43647  22186367.7384   22186367.3634   22186375.9304
       176.0004        177.0004
 -18294559.08948 -14233944.64047  20495314.5944   20495313.7584   20495321.5214
       203.0004        203.0004
 -18557457.88948 -13899027.29247  20535467.7714   20535466.7534   20535474.4684
       208.0004        209.0004
 03 12 22 19  0 44.0000000  0  7G28G29G27G11G26G 8G 7
 -19210668.42348 -14950412.03547  20917230.1624   20917229.3154   20917235.6744
       201.0004        202.0004
 -13321292.18348 -10117220.72147  21866551.1504   21866550.7464   21866558.2664
       187.0004        187.0004
 -10412391.12648  -8093392.24347  22395561.6214   22395561.1494   22395571.9044
       164.0004        166.0004
  -4721777.87048  -3656137.91747  23478044.6154   23478045.2544   23478055.2444
       154.0004        157.0004
 -10001764.54948  -7770495.78647  22186252.6584   22186252.3034   22186261.4864
       176.0004        177.0004
 -18293182.92348 -14232872.30447  20495576.4844   20495575.6634   20495583.1904
       203.0004        203.0004
 -18558591.93348 -13899910.96447  20535251.9534   20535250.9794   20535258.8314
       208.0004        209.0004
 03 12 22 19  0 45.0000000  0  7G28G29G27G11G26G 8G 7
 -19210277.54248 -14950107.45347  20917304.5204   20917303.5304   20917310.1114
       201.0004        202.0004
 -13321238.11548 -10117178.59047  21866561.4174   21866560.9324   21866568.5224
       187.0004        187.0004
 -10409738.14148  -8091324.99247  22396066.5074   22396065.9414   22396076.4444
       164.0004        166.0004
  -4721211.05048  -3655696.23447  23478152.4604   23478153.0874   23478162.4474
       154.0004        157.0004
 -10002368.86648  -7770966.68347  22186137.7014   22186136.9114   22186145.9984
       176.0004        177.0004
 -18291806.36148 -14231799.65947  20495838.4484   20495837.4964   20495844.9534
       203.0004        203.0004
 -18559725.55148 -13900794.29947  20535036.2204   20535035.1554   20535042.8984
       208.0004        209.0004
 03 12 22 19  0 46.0000000  0  7G28G29G27G11G26G 8G 7
 -19209886.45348 -14949802.71147  20917378.9354   20917378.0604   20917384.4434
       201.0004        201.0004
 -13321183.40648 -10117135.96647  21866571.8154   21866571.8144   21866578.9204
       186.0004        187.0004
 -10407084.76548  -8089257.43047  22396571.5524   22396570.4934   22396581.2094
       164.0004        166.0004
  -4720643.65648  -3655254.11447  23478260.5084   23478261.0474   23478270.7274
       154.0004        157.0004
 -10002972.57648  -7771437.10647  22186022.8904   22186022.5614   22186031.1944
       176.0004        178.0004
 -18290429.29448 -14230726.62547  20496100.4734   20496099.6664   20496107.3944
       203.0004        203.0004
 -18560858.64048 -13901677.22547  20534820.6194   20534819.6764   20534827.3234
       208.0004        209.0004
 03 12 22 19  0 47.0000000  0  7G28G29G27G11G26G 8G 7
 -19209495.21548 -14949497.85147  20917453.3654   20917452.5984   20917458.7994
       201.0004        201.0004
 -13321128.09348 -10117092.86847  21866582.3474   21866582.2814   21866589.2474
       186.0004        187.0004
 -10404431.05448  -8087189.60847  22397076.5914   22397075.7644   22397085.7374
       164.0004        166.0004
  -4720075.71748  -3654811.56147  23478368.6624   23478369.2364   23478378.0624
       154.0004        157.0004
 -10003575.65448  -7771907.03847  22185908.1184   22185908.2464   22185916.0904
       176.0004        178.0004
 -18289051.76548 -14229653.22647  20496362.6184   20496361.9374   20496369.3634
       203.0004        204.0004
 -18561991.25348 -13902559.78447  20534605.1064   20534604.1454   20534611.7254
       208.0004        209.0004
 03 12 22 19  0 48.0000000  0  7G28G29G27G11G26G 8G 7
 -19209103.67248 -14949192.75347  20917527.8364   20917527.3264   20917533.1604
       201.0004        201.0004
 -13321072.03048 -10117049.18047  21866593.0264   21866592.5854   21866600.1604
       186.0004        187.0004
 -10401776.83748  -8085121.38847  22397581.6824   22397580.7044   22397590.1414
       164.0004        166.0004
  -4719507.08748  -3654368.47847  23478476.8814   23478477.7414   23478486.3114
       154.0004        156.0004
 -10004177.94348  -7772376.36147  22185793.5724   22185792.9494   22185801.1584
       176.0004        177.0004
 -18287673.60648 -14228579.33847  20496624.9264   20496623.9124   20496631.5334
       203.0004        203.0004
 -18563123.22648 -13903441.84247  20534389.7114   20534388.7974   20534396.4764
       208.0004        209.0004
 03 12 22 19  0 49.0000000  0  7G28G29G27G11G26G 8G 7
 -19208712.09848 -14948887.63447  20917602.3404   20917601.6294   20917607.8684
       201.0004        201.0004
 -13321015.48248 -10117005.11347  21866603.7974   21866603.7644   21866611.2324
       186.0004        187.0004
 -10399122.42348  -8083053.01547  22398086.8824   22398085.5704   22398095.4274
       164.0004        165.0004
  -4718938.03948  -3653925.06647  23478585.2334   23478585.6824   23478594.7344
       154.0004        156.0004
 -10004779.73548  -7772845.29047  22185679.0664   22185678.4414   22185686.7344
       176.0004        177.0004
 -18286295.09048 -14227505.16847  20496887.2884   20496886.1044   20496893.9284
       203.0004        203.0004
 -18564254.83648 -13904323.61447  20534174.3554   20534173.4194   20534181.0914
       208.0004        209.0004
 03 12 22 19  0 50.0000000  0  7G28G29G27G11G26G 8G 7
 -19208320.35048 -14948582.37447  20917676.8534   20917676.3504   20917682.4164
       201.0004        201.0004
 -13320958.31548 -10116960.57047  21866614.6844   21866614.4044   21866622.3364
       186.0004        187.0004
 -10396467.66448  -8080984.37347  22398592.1664   22398591.1194   22398601.4424
       164.0004        165.0004
  -4718368.42248  -3653481.21147  23478693.6554   23478693.7134   23478703.9824
       154.0004        156.0004
 -10005380.91148  -7773313.73247  22185564.6774   22185564.0484   22185572.3144
       176.0004        177.0004
 -18284916.09548 -14226430.62747  20497149.7164   20497148.7684   20497156.3454
       203.0004        203.0004
 -18565385.93748 -13905204.98947  20533959.1024   20533958.1034   20533965.9354
       208.0004        209.0004
 03 12 22 19  0 51.0000000  0  7G28G29G27G11G26G 8G 7
 -19207928.36548 -14948276.92947  20917751.4564   20917750.8934   20917757.0124
       201.0004        201.0004
 -13320900.46948 -10116915.49347  21866625.6994   21866625.5414   21866633.3954
       186.0004        187.0004
 -10393812.48548  -8078915.40947  22399097.4884   22399096.2224   22399106.8964
       164.0004        166.0004
  -4717798.18448  -3653036.87047  23478802.2394   23478802.0624   23478812.1024
       154.0004        157.0004
 -10005981.37448  -7773781.63147  22185450.4264   22185449.8114   22185458.2844
       176.0004        177.0004
 -18283536.53948 -14225355.65347  20497412.2364   20497411.5924   20497418.9434
       203.0004        203.0004
 -18566516.46448 -13906085.92047  20533743.9674   20533742.8424   20533750.5284
       208.0004        209.0004
 03 12 22 19  0 52.0000000  0  7G28G29G27G11G26G 8G 7
 -19207536.23248 -14947971.37147  20917826.0684   20917825.4504   20917831.7364
       201.0004        201.0004
 -13320842.04048 -10116869.96647  21866636.8584   21866636.3364   21866644.1754
       186.0004        187.0004
 -10391156.96348  -8076846.17247  22399602.7574   22399601.6404   22399611.9274
       164.0004        166.0004
  -4717227.42348  -3652592.12547  23478910.9024   23478910.5874   23478920.3734
       154.0004        157.0004
 -10006581.22248  -7774249.04447  22185336.3134   22185336.1874   22185344.1514
       176.0004        177.0004
 -18282156.53048 -14224280.32347  20497674.8484   20497674.0464   20497681.5874
       203.0004        203.0004
 -18567646.52048 -13906966.48447  20533528.9184   20533527.9954   20533535.4214
       208.0004        209.0004
 03 12 22 19  0 53.0000000  0  7G28G29G27G11G26G 8G 7
 -19207143.76648 -14947665.55247  20917900.8114   20917900.1364   20917906.4664
       201.0004        201.0004
 -13320782.82748 -10116823.83047  21866648.1384   21866647.7044   21866655.4544
       186.0004        187.0004
 -10388500.94848  -8074776.55247  22400108.0814   22400107.3954   22400117.3684
       164.0004        165.0004
  -4716655.94748  -3652146.82147  23479019.7264   23479019.1304   23479029.5704
       154.0004        157.0004
 -10007180.29548  -7774715.85947  22185222.3304   22185221.8654   22185230.4484
       176.0004        177.0004
 -18280775.87848 -14223204.49247  20497937.6294   20497936.7654   20497944.3434
       203.0004        203.0004
 -18568775.91348 -13907846.53247  20533314.0024   20533313.1144   20533320.7524
       208.0004        208.0004
 03 12 22 19  0 54.0000000  0  7G28G29G27G11G26G 8G 7
 -19206751.33148 -14947359.76047  20917975.4884   20917974.6284   20917980.9154
       201.0004        201.0004
 -13320723.18148 -10116777.35647  21866659.4774   21866659.2074   21866666.6134
       186.0004        187.0004
 -10385844.75648  -8072706.80147  22400613.4934   22400612.8714   22400623.4214
       164.0004        165.0004
  -4716084.09448  -3651701.22447  23479128.5914   23479128.3514   23479139.1434
       154.0004        157.0004
 -10007778.88748  -7775182.29547  22185108.4064   22185107.5574   22185115.8244
       176.0004        178.0004
 -18279394.91748 -14222128.42247  20498200.4384   20498199.6044   20498206.9834
       203.0004        203.0004
 -18569904.98548 -13908726.32747  20533099.1514   20533098.3344   20533105.8974
       208.0004        208.0004
 03 12 22 19  0 55.0000000  0  7G28G29G27G11G26G 8G 7
 -19206358.57948 -14947053.72047  20918050.2364   20918049.4574   20918055.7624
       201.0004        201.0004
 -13320662.77348 -10116730.28147  21866670.9604   21866670.5194   21866678.4564
       186.0004        187.0004
 -10383188.06748  -8070636.65847  22401119.1784   22401118.3784   22401128.6344
       164.0004        165.0004
  -4715511.54248  -3651255.07947  23479237.5054   23479237.3274   23479247.8734
       154.0004        158.0004
 -10008376.72148  -7775648.13947  22184994.6204   22184994.1294   22185001.9874
       176.0004        178.0004
 -18278013.33048 -14221051.86247  20498463.3584   20498462.5254   20498469.8844
       203.0004        203.0004
 -18571033.42748 -13909605.63147  20532884.4054   20532883.5674   20532891.0884
       208.0004        209.0004
 03 12 22 19  0 56.0000000  0  7G28G29G27G11G26G 8G 7
 -19205965.77848 -14946747.64147  20918124.9714   20918124.2344   20918130.3444
       201.0004        202.0004
 -13320601.88548 -10116682.84247  21866682.5214   21866682.1224   21866690.0874
       186.0004        187.0004
 -10380531.17048  -8068566.35047  22401624.9604   22401623.6654   22401634.0794
       164.0004        165.0004
  -4714938.57348  -3650808.61347  23479346.5764   23479346.5024   23479356.5904
       154.0004        157.0004
 -10008974.03748  -7776113.58247  22184880.8994   22184880.8954   22184888.5844
       176.0004        178.0004
 -18276631.39748 -14219975.03247  20498726.3424   20498725.3744   20498732.8594
       203.0004        203.0004
 -18572161.49148 -13910484.64447  20532669.7394   20532668.7464   20532676.4944
       208.0004        209.0004
 03 12 22 19  0 57.0000000  0  7G28G29G27G11G26G 8G 7
 -19205572.65648 -14946441.31247  20918199.7664   20918198.9634   20918205.2974
       201.0004        201.0004
 -13320540.22248 -10116634.79547  21866694.2244   21866693.3854   21866701.8364
       186.0004        187.0004
 -10377873.78448  -8066495.65647  22402130.6754   22402128.7914   22402139.5574
       164.0004        165.0004
  -4714364.88448  -3650361.58647  23479455.8244   23479455.3034   23479465.2744
       154.0004        157.0004
 -10009570.57548  -7776578.41847  22184767.3554   22184766.8014   22184775.0104
       176.0004        178.0004
 -18275248.82448 -14218897.70547  20498989.4484   20498988.4054   20498995.9724
       203.0004        203.0004
 -18573288.90048 -13911363.14347  20532455.1984   20532454.1054   20532461.8404
       208.0004        209.0004
 03 12 22 19  0 58.0000000  0  7G28G29G27G11G26G 8G 7
 -19205179.50348 -14946134.96147  20918274.5264   20918273.8294   20918280.0704
       201.0004        202.0004
 -13320478.04648 -10116586.34747  21866706.0454   21866705.5474   21866713.4744
       186.0004        187.0004
 -10375216.16848  -8064424.79647  22402636.2584   22402635.3954   22402645.2504
       164.0004        165.0004
  -4713790.77948  -3649914.23147  23479565.1724   23479564.6704   23479574.1794
       154.0004        158.0004
 -10010166.61448  -7777042.86447  22184653.9294   22184653.2944   22184661.6614
       176.0004        177.0004
 -18273865.89648 -14217820.10047  20499252.5924   20499251.6954   20499259.1154
       203.0004        203.0004
 -18574415.94648 -13912241.36047  20532240.7344   20532239.6184   20532247.4094
       208.0004        209.0004
 03 12 22 19  0 59.0000000  0  7G28G29G27G11G26G 8G 7
 -19204786.06148 -14945828.38547  20918349.3524   20918348.6574   20918354.9164
       201.0004        201.0004
 -13320415.14148 -10116537.32747  21866718.0304   21866717.6834   21866725.2914
       186.0004        187.0004
 -10372558.07548  -8062353.56447  22403141.8794   22403141.6784   22403151.1184
       164.0004        165.0004
  -4713215.98348  -3649466.33547  23479674.6194   23479673.7854   23479684.0884
       154.0004        158.0004
 -10010761.89248  -7777506.71147  22184540.6684   22184540.1444   22184548.5674
       176.0004        178.0004
 -18272482.36348 -14216742.02547  20499515.8274   20499514.8484   20499522.4824
       203.0004        203.0004
 -18575542.36848 -13913119.09247  20532026.3904   20532025.4314   20532033.2884
       208.0004        209.0004
 03 12 22 19  1  0.0000000  0  7G28G29G27G11G26G 8G 7
 -19204392.41648 -14945521.64847  20918424.2384   20918423.5484   20918429.8824
       201.0004        201.0004
 -13320351.61748 -10116487.82947  21866730.1684   21866730.2924   21866737.2644
       186.0004        187.0004
 -10369899.62248  -8060282.05447  22403647.7744   22403647.3874   22403656.5094
       164.0004        165.0004
  -4712640.63848  -3649018.00947  23479784.1284   23479783.6014   23479794.1484
       154.0004        158.0004
 -10011356.53048  -7777970.06847  22184427.4564   22184427.0424   22184435.1084
       176.0004        177.0004
 -18271098.33248 -14215663.56147  20499779.2024   20499778.2764   20499785.9794
       203.0004        203.0004
 -18576668.27748 -13913996.42147  20531812.1474   20531811.2834   20531818.8954
       208.0004        209.0004
 03 12 22 19  1  1.0000000  0  7G28G29G27G11G26G 8G 7
 -19203998.76548 -14945214.90747  20918499.1124   20918498.5874   20918504.7494
       201.0004        201.0004
 -13320287.60248 -10116437.94647  21866742.3734   21866742.2104   21866749.4604
       186.0004        187.0004
 -10367240.95648  -8058210.36947  22404153.9314   22404153.0544   22404163.0494
       164.0004        164.0004
  -4712064.86348  -3648569.35847  23479893.7684   23479893.6474   23479904.3474
       154.0004        156.0004
 -10011950.65348  -7778433.01847  22184314.4194   22184314.3034   22184322.2234
       176.0004        177.0004
 -18269713.95248 -14214584.82247  20500042.6414   20500041.6624   20500049.4474
       203.0004        203.0004
 -18577793.83448 -13914873.47847  20531597.9504   20531596.8514   20531604.4914
       208.0004        209.0004
 03 12 22 19  1  2.0000000  0  7G28G29G27G11G26G 8G 7
 -19203604.85948 -14944907.96747  20918574.0854   20918573.5404   20918579.7334
       201.0004        201.0004
 -13320222.87348 -10116387.50947  21866754.7374   21866754.1794   21866761.8444
       186.0004        187.0004
 -10364581.87648  -8056138.35447  22404660.0964   22404659.0094   22404668.6414
       163.0004        165.0004
  -4711488.45348  -3648120.20647  23480003.5344   23480003.3894   23480013.8914
       154.0004        156.0004
 -10012544.08548  -7778895.44147  22184201.4924   22184201.7144   22184209.7744
       176.0004        177.0004
 -18268329.00648 -14213505.64447  20500306.1874   20500305.1224   20500312.7954
       203.0004        203.0004
 -18578918.81248 -13915750.08347  20531383.8424   20531382.7534   20531390.5314
       208.0004        209.0004
 03 12 22 19  1  3.0000000  0  7G28G29G27G11G26G 8G 7
 -19203210.79348 -14944600.90447  20918649.1224   20918648.5084   20918654.9484
       201.0004        201.0004
 -13320157.55948 -10116336.61947  21866767.1954   21866766.5874   21866774.8394
       186.0004        187.0004
 -10361922.44048  -8054066.06947  22405166.2364   22405165.2054   22405175.1304
       164.0004        166.0004
  -4710911.49248  -3647670.62447  23480113.3534   23480113.3764   23480123.2864
       154.0004        157.0004
 -10013136.86148  -7779357.34547  22184088.6504   22184087.6634   22184096.9414
       176.0004        178.0004
 -18266943.58248 -14212426.09647  20500569.7944   20500569.1274   20500576.4904
       203.0004        203.0004
 -18580043.28348 -13916626.29647  20531169.8464   20531168.9724   20531176.6804
       208.0004        209.0004
 03 12 22 19  1  4.0000000  0  7G28G29G27G11G26G 8G 7
 -19202816.54748 -14944293.69947  20918724.1804   20918723.5054   20918729.6484
       201.0004        201.0004
 -13320091.61948 -10116285.23847  21866779.7834   21866779.3334   21866787.3534
       186.0004        188.0004
 -10359262.62148  -8051993.48747  22405672.3834   22405671.3694   22405681.3484
       164.0004        166.0004
  -4710333.96848  -3647220.61047  23480223.3304   23480223.5414   23480233.6314
       154.0004        157.0004
 -10013729.02548  -7779818.76847  22183975.9434   22183975.1084   22183983.7424
       176.0004        176.0004
 -18265557.67548 -14211346.17247  20500833.5024   20500832.7794   20500840.3924
       203.0004        203.0004
 -18581167.24948 -13917502.11447  20530955.9464   20530955.0594   20530962.7414
       208.0004        209.0004
 03 12 22 19  1  5.0000000  0  7G28G29G27G11G26G 8G 7
 -19202422.07048 -14943986.31747  20918799.2934   20918798.4954   20918804.8804
       201.0004        201.0004
 -13320025.00248 -10116233.33047  21866792.4544   21866792.2894   21866799.8754
       186.0004        187.0004
 -10356602.42148  -8049920.61147  22406178.6024   22406177.5424   22406187.3864
       164.0004        165.0004
  -4709755.82248  -3646770.11447  23480333.4564   23480333.6974   23480343.9464
       154.0004        156.0004
 -10014320.49748  -7780279.65647  22183863.4034   22183863.1904   22183871.5354
       176.0004        177.0004
 -18264171.22648 -14210265.82547  20501097.3324   20501096.5134   20501104.0694
       203.0004        203.0004
 -18582290.65948 -13918377.50047  20530742.1744   20530741.2214   20530748.9704
       208.0004        209.0004
 03 12 22 19  1  6.0000000  0  7G28G29G27G11G26G 8G 7
 -19202027.32448 -14943678.72247  20918874.4764   20918873.8094   20918879.8134
       201.0004        201.0004
 -13319957.66848 -10116180.86447  21866805.2804   21866804.7474   21866812.8484
       186.0004        187.0004
 -10353941.78048  -8047847.39047  22406684.8934   22406683.6294   22406693.7134
       164.0004        165.0004
  -4709177.01948  -3646319.10047  23480443.7444   23480444.0314   23480453.8184
       154.0004        156.0004
 -10014911.21948  -7780739.96847  22183750.9444   22183751.5344   22183759.1934
       176.0004        177.0004
 -18262784.18048 -14209185.01147  20501361.2854   20501360.1334   20501367.8414
       203.0004        203.0004
 -18583413.46648 -13919252.41447  20530528.4884   20530527.4674   20530535.3534
       208.0004        209.0004
 03 12 22 19  1  7.0000000  0  7G28G29G27G11G26G 8G 7
 -19201632.48748 -14943371.05647  20918949.6304   20918948.8594   20918954.8824
       201.0004        201.0004
 -13319889.79948 -10116127.97947  21866818.1624   21866817.7994   21866825.6544
       186.0004        187.0004
 -10351280.85948  -8045773.95147  22407191.2034   22407190.6134   22407199.5654
       163.0004        165.0004
  -4708597.74948  -3645867.71647  23480554.0784   23480554.5854   23480563.6574
       154.0004        156.0004
 -10015501.38248  -7781199.83547  22183638.5724   22183638.7104   22183646.7114
       176.0004        177.0004
 -18261396.73548 -14208103.88947  20501625.3194   20501624.4014   20501632.0124
       203.0004        203.0004
 -18584535.84348 -13920126.99447  20530314.8974   20530313.9194   20530321.7144
       208.0004        209.0004
 03 12 22 19  1  8.0000000  0  7G28G29G27G11G26G 8G 7
 -19201237.56048 -14943063.32047  20919024.8014   20919024.0904   20919030.1694
       201.0004        201.0004
 -13319821.39448 -10116074.67647  21866831.1734   21866830.5254   21866838.6584
       186.0004        187.0004
 -10348619.63848  -8043700.28347  22407697.5944   22407696.7164   22407705.6684
       163.0004        165.0004
  -4708017.99748  -3645415.96547  23480664.4314   23480664.8324   23480673.5334
       154.0004        157.0004
 -10016090.98848  -7781659.25947  22183526.2964   22183526.0574   22183534.1344
       176.0004        178.0004
 -18260008.88048 -14207022.44447  20501889.4134   20501888.7704   20501896.3004
       203.0004        203.0004
 -18585657.80548 -13921001.24847  20530101.4014   20530100.4124   20530107.9474
       208.0004        209.0004
 03 12 22 19  1  9.0000000  0  7G28G29G27G11G26G 8G 7
 -19200842.45848 -14942755.44947  20919099.9744   20919099.4124   20919105.3314
       201.0004        201.0004
 -13319752.36348 -10116020.88747  21866844.2234   21866844.0804   21866851.2184
       186.0004        187.0004
 -10345958.09148  -8041626.35547  22408204.1354   22408203.3874   22408213.0214
       163.0004        165.0004
  -4707437.68448  -3644963.78047  23480774.8064   23480774.5114   23480784.1964
       154.0004        157.0004
 -10016679.94848  -7782118.19647  22183414.1804   22183413.6954   22183422.2294
       176.0004        178.0004
 -18258620.53648 -14205940.62047  20502153.5924   20502152.6544   20502160.5094
       203.0004        203.0004
 -18586779.26448 -13921875.11147  20529888.0074   20529887.0984   20529894.6304
       208.0004        209.0004
 03 12 22 19  1 10.0000000  0  7G28G29G27G11G26G 8G 7
 -19200447.08548 -14942447.36847  20919175.2194   20919174.3804   20919180.6164
       201.0004        201.0004
 -13319682.61248 -10115966.54047  21866857.4684   21866857.3184   21866864.4744
       186.0004        187.0004
 -10343296.06948  -8039552.05047  22408710.8214   22408711.0094   22408719.4934
       163.0004        165.0004
  -4706856.69748  -3644511.06847  23480885.3504   23480885.2034   23480895.1484
       154.0004        156.0004
 -10017268.16148  -7782576.54447  22183302.2604   22183301.9724   22183309.9414
       176.0004        178.0004
 -18257231.59448 -14204858.32947  20502417.8804   20502417.0204   20502424.6554
       203.0004        203.0004
 -18587900.10548 -13922748.49347  20529674.7254   20529673.7534   20529681.5904
       208.0004        209.0004
 03 12 22 19  1 11.0000000  0  7G28G29G27G11G26G 8G 7
 -19200051.46248 -14942139.08847  20919250.4784   20919249.6074   20919255.9714
       201.0004        201.0004
 -13319612.18248 -10115911.65947  21866870.8334   21866870.8954   21866878.5314
       186.0004        187.0004
 -10340633.66048  -8037477.43947  22409217.6454   22409217.3184   22409225.5714
       163.0004        165.0004
  -4706275.11648  -3644057.89047  23480996.0734   23480995.6104   23481005.6804
       154.0004        156.0004
 -10017855.69848  -7783034.37047  22183190.4704   22183190.1154   22183198.3914
       176.0004        178.0004
 -18255842.14148 -14203775.64247  20502682.2644   20502681.4474   20502689.0914
       203.0004        203.0004
 -18589020.39548 -13923621.44747  20529461.5474   20529460.6484   20529468.2454
       208.0004        209.0004
 03 12 22 19  1 12.0000000  0  7G28G29G27G11G26G 8G 7
 -19199655.77848 -14941830.76347  20919325.7564   20919325.0904   20919331.1974
       201.0004        201.0004
 -13319541.22048 -10115856.36547  21866884.3334   21866884.1344   21866891.6974
       186.0004        187.0004
 -10337970.97248  -8035402.62047  22409724.3774   22409723.3684   22409732.1014
       163.0004        165.0004
  -4705693.03848  -3643604.32047  23481106.9704   23481105.9504   23481116.0704
       154.0004        157.0004
 -10018442.68348  -7783491.75847  22183078.7624   22183078.4744   22183086.9944
       176.0004        178.0004
 -18254452.24748 -14202692.60947  20502946.7144   20502945.9524   20502953.5714
       203.0004        203.0004
 -18590140.26348 -13924494.07147  20529248.4634   20529247.6294   20529255.1894
       208.0004        208.0004
 03 12 22 19  1 13.0000000  0  7G28G29G27G11G26G 8G 7
 -19199259.95948 -14941522.33647  20919401.1034   20919400.4584   20919406.4594
       201.0004        201.0004
 -13319469.68548 -10115800.62447  21866897.9274   21866897.5874   21866905.5994
       186.0004        187.0004
 -10335307.95948  -8033327.55247  22410230.9364   22410229.7224   22410239.2854
       163.0004        164.0004
  -4705110.45848  -3643150.35947  23481217.8924   23481216.8464   23481226.7414
       154.0004        157.0004
 -10019029.07248  -7783948.68247  22182967.2264   22182966.9104   22182975.3224
       176.0004        178.0004
 -18253061.91848 -14201609.23747  20503211.2784   20503210.4444   20503218.0594
       203.0004        203.0004
 -18591259.68348 -13925366.34447  20529035.4674   20529034.4214   20529042.2704
       208.0004        209.0004
 03 12 22 19  1 14.0000000  0  7G28G29G27G11G26G 8G 7
 -19198863.85948 -14941213.68947  20919476.4944   20919475.9044   20919481.9464
       201.0004        202.0004
 -13319397.43048 -10115744.32347  21866911.7274   21866911.3394   21866919.1684
       186.0004        187.0004
 -10332644.49948  -8031252.14247  22410737.6194   22410737.0364   22410746.4374
       163.0004        165.0004
  -4704527.20048  -3642695.87447  23481328.9984   23481328.5324   23481337.8824
       154.0004        157.0004
 -10019614.71048  -7784405.02247  22182855.8164   22182855.5924   22182864.2124
       176.0004        177.0004
 -18251670.99848 -14200525.40447  20503475.9744   20503475.0714   20503482.8254
       203.0004        203.0004
 -18592378.48348 -13926238.13847  20528822.5614   20528821.5844   20528829.3864
       208.0004        209.0004
 03 12 22 19  1 15.0000000  0  7G28G29G27G11G26G 8G 7
 -19198467.61448 -14940904.92547  20919551.9274   20919551.0574   20919557.2674
       201.0004        201.0004
 -13319324.58548 -10115687.56747  21866925.6304   21866924.9944   21866933.1944
       186.0004        187.0004
 -10329980.72548  -8029176.48047  22411244.6084   22411243.9044   22411253.9324
       163.0004        165.0004
  -4703943.41348  -3642240.97947  23481440.2514   23481439.1084   23481448.8394
       154.0004        157.0004
 -10020199.73248  -7784860.89147  22182744.5564   22182744.0704   22182753.2404
       176.0004        177.0004
 -18250279.62748 -14199441.22347  20503740.7414   20503739.8884   20503747.6444
       203.0004        203.0004
 -18593496.81148 -13927109.56247  20528609.7524   20528608.7274   20528616.6164
       208.0004        209.0004
 03 12 22 19  1 16.0000000  0  7G28G29G27G11G26G 8G 7
 -19198071.24248 -14940596.06447  20919627.3594   20919626.8284   20919632.8344
       201.0004        201.0004
 -13319251.15848 -10115630.34847  21866939.6754   21866939.6164   21866946.9704
       186.0004        187.0004
 -10327316.64248  -8027100.57647  22411751.7104   22411750.8044   22411761.3034
       163.0004        165.0004
  -4703359.11248  -3641785.68247  23481551.5614   23481551.2354   23481560.0414
       154.0004        157.0004
 -10020784.17348  -7785316.29947  22182633.3834   22182633.3504   22182641.6874
       176.0004        178.0004
 -18248887.80648 -14198356.68847  20504005.5874   20504004.8234   20504012.3984
       203.0004        203.0004
 -18594614.66248 -13927980.61547  20528397.0444   20528396.1624   20528403.8374
       208.0004        209.0004
 03 12 22 19  1 17.0000000  0  7G28G29G27G11G26G 8G 7
 -19197674.64648 -14940287.02747  20919702.8224   20919702.2344   20919708.0784
       201.0004        201.0004
 -13319177.06048 -10115572.61247  21866953.8124   21866953.5184   21866961.2994
       186.0004        188.0004
 -10324652.16948  -8025024.36547  22412258.8674   22412257.4804   22412267.5104
       163.0004        164.0004
  -4702774.19948  -3641329.91247  23481662.9694   23481663.0234   23481672.4454
       154.0004        156.0004
 -10021367.91548  -7785771.16747  22182522.2944   22182521.9334   22182530.5234
       176.0004        178.0004
 -18247495.44448 -14197271.73547  20504270.5844   20504269.7214   20504277.3224
       203.0004        203.0004
 -18595731.96448 -13928851.23847  20528184.4424   20528183.5424   20528191.1014
       208.0004        208.0004
 03 12 22 19  1 18.0000000  0  7G28G29G27G11G26G 8G 7
 -19197277.92648 -14939977.89347  20919778.3764   20919777.4884   20919783.6524
       201.0004        201.0004
 -13319102.39448 -10115514.42747  21866968.0674   21866967.5704   21866975.3314
       186.0004        187.0004
 -10321987.36148  -8022947.89447  22412765.8524   22412765.1634   22412774.9754
       163.0004        164.0004
  -4702188.77048  -3640873.73647  23481774.4064   23481773.8394   23481783.7894
       154.0004        156.0004
 -10021951.07548  -7786225.57347  22182411.3254   22182410.7424   22182419.5104
       176.0004        178.0004
 -18246102.64548 -14196186.43947  20504535.6364   20504534.8074   20504542.4664
       203.0004        203.0004
 -18596848.81748 -13929721.51547  20527971.9304   20527971.0114   20527978.8014
       208.0004        209.0004
 03 12 22 19  1 19.0000000  0  7G28G29G27G11G26G 8G 7
 -19196881.00448 -14939668.60547  20919853.9094   20919852.8474   20919859.1504
       201.0004        201.0004
 -13319027.06848 -10115455.73247  21866982.4214   21866981.5474   21866989.5084
       187.0004        187.0004
 -10319322.16848  -8020871.12447  22413272.8424   22413272.6694   22413281.3454
       163.0004        164.0004
  -4701602.75548  -3640417.10447  23481885.9204   23481885.0414   23481894.3654
       154.0004        156.0004
 -10022533.55648  -7786679.45747  22182300.4904   22182299.7124   22182308.9054
       176.0004        177.0004
 -18244709.32148 -14195100.73347  20504800.8004   20504799.9414   20504807.5934
       203.0004        203.0004
 -18597965.12248 -13930591.36247  20527759.4964   20527758.4784   20527766.3504
       208.0004        209.0004
 03 12 22 19  1 20.0000000  0  7G28G29G27G11G26G 8G 7
 -19196483.92248 -14939359.19147  20919929.4764   20919928.8554   20919934.7204
       201.0004        202.0004
 -13318951.15448 -10115396.58247  21866996.8414   21866996.5234   21867003.9304
       186.0004        187.0004
 -10316656.64648  -8018794.10247  22413780.0494   22413779.1264   22413788.7734
       163.0004        164.0004
  -4701016.19648  -3639960.04247  23481997.5724   23481996.8034   23482005.3244
       154.0004        156.0004
 -10023115.42348  -7787132.85647  22182189.7324   22182189.8324   22182197.6474
       176.0004        177.0004
 -18243315.55048 -14194014.67747  20505066.0674   20505065.0994   20505072.8514
       203.0004        203.0004
 -18599080.96648 -13931460.85047  20527547.1464   20527546.0084   20527553.8224
       208.0004        209.0004
 03 12 22 19  1 21.0000000  0  7G28G29G27G11G26G 8G 7
 -19196086.63748 -14939049.61847  20920005.0624   20920004.3254   20920010.4144
       201.0004        201.0004
 -13318874.57248 -10115336.90647  21867011.4524   21867011.3154   21867018.3784
       187.0004        187.0004
 -10313990.74248  -8016716.78747  22414287.4014   22414287.4674   22414295.7704
       163.0004        165.0004
  -4700429.04348  -3639502.51547  23482109.3574   23482108.8854   23482117.3724
       154.0004        156.0004
 -10023696.62248  -7787585.73847  22182079.1394   22182079.2144   22182087.1714
       176.0004        178.0004
 -18241921.24748 -14192928.20747  20505331.4014   20505330.3694   20505338.1904
       203.0004        203.0004
 -18600196.26548 -13932329.91247  20527334.9054   20527333.8734   20527341.7084
       208.0004        209.0004
 03 12 22 19  1 22.0000000  0  7G28G29G27G11G26G 8G 7
 -19195689.14348 -14938739.88147  20920080.6764   20920079.9814   20920086.0244
       201.0004        201.0004
 -13318797.31948 -10115276.71347  21867026.0984   21867025.6484   21867033.5584
       187.0004        187.0004
 -10311324.45148  -8014639.16347  22414794.8644   22414794.2634   22414803.4464
       163.0004        165.0004
  -4699841.29348  -3639044.54047  23482221.2134   23482219.7414   23482229.5224
       154.0004        157.0004
 -10024277.14548  -7788038.09747  22181968.6804   22181968.6984   22181977.3664
       176.0004        178.0004
 -18240526.42548 -14191841.33647  20505596.8374   20505595.7454   20505603.5374
       203.0004        203.0004
 -18601311.02448 -13933198.55747  20527122.7594   20527121.7654   20527129.5024
       208.0004        209.0004
 03 12 22 19  1 23.0000000  0  7G28G29G27G11G26G 8G 7
 -19195291.51648 -14938430.04347  20920156.3064   20920155.6634   20920161.6044
       201.0004        201.0004
 -13318719.48548 -10115216.06547  21867040.9104   21867040.3224   21867048.0734
       187.0004        187.0004
 -10308657.85348  -8012561.29247  22415302.3964   22415301.6204   22415310.1464
       163.0004        165.0004
  -4699253.01748  -3638586.14547  23482333.2254   23482331.3554   23482342.4244
       154.0004        156.0004
 -10024857.06248  -7788489.97847  22181858.3254   22181858.7204   22181866.6784
       176.0004        178.0004
 -18239131.15648 -14190754.11747  20505862.3664   20505861.3174   20505868.9964
       203.0004        203.0004
 -18602425.31648 -13934066.83647  20526910.6884   20526909.6444   20526917.5234
       208.0004        209.0004
 03 12 22 19  1 24.0000000  0  7G28G29G27G11G26G 8G 7
 -19194893.75048 -14938120.09947  20920231.9544   20920231.3114   20920237.4634
       201.0004        201.0004
 -13318641.07848 -10115154.97047  21867055.8484   21867055.2594   21867063.0854
       187.0004        187.0004
 -10305990.91848  -8010483.16647  22415810.0064   22415809.2574   22415817.8384
       163.0004        165.0004
  -4698664.21848  -3638127.34147  23482445.1874   23482443.4814   23482454.5254
       154.0004        157.0004
 -10025436.37548  -7788941.39547  22181748.0864   22181747.9724   22181756.4334
       176.0004        178.0004
 -18237735.42748 -14189666.53647  20506127.9504   20506126.9754   20506134.4004
       203.0004        203.0004
 -18603539.10848 -13934934.72847  20526698.7334   20526697.7194   20526705.5934
       208.0004        209.0004
 03 12 22 19  1 25.0000000  0  7G28G29G27G11G26G 8G 7
 -19194495.78648 -14937809.99747  20920307.6794   20920307.0144   20920313.2824
       201.0004        201.0004
 -13318562.00548 -10115093.35547  21867070.8844   21867070.6454   21867078.4064
       187.0004        187.0004
 -10303323.63048  -8008404.76047  22416317.5804   22416315.9604   22416324.9974
       163.0004        165.0004
  -4698074.84348  -3637668.08447  23482557.2194   23482555.7734   23482566.6764
       154.0004        156.0004
 -10026015.02548  -7789392.29347  22181637.9124   22181637.3874   22181645.7924
       176.0004        177.0004
 -18236339.17848 -14188578.55447  20506393.6124   20506392.6094   20506400.1584
       203.0004        203.0004
 -18604652.40548 -13935802.23247  20526486.8774   20526486.0804   20526493.6134
       208.0004        209.0004
 03 12 22 19  1 26.0000000  0  7G28G29G27G11G26G 8G 7
 -19194097.59048 -14937499.71547  20920383.4894   20920382.9914   20920388.9104
       201.0004        202.0004
 -13318482.25248 -10115031.20947  21867086.0414   21867085.8324   21867093.1824
       187.0004        187.0004
 -10300655.92048  -8006326.02347  22416825.1814   22416823.9564   22416832.9794
       163.0004        165.0004
  -4697484.84248  -3637208.34247  23482669.4324   23482668.2304   23482678.6904
       154.0004        156.0004
 -10026592.97948  -7789842.64947  22181527.9334   22181527.5994   22181536.1274
       176.0004        177.0004
 -18234942.39648 -14187490.15347  20506659.3854   20506658.5734   20506666.1404
       203.0004        202.0004
 -18605765.13848 -13936669.29747  20526275.0994   20526274.2714   20526282.0544
       208.0004        209.0004
 03 12 22 19  1 27.0000000  0  7G28G29G27G11G26G 8G 7
 -19193699.19948 -14937189.28047  20920459.3134   20920458.7404   20920464.6084
       201.0004        202.0004
 -13318401.86648 -10114968.57047  21867101.3084   21867100.9784   21867108.7734
       187.0004        187.0004
 -10297987.83348  -8004247.00247  22417332.8134   22417332.2884   22417341.3984
       163.0004        164.0004
  -4696894.25848  -3636748.14647  23482781.7184   23482780.6384   23482790.6924
       154.0004        156.0004
 -10027170.26048  -7790292.47747  22181418.0614   22181417.6354   22181425.8914
       176.0004        177.0004
 -18233545.10748 -14186401.35747  20506925.2834   20506924.2694   20506932.0884
       203.0004        202.0004
 -18606877.34048 -13937535.94747  20526063.4364   20526062.5894   20526070.3734
       208.0004        209.0004
 03 12 22 19  1 28.0000000  0  7G28G29G27G11G26G 8G 7
 -19193300.77348 -14936878.81547  20920535.0914   20920534.2344   20920540.5784
       201.0004        201.0004
 -13318321.00348 -10114905.55947  21867116.6844   21867116.3954   21867124.0314
       187.0004        187.0004
 -10295319.52148  -8002167.80347  22417840.5174   22417840.2664   22417849.1884
       163.0004        164.0004
  -4696303.25348  -3636287.62447  23482894.0904   23482893.4854   23482903.8154
       154.0004        156.0004
 -10027747.06148  -7790741.93247  22181308.2534   22181307.9244   22181315.8954
       176.0004        177.0004
 -18232147.45848 -14185312.28147  20507191.2734   20507190.3974   20507197.9024
       203.0004        203.0004
 -18607989.18148 -13938402.31647  20525851.8594   20525851.0254   20525858.8204
       208.0004        209.0004
 03 12 22 19  1 29.0000000  0  7G28G29G27G11G26G 8G 7
 -19192902.04748 -14936568.12347  20920611.0304   20920610.3814   20920616.4914
       201.0004        201.0004
 -13318239.39848 -10114841.97247  21867132.2204   21867132.0224   21867139.3584
       186.0004        187.0004
 -10292650.72248  -8000088.22847  22418348.3424   22418348.0794   22418357.7434
       163.0004        164.0004
  -4695711.56548  -3635826.56747  23483006.6694   23483006.1164   23483015.9464
       154.0004        157.0004
 -10028323.10048  -7791190.79247  22181198.6304   22181198.7364   22181206.9264
       176.0004        177.0004
 -18230749.18248 -14184222.71347  20507457.2654   20507456.5304   20507464.1154
       203.0004        203.0004
 -18609100.37848 -13939268.18447  20525640.3964   20525639.7074   20525647.3384
       208.0004        209.0004
 03 12 22 19  1 30.0000000  0  7G28G29G27G11G26G 8G 7
 -19192503.12648 -14936257.27747  20920687.1074   20920686.2234   20920692.0964
       201.0004        201.0004
 -13318157.15048 -10114777.88647  21867147.8374   21867147.7664   21867155.1324
       186.0004        187.0004
 -10289981.56848  -7998008.36747  22418856.2854   22418856.0574   22418864.3774
       163.0004        164.0004
  -4695119.28948  -3635365.05347  23483119.3254   23483118.1274   23483128.6484
       154.0004        156.0004
 -10028898.48848  -7791639.14747  22181089.0904   22181089.0724   22181097.7674
       176.0004        177.0004
 -18229350.40448 -14183132.76347  20507723.2774   20507722.6004   20507730.3564
       203.0004        203.0004
 -18610211.06648 -13940133.65447  20525429.0484   20525428.1894   20525435.9474
       208.0004        209.0004
 03 12 22 19  1 31.0000000  0  7G28G29G27G11G26G 8G 7
 -19192104.17748 -14935946.40547  20920762.9124   20920762.1414   20920768.0144
       201.0004        202.0004
 -13318074.43448 -10114713.43347  21867163.5244   21867163.4904   21867171.0604
       187.0004        187.0004
 -10287312.21148  -7995928.35047  22419364.3484   22419363.7344   22419371.5124
       163.0004        163.0004
  -4694526.60548  -3634903.21947  23483232.1194   23483231.0684   23483240.6864
       154.0004        156.0004
 -10029473.37048  -7792087.11047  22180979.6634   22180979.3564   22180988.0244
       176.0004        178.0004
 -18227951.27448 -14182042.53647  20507989.5574   20507988.7114   20507996.4584
       203.0004        203.0004
 -18611321.36748 -13940998.82147  20525217.7614   20525216.9424   20525224.4614
       208.0004        209.0004
 03 12 22 19  1 32.0000000  0  7G28G29G27G11G26G 8G 7
 -19191705.06848 -14935635.41347  20920838.8794   20920838.0004   20920844.2134
       201.0004        202.0004
 -13317991.09748 -10114648.50247  21867179.3934   21867179.0184   21867186.7674
       187.0004        187.0004
 -10284642.51648  -7993848.07247  22419872.4734   22419871.3844   22419880.0314
       163.0004        164.0004
  -4693933.36748  -3634440.95747  23483344.9684   23483343.8024   23483353.4734
       154.0004        156.0004
 -10030047.61748  -7792534.57747  22180870.4054   22180870.5014   22180878.6534
       176.0004        177.0004
 -18226551.68348 -14180951.94547  20508255.8644   20508254.9794   20508262.5594
       203.0004        203.0004
 -18612431.18848 -13941863.61747  20525006.5614   20525005.7364   20525013.3274
       208.0004        209.0004
 03 12 22 19  1 33.0000000  0  7G28G29G27G11G26G 8G 7
 -19191305.66248 -14935324.18947  20920914.8844   20920913.9374   20920920.2824
       201.0004        202.0004
 -13317907.02548 -10114582.99047  21867195.4414   21867195.2164   21867202.6404
       187.0004        187.0004
 -10281972.33448  -7991767.41547  22420380.5444   22420378.4764   22420388.3914
       163.0004        164.0004
  -4693339.44148  -3633978.16147  23483457.9674   23483456.6654   23483467.2894
       154.0004        156.0004
 -10030621.09948  -7792981.44447  22180761.2174   22180761.3514   22180770.2014
       176.0004        178.0004
 -18225151.47748 -14179860.87847  20508522.3064   20508521.5604   20508529.3054
       203.0004        203.0004
 -18613540.37948 -13942727.92247  20524795.4784   20524794.6744   20524802.4504
       208.0004        208.0004
 03 12 22 19  1 34.0000000  0  7G28G29G27G11G26G 8G 7
 -19190906.09148 -14935012.83647  20920990.8734   20920989.6554   20920996.3704
       201.0004        202.0004
 -13317822.34248 -10114517.00747  21867211.5614   21867211.5524   21867218.7304
       187.0004        187.0004
 -10279301.80448  -7989686.48747  22420888.5774   22420887.2034   22420896.6244
       163.0004        164.0004
  -4692744.96748  -3633514.94047  23483571.1034   23483569.7344   23483580.4904
       154.0004        156.0004
 -10031193.94048  -7793427.82347  22180652.1814   22180652.5784   22180660.7334
       176.0004        177.0004
 -18223750.79148 -14178769.43947  20508788.8904   20508788.1004   20508795.7084
       203.0004        203.0004
 -18614649.07848 -13943591.84547  20524584.4904   20524583.5814   20524591.4034
       208.0004        209.0004
 03 12 22 19  1 35.0000000  0  7G28G29G27G11G26G 8G 7
 -19190506.28148 -14934701.29447  20921066.9644   20921065.8744   20921072.2064
       201.0004        201.0004
 -13317736.97748 -10114450.49247  21867227.8394   21867227.1744   21867234.8914
       187.0004        187.0004
 -10276630.84848  -7987605.23547  22421396.7424   22421395.7254   22421405.6534
       163.0004        165.0004
  -4692149.86848  -3633051.22647  23483684.4174   23483682.6694   23483693.0144
       153.0004        155.0004
 -10031766.09848  -7793873.65647  22180543.3404   22180543.5224   22180551.6794
       176.0004        177.0004
 -18222349.54348 -14177677.56047  20509055.5484   20509054.9714   20509062.4974
       203.0004        203.0004
 -18615757.22048 -13944455.33247  20524373.5954   20524372.8044   20524380.4424
       208.0004        209.0004
 03 12 22 19  1 36.0000000  0  7G28G29G27G11G26G 8G 7
 -19190106.37848 -14934389.68447  20921143.0584   20921142.0114   20921148.4314
       201.0004        201.0004
 -13317651.08448 -10114383.56047  21867244.2384   21867243.7104   21867251.4664
       187.0004        187.0004
 -10273959.65348  -7985523.78547  22421905.0614   22421904.1604   22421913.0244
       163.0004        164.0004
  -4691554.30348  -3632587.15647  23483797.6944   23483796.1834   23483806.2774
       153.0004        155.0004
 -10032337.71248  -7794319.06947  22180434.6074   22180435.1554   22180442.8944
       176.0004        177.0004
 -18220947.90748 -14176585.37347  20509322.2444   20509321.6934   20509329.0514
       203.0004        203.0004
 -18616864.93348 -13945318.48347  20524162.7874   20524161.9764   20524169.6904
       208.0004        209.0004
 03 12 22 19  1 37.0000000  0  7G28G29G27G11G26G 8G 7
 -19189706.29548 -14934077.93147  20921219.1574   20921218.2434   20921224.5204
       201.0004        201.0004
 -13317564.54748 -10114316.12647  21867260.7464   21867260.6504   21867268.1584
       187.0004        188.0004
 -10271288.06648  -7983442.04147  22422413.4624   22422412.5734   22422422.0624
       163.0004        164.0004
  -4690958.15948  -3632122.62547  23483911.0874   23483909.7424   23483919.4654
       153.0004        155.0004
 -10032908.65848  -7794763.95747  22180326.0244   22180326.3354   22180333.9774
       176.0004        178.0004
 -18219545.74248 -14175492.77947  20509589.0884   20509588.5474   20509595.8844
       203.0004        203.0004
 -18617972.12348 -13946181.22947  20523952.0984   20523951.2474   20523958.9904
       208.0004        209.0004
 03 12 22 19  1 38.0000000  0  7G28G29G27G11G26G 8G 7
 -19189306.00348 -14933766.01347  20921295.3414   20921294.3294   20921300.9834
       201.0004        201.0004
 -13317477.37348 -10114248.19947  21867277.3214   21867276.7314   21867284.7564
       187.0004        187.0004
 -10268616.09648  -7981359.99047  22422921.9094   22422921.5324   22422930.4584
       163.0004        165.0004
  -4690361.42748  -3631657.64347  23484024.6254   23484023.8984   23484033.5044
       153.0004        156.0004
 -10033478.92948  -7795208.33447  22180217.4814   22180217.1614   22180225.8124
       176.0004        178.0004
 -18218143.07248 -14174399.79247  20509855.9894   20509855.4084   20509862.6374
       203.0004        203.0004
 -18619078.78648 -13947043.56347  20523741.5014   20523740.6314   20523748.3514
       208.0004        209.0004
 03 12 22 19  1 39.0000000  0  7G28G29G27G11G26G 8G 7
 -19188905.56448 -14933453.98147  20921371.5444   20921370.6414   20921377.1124
       201.0004        201.0004
 -13317389.59648 -10114179.80347  21867294.0444   21867293.3144   21867301.2674
       187.0004        186.0004
 -10265943.81548  -7979277.69947  22423430.4054   22423429.9874   22423438.5794
       163.0004        164.0004
  -4689764.15048  -3631192.23247  23484138.3184   23484138.0084   23484146.5194
       153.0004        155.0004
 -10034048.58548  -7795652.22147  22180109.0184   22180108.7854   22180116.9314
       176.0004        177.0004
 -18216739.95748 -14173306.45847  20510123.0284   20510122.3484   20510129.7204
       203.0004        203.0004
 -18620184.97748 -13947905.52947  20523530.9984   20523530.1234   20523537.9334
       208.0004        209.0004
 03 12 22 19  1 40.0000000  0  7G28G29G27G11G26G 8G 7
 -19188504.93948 -14933141.80447  20921447.7374   20921446.7644   20921453.1424
       201.0004        201.0004
 -13317301.19048 -10114110.91747  21867310.8684   21867310.3294   21867317.7254
       187.0004        187.0004
 -10263271.17648  -7977195.13147  22423938.9474   22423938.7434   22423947.7154
       163.0004        164.0004
  -4689166.30248  -3630726.37447  23484252.1294   23484251.5584   23484259.9154
       153.0004        156.0004
 -10034617.59448  -7796095.60347  22180000.7324   22180000.7864   22180008.5764
       176.0004        178.0004
 -18215336.34848 -14172212.73647  20510390.1654   20510389.4674   20510396.9054
       203.0004        203.0004
 -18621290.65048 -13948767.09347  20523320.5844   20523319.6834   20523327.6854
       208.0004        209.0004
 03 12 22 19  1 41.0000000  0  7G28G29G27G11G26G 8G 7
 -19188104.17148 -14932829.52247  20921523.9824   20921523.2904   20921529.3824
       201.0004        201.0004
 -13317212.18248 -10114041.56447  21867327.7444   21867327.4204   21867334.7144
       186.0004        187.0004
 -10260598.19048  -7975112.28447  22424447.4864   22424447.0024   22424455.8304
       163.0004        163.0004
  -4688567.92848  -3630260.11647  23484366.0304   23484365.4804   23484373.5604
       153.0004        156.0004
 -10035186.00348  -7796538.52347  22179892.5594   22179892.2114   22179900.3454
       176.0004        178.0004
 -18213932.27448 -14171118.65247  20510657.3754   20510656.5144   20510664.2694
       203.0004        203.0004
 -18622395.84348 -13949628.28147  20523110.2814   20523109.3564   20523117.3484
       208.0004        209.0004
 03 12 22 19  1 42.0000000  0  7G28G29G27G11G26G 8G 7
 -19187703.21648 -14932517.09247  20921600.2754   20921599.6364   20921605.6864
       201.0004        201.0004
 -13317122.53448 -10113971.71147  21867344.7534   21867344.5554   21867352.3614
       186.0004        187.0004
 -10257924.84948  -7973029.16247  22424956.1074   22424955.4474   22424964.1264
       163.0004        164.0004
  -4687968.97848  -3629793.40447  23484480.0234   23484479.4044   23484487.3464
       153.0004        155.0004
 -10035753.75848  -7796980.92847  22179784.5364   22179783.9944   22179792.6844
       176.0004        177.0004
 -18212527.69248 -14170024.17947  20510924.7074   20510924.0224   20510931.6314
       203.0004        202.0004
 -18623500.51748 -13950489.06647  20522900.0904   20522899.1214   20522907.1964
       208.0004        209.0004
 03 12 22 19  1 43.0000000  0  7G28G29G27G11G26G 8G 7
 -19187301.99648 -14932204.45347  20921676.6324   20921676.0054   20921682.1284
       201.0004        201.0004
 -13317032.15748 -10113901.28747  21867361.9534   21867361.8714   21867369.0404
       187.0004        187.0004
 -10255251.06048  -7970945.69547  22425464.9554   22425464.1754   22425473.8014
       163.0004        164.0004
  -4687369.36248  -3629326.17247  23484594.0994   23484593.6534   23484601.2144
       153.0004        155.0004
 -10036320.78048  -7797422.76247  22179676.6114   22179676.2854   22179685.0794
       176.0004        177.0004
 -18211122.51848 -14168929.24147  20511192.1334   20511191.6134   20511198.8744
       203.0004        202.0004
 -18624604.58348 -13951349.38047  20522689.9914   20522689.1124   20522696.9234
       208.0004        209.0004
 03 12 22 19  1 44.0000000  0  7G28G29G27G11G26G 8G 7
 -19186900.55848 -14931891.64647  20921753.0054   20921752.5604   20921758.3564
       201.0004        201.0004
 -13316941.12648 -10113830.35647  21867379.3334   21867379.0254   21867386.4914
       187.0004        188.0004
 -10252576.85948  -7968861.91347  22425973.8834   22425974.1944   22425982.9254
       163.0004        163.0004
  -4686769.15148  -3628858.48547  23484708.2374   23484707.6954   23484715.1784
       153.0004        155.0004
 -10036887.11548  -7797864.06247  22179568.8064   22179568.8134   22179577.1854
       176.0004        177.0004
 -18209716.80648 -14167833.88447  20511459.6444   20511459.1704   20511466.4174
       203.0004        202.0004
 -18625708.09948 -13952209.26347  20522480.0024   20522479.1164   20522486.8914
       208.0004        209.0004
 03 12 22 19  1 45.0000000  0  7G28G29G27G11G26G 8G 7
 -19186499.14248 -14931578.85247  20921829.3854   20921828.7614   20921834.8784
       201.0004        201.0004
 -13316849.67348 -10113759.09547  21867396.7854   21867396.6244   21867403.8324
       187.0004        187.0004
 -10249902.50548  -7966778.00647  22426482.7954   22426483.0394   22426492.1914
       163.0004        163.0004
  -4686168.58148  -3628390.51647  23484822.4904   23484822.1474   23484830.3784
       153.0004        155.0004
 -10037452.99648  -7798305.01047  22179461.1124   22179460.7854   22179469.5254
       176.0004        177.0004
 -18208310.81148 -14166738.30347  20511727.2044   20511726.2194   20511733.9614
       203.0004        202.0004
 -18626811.30848 -13953068.90547  20522270.0604   20522269.0684   20522276.8914
       208.0004        209.0004
 03 12 22 19  1 46.0000000  0  7G28G29G27G11G26G 8G 7
 -19186097.41148 -14931265.81647  20921905.8344   20921904.9464   20921911.4764
       201.0004        201.0004
 -13316757.44848 -10113687.23247  21867414.3634   21867413.9024   21867421.3794
       186.0004        187.0004
 -10247227.66948  -7964693.72047  22426991.6814   22426992.3194   22427001.2304
       162.0004        163.0004
  -4685567.29848  -3627921.98447  23484936.8464   23484936.2524   23484944.5944
       153.0004        155.0004
 -10038018.10048  -7798745.35547  22179353.5574   22179353.5134   22179362.8584
       176.0004        177.0004
 -18206904.18848 -14165642.23647  20511994.8684   20511994.0694   20512001.4324
       203.0004        203.0004
 -18627913.86048 -13953928.03547  20522060.2404   20522059.3494   20522067.2254
       208.0004        209.0004
 03 12 22 19  1 47.0000000  0  7G28G29G27G11G26G 8G 7
 -19185695.58448 -14930952.70647  20921982.3004   20921981.3794   20921988.0564
       201.0004        201.0004
 -13316664.67848 -10113614.94647  21867432.0224   21867432.0784   21867439.1684
       186.0004        187.0004
 -10244552.54848  -7962609.21447  22427500.7064   22427500.6334   22427509.5594
       162.0004        163.0004
  -4684965.53848  -3627453.07947  23485051.3024   23485050.5574   23485059.6494
       153.0004        155.0004
 -10038582.61748  -7799185.23547  22179246.1274   22179246.2424   22179254.5254
       176.0004        177.0004
 -18205497.15048 -14164545.84747  20512262.6424   20512261.8364   20512269.3794
       203.0004        203.0004
 -18629015.99048 -13954786.83847  20521850.5014   20521849.5504   20521857.6014
       208.0004        209.0004
 03 12 22 19  1 48.0000000  0  7G28G29G27G11G26G 8G 7
 -19185293.50748 -14930639.39747  20922058.7864   20922058.1894   20922064.2354
       201.0004        201.0004
 -13316571.22748 -10113542.12847  21867449.8514   21867449.6094   21867456.7454
       186.0004        187.0004
 -10241877.01248  -7960524.38147  22428009.8174   22428009.7074   22428018.4674
       162.0004        163.0004
  -4684363.15248  -3626983.69047  23485165.9054   23485165.1754   23485174.3804
       153.0004        156.0004
 -10039146.44748  -7799624.58847  22179138.8824   22179138.3964   22179147.1764
       176.0004        177.0004
 -18204089.55948 -14163449.02347  20512530.5454   20512529.6004   20512537.0864
       203.0004        202.0004
 -18630117.54248 -13955645.19047  20521640.8584   20521640.1304   20521647.9864
       208.0004        209.0004
 03 12 22 19  1 49.0000000  0  7G28G29G27G11G26G 8G 7
 -19184891.17448 -14930325.89347  20922135.3244   20922134.5634   20922140.7694
       201.0004        201.0004
 -13316477.06448 -10113468.75647  21867467.8074   21867467.8074   21867474.5864
       186.0004        187.0004
 -10239201.05148  -7958439.22047  22428519.0194   22428518.0804   22428527.7594
       162.0004        164.0004
  -4683760.10848  -3626513.78847  23485280.6274   23485279.9704   23485289.2704
       153.0004        156.0004
 -10039709.55348  -7800063.37247  22179031.6874   22179031.5964   22179040.0454
       176.0004        177.0004
 -18202681.38348 -14162351.74347  20512798.5404   20512797.6204   20512804.9574
       203.0004        203.0004
 -18631218.49548 -13956503.07547  20521431.3564   20521430.6774   20521438.3054
       208.0004        209.0004
 03 12 22 19  1 50.0000000  0  7G28G29G27G11G26G 8G 7
 -19184488.87148 -14930012.40947  20922211.8714   20922211.1864   20922217.2144
       201.0004        201.0004
 -13316382.46048 -10113395.03947  21867485.8304   21867485.5634   21867492.9364
       186.0004        187.0004
 -10236524.89548  -7956353.91147  22429028.2154   22429027.7824   22429036.7614
       162.0004        163.0004
  -4683156.70548  -3626043.60347  23485395.3984   23485395.2054   23485403.3764
       153.0004        156.0004
 -10040272.21948  -7800501.81047  22178924.5994   22178924.3354   22178933.0934
       176.0004        177.0004
 -18201272.91148 -14161254.23347  20513066.6064   20513065.7094   20513073.2204
       202.0004        202.0004
 -18632319.16048 -13957360.73847  20521221.8934   20521221.0564   20521228.6684
       208.0004        209.0004
 03 12 22 19  1 51.0000000  0  7G28G29G27G11G26G 8G 7
 -19184086.33848 -14929698.75047  20922288.4434   20922287.8194   20922294.0554
       201.0004        201.0004
 -13316287.20348 -10113320.81547  21867503.9874   21867503.6874   21867510.7594
       186.0004        187.0004
 -10233848.34048  -7954268.29147  22429537.5114   22429536.8264   22429545.8314
       162.0004        164.0004
  -4682552.69148  -3625572.94147  23485510.3044   23485509.8604   23485519.3364
       153.0004        156.0004
 -10040834.19748  -7800939.71547  22178817.6134   22178817.3974   22178825.8484
       176.0004        178.0004
 -18199863.91248 -14160156.31547  20513334.7214   20513333.7894   20513341.5574
       202.0004        202.0004
 -18633419.26548 -13958217.96247  20521012.5384   20521011.8464   20521019.6124
       208.0004        209.0004
 03 12 22 19  1 52.0000000  0  7G28G29G27G11G26G 8G 7
 -19183683.60748 -14929384.93547  20922365.0724   20922364.4694   20922370.7064
       201.0004        201.0004
 -13316191.27448 -10113246.07047  21867522.2484   21867521.9474   21867529.0844
       186.0004        188.0004
 -10231171.41148  -7952182.37347  22430046.8924   22430046.0624   22430055.3964
       162.0004        164.0004
  -4681948.09448  -3625101.82647  23485625.2844   23485625.3954   23485634.4284
       153.0004        155.0004
 -10041395.48048  -7801377.07847  22178710.7734   22178710.9764   22178719.4604
       176.0004        178.0004
 -18198454.38148 -14159057.98247  20513602.9374   20513601.9394   20513609.4574
       202.0004        202.0004
 -18634518.83548 -13959074.76847  20520803.2954   20520802.7694   20520810.3814
       208.0004        209.0004
 03 12 22 19  1 53.0000000  0  7G28G29G27G11G26G 8G 7
 -19183280.64948 -14929070.94247  20922441.7054   20922440.9724   20922447.1584
       201.0004        202.0004
 -13316094.68648 -10113170.80947  21867540.6254   21867540.6184   21867547.6504
       186.0004        187.0004
 -10228494.07148  -7950096.13947  22430556.2714   22430555.7614   22430564.9864
       162.0004        164.0004
  -4681342.88848  -3624630.24247  23485740.4024   23485739.4124   23485750.0754
       153.0004        156.0004
 -10041956.10748  -7801813.92947  22178604.0984   22178604.4044   22178612.8354
       176.0004        177.0004
 -18197044.32548 -14157959.24147  20513871.2534   20513870.3144   20513877.8124
       202.0004        203.0004
 -18635617.84648 -13959931.13947  20520594.1804   20520593.5384   20520601.0894
       208.0004        209.0004
 03 12 22 19  1 54.0000000  0  7G28G29G27G11G26G 8G 7
 -19182877.49748 -14928756.79847  20922518.4204   20922517.7804   20922523.9494
       201.0004        201.0004
 -13315997.44248 -10113095.03147  21867559.0834   21867559.0014   21867565.8444
       186.0004        187.0004
 -10225816.35348  -7948009.61147  22431065.7954   22431065.5014   22431075.7544
       162.0004        165.0004
  -4680737.09648  -3624158.19847  23485855.6574   23485854.0414   23485865.2564
       153.0004        156.0004
 -10042516.07648  -7802250.26847  22178497.5354   22178497.7854   22178506.0344
       176.0004        177.0004
 -18195633.75848 -14156860.09947  20514139.6674   20514138.6334   20514146.1404
       202.0004        203.0004
 -18636716.33248 -13960787.10347  20520385.1544   20520384.3454   20520392.0964
       208.0004        209.0004
 03 12 22 19  1 55.0000000  0  7G28G29G27G11G26G 8G 7
 -19182474.11448 -14928442.47747  20922595.1924   20922594.7084   20922600.6954
       201.0004        201.0004
 -13315899.52148 -10113018.73247  21867577.7044   21867576.9124   21867585.1504
       186.0004        187.0004
 -10223138.23048  -7945922.77047  22431575.4754   22431575.0214   22431584.8374
       162.0004        164.0004
  -4680130.68748  -3623685.67247  23485971.0484   23485970.1654   23485980.7024
       153.0004        155.0004
 -10043075.31948  -7802686.04547  22178391.0954   22178391.5124   22178399.8714
       176.0004        177.0004
 -18194222.63548 -14155760.52647  20514408.2084   20514407.2844   20514414.8984
       202.0004        203.0004
 -18637814.24048 -13961642.61747  20520176.2524   20520175.4344   20520183.1754
       208.0004        209.0004
 03 12 22 19  1 56.0000000  0  7G28G29G27G11G26G 8G 7
 -19182070.74348 -14928128.16047  20922671.9844   20922671.4884   20922677.6474
       201.0004        201.0004
 -13315801.18348 -10112942.10547  21867596.3924   21867596.0434   21867603.4234
       186.0004        186.0004
 -10220459.95748  -7943835.80447  22432085.2624   22432085.0134   22432094.6454
       162.0004        164.0004
  -4679523.90248  -3623212.85747  23486086.4694   23486085.4014   23486095.2144
       153.0004        155.0004
 -10043634.12748  -7803121.48547  22178284.7594   22178284.5184   22178293.4064
       176.0004        177.0004
 -18192811.20948 -14154660.71447  20514676.8284   20514675.8884   20514683.3554
       202.0004        202.0004
 -18638911.83348 -13962497.88347  20519967.4084   20519966.5204   20519974.0804
       208.0004        209.0004
 03 12 22 19  1 57.0000000  0  7G28G29G27G11G26G 8G 7
 -19181667.14448 -14927813.66647  20922748.8094   20922748.1444   20922754.5994
       201.0004        201.0004
 -13315702.16948 -10112864.95147  21867615.2274   21867615.0624   21867622.3624
       186.0004        187.0004
 -10217781.26548  -7941748.50547  22432595.1334   22432594.5864   22432603.9724
       162.0004        164.0004
  -4678916.50148  -3622739.56747  23486202.0184   23486201.1014   23486211.0474
       153.0004        155.0004
 -10044192.23848  -7803556.37547  22178178.5824   22178178.4324   22178187.1334
       176.0004        178.0004
 -18191399.23948 -14153560.47847  20514945.5354   20514944.5504   20514951.9454
       202.0004        202.0004
 -18640008.87248 -13963352.71547  20519758.6584   20519757.9344   20519765.6144
       208.0004        209.0004
 03 12 22 19  1 58.0000000  0  7G28G29G27G11G26G 8G 7
 -19181263.36648 -14927499.03347  20922825.6664   20922825.1094   20922831.1564
       201.0004        201.0004
 -13315602.52748 -10112787.30747  21867634.2604   21867634.1174   21867641.1264
       186.0004        187.0004
 -10215102.20748  -7939660.93247  22433104.9534   22433103.9564   22433113.8284
       162.0004        164.0004
  -4678308.53148  -3622265.82447  23486317.6564   23486317.0054   23486326.0344
       153.0004        155.0004
 -10044749.68448  -7803990.74847  22178072.5174   22178072.2544   22178081.2574
       176.0004        177.0004
 -18189986.77948 -14152459.86247  20515214.3344   20515213.1724   20515220.9524
       202.0004        202.0004
 -18641105.40348 -13964207.15547  20519549.9914   20519549.1134   20519556.9454
       208.0004        209.0004
 03 12 22 19  1 59.0000000  0  7G28G29G27G11G26G 8G 7
 -19180859.48648 -14927184.32147  20922902.5204   20922902.0144   20922908.1474
       201.0004        201.0004
 -13315502.33348 -10112709.23747  21867653.3694   21867653.0704   21867660.2084
       186.0004        187.0004
 -10212422.89348  -7937573.15747  22433614.8264   22433614.4414   22433624.2484
       162.0004        165.0004
  -4677700.05948  -3621791.69847  23486433.4004   23486432.2034   23486441.8184
       153.0004        155.0004
 -10045306.57448  -7804424.68447  22177966.5024   22177966.3654   22177975.0214
       176.0004        176.0004
 -18188573.89748 -14151358.91647  20515483.1954   20515482.1344   20515489.8184
       202.0004        202.0004
 -18642201.50648 -13965061.26247  20519341.4134   20519340.5584   20519348.4534
       208.0004        209.0004
 03 12 22 19  2  0.0000000  0  7G28G29G27G11G26G 8G 7
 -19180455.17248 -14926869.27147  20922979.4504   20922978.9814   20922985.2904
       201.0004        201.0004
 -13315401.25948 -10112630.48147  21867672.6424   21867672.3104   21867679.2794
       186.0004        187.0004
 -10209742.96048  -7935484.90847  22434124.7704   22434124.3604   22434134.2204
       162.0004        164.0004
  -4677090.78848  -3621316.94647  23486549.3204   23486548.1264   23486557.8784
       153.0004        155.0004
 -10045862.56848  -7804857.93147  22177860.7124   22177860.8644   22177869.4824
       176.0004        178.0004
 -18187160.26448 -14150257.38747  20515752.1664   20515751.1544   20515758.6274
       202.0004        202.0004
 -18643296.83448 -13965914.76547  20519132.9894   20519132.0924   20519139.9104
       208.0004        209.0004
 03 12 22 19  2  1.0000000  0  7G28G29G27G11G26G 8G 7
 -19180051.05848 -14926554.38047  20923056.3394   20923055.8324   20923062.0954
       201.0004        202.0004
 -13315299.93448 -10112551.52647  21867691.9414   21867691.2374   21867698.4524
       186.0004        187.0004
 -10207063.04948  -7933396.67047  22434634.7244   22434633.7694   22434643.6744
       162.0004        164.0004
  -4676481.31248  -3620842.02747  23486665.2704   23486663.6484   23486673.1034
       152.0004        155.0004
 -10046418.31048  -7805290.97447  22177754.9584   22177755.1484   22177763.7954
       176.0004        177.0004
 -18185746.50548 -14149155.75747  20516021.1514   20516020.2544   20516027.7204
       202.0004        202.0004
 -18644392.01748 -13966768.15347  20518924.5744   20518923.6784   20518931.4864
       208.0004        209.0004
 03 12 22 19  2  2.0000000  0  7G28G29G27G11G26G 8G 7
 -19179646.46448 -14926239.11247  20923133.3504   20923132.5654   20923138.6884
       201.0004        201.0004
 -13315197.69248 -10112471.86247  21867711.3724   21867710.8494   21867718.1244
       186.0004        187.0004
 -10204382.47248  -7931307.91347  22435144.7304   22435144.0054   22435153.5854
       162.0004        163.0004
  -4675870.97048  -3620366.43447  23486781.3254   23486780.0824   23486789.4084
       152.0004        154.0004
 -10046973.08648  -7805723.27047  22177649.4164   22177648.6524   22177657.9594
       176.0004        177.0004
 -18184331.97048 -14148053.52547  20516290.3264   20516289.4794   20516297.0944
       202.0004        202.0004
 -18645486.39948 -13967620.92147  20518716.3234   20518715.5074   20518723.2874
       208.0004        209.0004
 03 12 22 19  2  3.0000000  0  7G28G29G27G11G26G 8G 7
 -19179241.69248 -14925923.70747  20923210.4114   20923209.6674   20923216.1294
       201.0004        201.0004
 -13315094.82748 -10112391.71147  21867730.9454   21867730.6074   21867737.8684
       186.0004        187.0004
 -10201701.53048  -7929218.87447  22435654.8444   22435654.2474   22435664.0734
       162.0004        163.0004
  -4675260.07748  -3619890.41447  23486897.5524   23486896.9564   23486905.3964
       152.0004        155.0004
 -10047527.21448  -7806155.05547  22177543.9664   22177543.1754   22177552.3904
       176.0004        177.0004
 -18182916.93948 -14146950.90647  20516559.5904   20516558.6024   20516566.2514
       202.0004        202.0004
 -18646580.27148 -13968473.29047  20518508.1634   20518507.1424   20518514.9734
       208.0004        209.0004
 03 12 22 19  2  4.0000000  0  7G28G29G27G11G26G 8G 7
 -19178836.83048 -14925608.23247  20923287.4664   20923286.9254   20923293.3224
       201.0004        201.0004
 -13314991.44348 -10112311.14947  21867750.5904   21867750.3444   21867757.3044
       186.0004        187.0004
 -10199020.32948  -7927129.62547  22436165.2034   22436164.3174   22436174.7384
       162.0004        163.0004
  -4674648.71448  -3619414.03047  23487013.8874   23487013.8794   23487022.3464
       152.0004        154.0004
 -10048080.82048  -7806586.43647  22177438.6744   22177438.4334   22177446.8234
       176.0004        177.0004
 -18181501.52248 -14145847.98647  20516828.9264   20516827.9984   20516835.5494
       202.0004        202.0004
 -18647673.72448 -13969325.33047  20518300.1074   20518299.2444   20518306.8694
       208.0004        209.0004
 03 12 22 19  2  5.0000000  0  7G28G29G27G11G26G 8G 7
 -19178431.67748 -14925292.53047  20923364.5674   20923363.8684   20923369.8264
       201.0004        201.0004
 -13314887.29548 -10112230.00047  21867770.3744   21867769.7634   21867777.2974
       186.0004        186.0004
 -10196338.66448  -7925040.02047  22436675.6654   22436674.2404   22436684.9414
       162.0004        163.0004
  -4674036.64148  -3618937.09247  23487130.4514   23487130.3514   23487138.8434
       152.0004        154.0004
 -10048633.63748  -7807017.20747  22177333.4674   22177333.4244   22177341.9614
       176.0004        177.0004
 -18180085.46148 -14144744.56547  20517098.4014   20517097.4234   20517105.0164
       202.0004        202.0004
 -18648766.53648 -13970176.87247  20518092.1724   20518091.5334   20518099.0494
       208.0004        209.0004
 03 12 22 19  2  6.0000000  0  7G28G29G27G11G26G 8G 7
 -19178026.48748 -14924976.79547  20923441.6414   20923440.8614   20923447.1884
       201.0004        201.0004
 -13314782.67148 -10112148.48247  21867790.2814   21867789.7724   21867797.3334
       186.0004        186.0004
 -10193656.78048  -7922950.24147  22437186.0214   22437184.5294   22437195.3284
       162.0004        163.0004
  -4673424.16548  -3618459.84047  23487246.9874   23487247.3174   23487255.1224
       152.0004        154.0004
 -10049185.95548  -7807447.58147  22177228.4084   22177228.4194   22177237.7834
       176.0004        177.0004
 -18178669.08048 -14143640.88747  20517367.9464   20517367.0894   20517374.5094
       202.0004        202.0004
 -18649858.99748 -13971028.13847  20517884.2674   20517883.5704   20517890.9874
       208.0004        209.0004
 03 12 22 19  2  7.0000000  0  7G28G29G27G11G26G 8G 7
 -19177621.12448 -14924660.92847  20923518.7884   20923518.1164   20923524.4274
       201.0004        201.0004
 -13314677.43648 -10112066.47247  21867810.2864   21867809.9944   21867816.7154
       186.0004        186.0004
 -10190974.54548  -7920860.19447  22437696.2464   22437694.7574   22437705.3324
       162.0004        164.0004
  -4672811.13448  -3617982.15547  23487363.7104   23487363.6654   23487371.9734
       152.0004        154.0004
 -10049737.64048  -7807877.46247  22177123.4224   22177123.3144   22177132.1444
       176.0004        176.0004
 -18177252.19648 -14142536.82347  20517637.5464   20517636.7044   20517644.1174
       202.0004        202.0004
 -18650950.94848 -13971879.00747  20517676.4754   20517675.7614   20517683.4644
       208.0004        209.0004
 03 12 22 19  2  8.0000000  0  7G28G29G27G11G26G 8G 7
 -19177215.52748 -14924344.87747  20923595.9594   20923595.2134   20923601.3374
       201.0004        201.0004
 -13314571.51348 -10111983.93747  21867830.4154   21867830.1454   21867837.5434
       186.0004        187.0004
 -10188291.88048  -7918769.80747  22438206.5004   22438205.0504   22438215.8744
       162.0004        164.0004
  -4672197.47648  -3617503.98247  23487480.5744   23487479.8334   23487488.9464
       152.0004        155.0004
 -10050288.60748  -7808306.79047  22177018.5794   22177019.2614   22177026.8914
       176.0004        177.0004
 -18175834.75448 -14141432.32647  20517907.2654   20517906.3144   20517913.9054
       202.0004        202.0004
 -18652042.33548 -13972729.43947  20517468.7934   20517467.9664   20517475.6134
       208.0004        209.0004
 03 12 22 19  2  9.0000000  0  7G28G29G27G11G26G 8G 7
 -19176809.78948 -14924028.72047  20923673.1804   20923672.6644   20923678.5634
       201.0004        201.0004
 -13314465.00648 -10111900.94747  21867850.6644   21867850.0194   21867857.8024
       186.0004        186.0004
 -10185608.90848  -7916679.19147  22438716.9524   22438716.5104   22438727.3624
       162.0004        164.0004
  -4671583.29548  -3617025.40747  23487597.4354   23487596.3804   23487606.9634
       152.0004        154.0004
 -10050838.99148  -7808735.66647  22176913.8014   22176913.7714   22176922.6674
       176.0004        177.0004
 -18174416.86748 -14140327.48347  20518177.0814   20518176.2284   20518183.5104
       202.0004        202.0004
 -18653133.25248 -13973579.50347  20517261.2044   20517260.3684   20517268.1204
       208.0004        209.0004
 03 12 22 19  2 10.0000000  0  7G28G29G27G11G26G 8G 7
 -19176403.89448 -14923712.43947  20923750.4354   20923749.6554   20923755.9934
       201.0004        201.0004
 -13314357.87448 -10111817.46947  21867870.9954   21867870.4784   21867878.0904
       186.0004        186.0004
 -10182925.61748  -7914588.32647  22439227.4904   22439227.2554   22439237.5944
       162.0004        164.0004
  -4670968.56548  -3616546.39747  23487714.3674   23487713.7744   23487724.6074
       152.0004        155.0004
 -10051388.72748  -7809164.03347  22176809.1354   22176808.6654   22176817.9134
       176.0004        177.0004
 -18172998.51348 -14139222.27247  20518446.9534   20518445.8864   20518453.4894
       202.0004        202.0004
 -18654223.69248 -13974429.19647  20517053.7124   20517052.7454   20517060.5194
       208.0004        209.0004
 03 12 22 19  2 11.0000000  0  7G28G29G27G11G26G 8G 7
 -19175997.80248 -14923396.00347  20923827.7114   20923826.9254   20923833.2714
       201.0004        201.0004
 -13314250.08148 -10111733.47747  21867891.4614   21867890.6614   21867898.0784
       186.0004        186.0004
 -10180241.94648  -7912497.16147  22439738.1814   22439737.3644   22439747.2704
       162.0004        164.0004
  -4670353.24948  -3616066.93547  23487831.4734   23487831.1984   23487841.7844
       152.0004        154.0004
 -10051937.81748  -7809591.89547  22176704.6344   22176704.3924   22176714.0854
       176.0004        177.0004
 -18171579.63548 -14138116.65547  20518716.9594   20518716.0354   20518723.6494
       202.0004        202.0004
 -18655313.60148 -13975278.47647  20516846.3244   20516845.1874   20516853.1634
       208.0004        209.0004
 03 12 22 19  2 12.0000000  0  7G28G29G27G11G26G 8G 7
 -19175591.40548 -14923079.33247  20923905.0684   20923904.4504   20923910.5694
       201.0004        201.0004
 -13314141.57048 -10111648.93147  21867912.0734   21867911.3314   21867919.2174
       186.0004        186.0004
 -10177557.81148  -7910405.63047  22440249.0054   22440247.6014   22440258.6584
       162.0004        163.0004
  -4669737.26448  -3615586.95247  23487948.6364   23487948.1584   23487958.8714
       152.0004        154.0004
 -10052486.16648  -7810019.18347  22176600.3074   22176600.3504   22176609.5674
       176.0004        177.0004
 -18170160.15948 -14137010.57347  20518987.0824   20518986.2784   20518993.8594
       202.0004        202.0004
 -18656402.87348 -13976127.26047  20516639.0374   20516637.9374   20516645.8944
       208.0004        209.0004
 03 12 22 19  2 13.0000000  0  7G28G29G27G11G26G 8G 7
 -19175184.98648 -14922762.64447  20923982.4064   20923981.6934   20923987.7724
       201.0004        201.0004
 -13314032.57448 -10111563.99747  21867932.8104   21867932.3584   21867939.6144
       186.0004        187.0004
 -10174873.43248  -7908313.90447  22440759.7524   22440759.1384   22440768.9514
       162.0004        164.0004
  -4669120.83948  -3615106.61447  23488065.8544   23488064.9204   23488075.9924
       152.0004        155.0004
 -10053033.98048  -7810446.05047  22176496.0384   22176496.3244   22176505.1704
       176.0004        177.0004
 -18168740.31248 -14135904.20247  20519257.2624   20519256.2544   20519264.0384
       202.0004        202.0004
 -18657491.78048 -13976975.75947  20516431.8034   20516430.8234   20516438.6814
       208.0004        209.0004
 03 12 22 19  2 14.0000000  0  7G28G29G27G11G26G 8G 7
 -19174778.32348 -14922445.76247  20924059.8064   20924058.9324   20924065.1644
       201.0004        201.0004
 -13313922.88648 -10111478.52247  21867953.6804   21867953.1134   21867960.6324
       186.0004        186.0004
 -10172188.63648  -7906221.85247  22441270.5864   22441269.2424   22441280.2614
       162.0004        163.0004
  -4668503.78348  -3614625.79447  23488183.1524   23488182.0694   23488192.3964
       152.0004        155.0004
 -10053581.09148  -7810872.36847  22176391.8814   22176391.3734   22176399.5314
       176.0004        177.0004
 -18167319.91648 -14134797.40247  20519527.5394   20519526.6754   20519534.3514
       202.0004        202.0004
 -18658580.12348 -13977823.82047  20516224.6894   20516223.8314   20516231.5114
       208.0004        209.0004
 03 12 22 19  2 15.0000000  0  7G28G29G27G11G26G 8G 7
 -19174371.54848 -14922128.79647  20924137.2064   20924136.5464   20924142.6494
       201.0004        201.0004
 -13313812.64148 -10111392.62347  21867974.6584   21867974.6374   21867981.8394
       186.0004        186.0004
 -10169503.54648  -7904129.57947  22441781.5464   22441781.4714   22441791.6264
       162.0004        163.0004
  -4667886.22148  -3614144.57847  23488300.5424   23488300.2674   23488309.5374
       152.0004        155.0004
 -10054127.61348  -7811298.22947  22176287.8784   22176287.6164   22176295.6884
       176.0004        177.0004
 -18165899.09348 -14133690.26747  20519797.9104   20519797.0694   20519804.6854
       202.0004        202.0004
 -18659668.01948 -13978671.52947  20516017.6614   20516016.8034   20516024.5644
       208.0004        209.0004
 03 12 22 19  2 16.0000000  0  7G28G29G27G11G26G 8G 7
 -19173964.58648 -14921811.68247  20924214.6354   20924213.8594   20924220.2624
       201.0004        201.0004
 -13313701.75948 -10111306.21947  21867995.7674   21867995.6614   21868002.4804
       186.0004        186.0004
 -10166818.12248  -7902037.04547  22442292.5814   22442292.7264   22442302.6454
       162.0004        163.0004
  -4667268.11348  -3613662.93947  23488418.1634   23488418.4634   23488427.3994
       152.0004        155.0004
 -10054673.49048  -7811723.58947  22176184.0254   22176184.1274   22176192.9414
       176.0004        177.0004
 -18164477.77248 -14132582.74747  20520068.4064   20520067.5784   20520075.0264
       202.0004        202.0004
 -18660755.37848 -13979518.82147  20515810.7504   20515809.8074   20515817.6664
       208.0004        209.0004
 03 12 22 19  2 17.0000000  0  7G28G29G27G11G26G 8G 7
 -19173557.38948 -14921494.38647  20924292.1204   20924291.5474   20924297.4434
       201.0004        201.0004
 -13313590.19748 -10111219.28747  21868017.0164   21868016.9804   21868024.0504
       186.0004        186.0004
 -10164132.25948  -7899944.17047  22442803.7574   22442803.1974   22442813.7224
       162.0004        164.0004
  -4666649.35548  -3613180.79247  23488535.9444   23488536.4624   23488544.8914
       152.0004        154.0004
 -10055218.66648  -7812148.40147  22176080.3214   22176080.5334   22176089.3454
       176.0004        177.0004
 -18163055.88848 -14131474.78747  20520338.9824   20520338.1584   20520345.5744
       202.0004        202.0004
 -18661842.17448 -13980365.67547  20515603.9494   20515603.0264   20515610.7554
       208.0004        209.0004
 03 12 22 19  2 18.0000000  0  7G28G29G27G11G26G 8G 7
 -19173150.00548 -14921176.94547  20924369.6114   20924369.0374   20924375.3584
       201.0004        201.0004
 -13313478.00648 -10111131.87047  21868038.3774   21868038.0724   21868045.1924
       186.0004        186.0004
 -10161446.03948  -7897851.02047  22443314.9434   22443314.1654   22443325.3274
       162.0004        165.0004
  -4666030.03348  -3612698.21147  23488653.8814   23488654.3714   23488662.4214
       152.0004        155.0004
 -10055763.20148  -7812572.70847  22175976.7844   22175976.6114   22175985.1894
       176.0004        177.0004
 -18161633.50548 -14130366.44047  20520609.6764   20520608.7784   20520616.2684
       202.0004        202.0004
 -18662928.45548 -13981212.12747  20515397.2884   20515396.3494   20515404.2084
       208.0004        209.0004
 03 12 22 19  2 19.0000000  0  7G28G29G27G11G26G 8G 7
 -19172742.51148 -14920859.41647  20924447.1604   20924446.5284   20924452.7444
       201.0004        201.0004
 -13313365.24748 -10111044.00447  21868059.8484   21868059.3944   21868066.8234
       186.0004        186.0004
 -10158759.51948  -7895757.62847  22443826.1534   22443825.6774   22443836.8514
       162.0004        165.0004
  -4665410.21148  -3612215.23347  23488771.9284   23488772.5334   23488779.8214
       152.0004        156.0004
 -10056307.14848  -7812996.56447  22175873.3214   22175872.6574   22175881.6954
       176.0004        177.0004
 -18160210.69048 -14129257.75347  20520880.4404   20520879.5334   20520886.9894
       202.0004        202.0004
 -18664014.28548 -13982058.23047  20515190.6674   20515189.7374   20515197.5974
       208.0004        209.0004
 03 12 22 19  2 20.0000000  0  7G28G29G27G11G26G 8G 7
 -19172334.80648 -14920541.72647  20924524.7314   20924523.9224   20924530.2624
       201.0004        201.0004
 -13313251.83248 -10110955.63147  21868081.4074   21868081.2394   21868088.4814
       186.0004        186.0004
 -10156072.61548  -7893663.94547  22444337.4834   22444336.7524   22444347.8984
       162.0004        164.0004
  -4664789.79048  -3611731.79547  23488890.0284   23488890.3644   23488898.5554
       152.0004        155.0004
 -10056850.43748  -7813419.90947  22175769.9624   22175769.3394   22175778.3194
       176.0004        177.0004
 -18158787.37048 -14128148.67247  20521151.3374   20521150.4244   20521157.9184
       202.0004        202.0004
 -18665099.58148 -13982903.91347  20514984.1374   20514983.0194   20514991.0864
       208.0004        209.0004
 03 12 22 19  2 21.0000000  0  7G28G29G27G11G26G 8G 7
 -19171926.86748 -14920223.85247  20924602.3644   20924601.6974   20924608.0394
       201.0004        201.0004
 -13313137.75348 -10110866.74047  21868103.1084   21868102.9144   21868110.1504
       186.0004        186.0004
 -10153385.30648  -7891569.94347  22444848.8494   22444849.0434   22444859.0244
       162.0004        164.0004
  -4664168.76348  -3611247.88147  23489008.3034   23489008.9634   23489017.2604
       152.0004        155.0004
 -10057393.01848  -7813842.70547  22175666.7514   22175666.2704   22175674.7684
       176.0004        177.0004
 -18157363.50748 -14127039.17147  20521422.3004   20521421.4274   20521428.7944
       202.0004        202.0004
 -18666184.31748 -13983749.16247  20514777.7284   20514776.6854   20514784.5994
       208.0004        209.0004
 03 12 22 19  2 22.0000000  0  7G28G29G27G11G26G 8G 7
 -19171518.83648 -14919905.90847  20924680.0524   20924679.3944   20924685.4844
       201.0004        201.0004
 -13313023.12248 -10110777.42047  21868124.9284   21868124.7404   21868131.5564
       186.0004        186.0004
 -10150697.70048  -7889475.70547  22445360.2024   22445359.8154   22445370.9324
       162.0004        164.0004
  -4663547.23948  -3610763.57447  23489126.6734   23489126.8884   23489135.4904
       152.0004        155.0004
 -10057935.03748  -7814265.05547  22175563.5414   22175563.2344   22175571.6264
       176.0004        177.0004
 -18155939.23048 -14125929.35047  20521693.3634   20521692.3204   20521699.7354
       202.0004        202.0004
 -18667268.62548 -13984594.07547  20514571.3734   20514570.3984   20514578.0724
       208.0004        209.0004
 03 12 22 19  2 23.0000000  0  7G28G29G27G11G26G 8G 7
 -19171110.60848 -14919587.80847  20924757.7434   20924757.2414   20924763.2114
       201.0004        201.0004
 -13312907.81948 -10110687.57547  21868146.8854   21868146.4044   21868153.7294
       186.0004        186.0004
 -10148009.73948  -7887381.19047  22445871.6634   22445871.5054   22445882.4204
       162.0004        164.0004
  -4662925.14648  -3610278.82647  23489245.0994   23489244.8074   23489252.7714
       152.0004        154.0004
 -10058476.38948  -7814686.87947  22175460.4724   22175460.3474   22175469.6414
       176.0004        177.0004
 -18154514.43148 -14124819.11947  20521964.4984   20521963.5124   20521970.7194
       202.0004        202.0004
 -18668352.38948 -13985438.56847  20514365.1194   20514364.1824   20514372.1204
       208.0004        209.0004
 03 12 22 19  2 24.0000000  0  7G28G29G27G11G26G 8G 7
 -19170702.22248 -14919269.58447  20924835.4394   20924834.7694   20924840.8474
       201.0004        201.0004
 -13312791.94648 -10110597.28747  21868168.9364   21868168.3004   21868176.0264
       186.0004        186.0004
 -10145321.42448  -7885286.40447  22446383.2784   22446382.5634   22446394.2584
       162.0004        165.0004
  -4662302.49548  -3609793.64547  23489363.6014   23489362.9404   23489371.8304
       152.0004        155.0004
 -10059017.11848  -7815108.22547  22175357.5674   22175357.3914   22175366.8894
       176.0004        177.0004
 -18153089.16748 -14123708.52547  20522235.6944   20522234.5934   20522242.2144
       202.0004        202.0004
 -18669435.66348 -13986282.67747  20514158.9764   20514158.0674   20514165.7664
       208.0004        208.0004
 03 12 22 19  2 25.0000000  0  7G28G29G27G11G26G 8G 7
 -19170293.64948 -14918951.21747  20924913.1964   20924912.4294   20924918.5664
       201.0004        201.0004
 -13312675.42948 -10110506.49647  21868191.1204   21868190.5874   21868198.0974
       186.0004        186.0004
 -10142632.77648  -7883191.35647  22446895.0014   22446895.0624   22446905.7244
       162.0004        165.0004
  -4661679.27048  -3609308.01947  23489482.2824   23489481.7334   23489490.6874
       152.0004        154.0004
 -10059557.17948  -7815529.05747  22175254.8074   22175254.3134   22175263.5254
       176.0004        177.0004
 -18151663.39548 -14122597.53547  20522506.9864   20522506.0444   20522513.6484
       202.0004        202.0004
 -18670518.42448 -13987126.38747  20513952.9304   20513951.9124   20513959.7664
       208.0004        208.0004
 03 12 22 19  2 26.0000000  0  7G28G29G27G11G26G 8G 7
 -19169884.93248 -14918632.73747  20924990.9534   20924990.2854   20924996.3904
       201.0004        201.0004
 -13312558.32248 -10110415.24447  21868213.3784   21868213.0354   21868220.1584
       186.0004        186.0004
 -10139943.79748  -7881096.04947  22447406.7824   22447407.0154   22447417.0594
       162.0004        164.0004
  -4661055.52548  -3608821.97947  23489601.1004   23489600.5494   23489608.8764
       152.0004        154.0004
 -10060096.62548  -7815949.41547  22175152.1514   22175151.7984   22175161.1234
       176.0004        177.0004
 -18150237.15548 -14121486.18247  20522778.3804   20522777.6404   20522785.0074
       202.0004        202.0004
 -18671600.72148 -13987969.73747  20513746.9864   20513745.9474   20513753.8614
       208.0004        209.0004
 03 12 22 19  2 27.0000000  0  7G28G29G27G11G26G 8G 7
 -19169475.84648 -14918313.97047  20925068.7954   20925068.0604   20925074.2934
       201.0004        201.0004
 -13312440.40748 -10110323.36947  21868235.8234   21868235.6214   21868242.5734
       186.0004        186.0004
 -10137254.26748  -7879000.31447  22447918.5914   22447918.4504   22447929.0114
       162.0004        165.0004
  -4660431.01548  -3608335.35147  23489720.0464   23489719.9104   23489727.5184
       152.0004        154.0004
 -10060635.26748  -7816369.13347  22175049.6674   22175050.0764   22175058.4994
       176.0004        177.0004
 -18148810.23548 -14120374.29847  20523049.9134   20523049.1294   20523056.4224
       202.0004        202.0004
 -18672682.32148 -13988812.54147  20513541.1294   20513540.2534   20513547.9684
       208.0004        209.0004
 03 12 22 19  2 28.0000000  0  7G28G29G27G11G26G 8G 7
 -19169066.75348 -14917995.19447  20925146.6314   20925145.8564   20925152.1164
       201.0004        201.0004
 -13312322.03548 -10110231.13047  21868258.3494   21868257.9404   21868265.2034
       186.0004        186.0004
 -10134564.56748  -7876904.44747  22448430.3754   22448429.9664   22448440.4484
       162.0004        165.0004
  -4659806.11848  -3607848.41947  23489838.9914   23489839.1124   23489846.4974
       152.0004        154.0004
 -10061173.42848  -7816788.47747  22174947.2804   22174947.2364   22174955.6434
       176.0004        177.0004
 -18147383.00248 -14119262.17147  20523321.5064   20523320.7424   20523328.0754
       202.0004        202.0004
 -18673763.55948 -13989655.06347  20513335.3484   20513334.5464   20513342.2714
       208.0004        209.0004
 03 12 22 19  2 29.0000000  0  7G28G29G27G11G26G 8G 7
 -19168657.47648 -14917676.27947  20925224.5174   20925223.8694   20925230.0684
       201.0004        201.0004
 -13312203.03248 -10110138.40247  21868281.0174   21868280.8464   21868287.9914
       186.0004        186.0004
 -10131874.49348  -7874808.29047  22448942.2074   22448941.4344   22448953.0634
       162.0004        164.0004
  -4659180.65448  -3607361.04547  23489958.0174   23489958.0214   23489965.5574
       152.0004        154.0004
 -10061710.93648  -7817207.30847  22174845.0044   22174844.8144   22174853.4604
       176.0004        177.0004
 -18145955.27848 -14118149.66147  20523593.2264   20523592.2614   20523599.8934
       202.0004        202.0004
 -18674844.29448 -13990497.19547  20513129.6784   20513128.9434   20513136.4664
       208.0004        209.0004
 03 12 22 19  2 30.0000000  0  7G28G29G27G11G26G 8G 7
 -19168248.07148 -14917357.25947  20925302.4164   20925301.7474   20925308.0104
       201.0004        201.0004
 -13312083.45648 -10110045.22447  21868303.8164   21868303.1644   21868310.8384
       186.0004        186.0004
 -10129184.11548  -7872711.89147  22449454.0064   22449453.2814   22449465.1914
       162.0004        164.0004
  -4658554.64948  -3606873.24847  23490077.1184   23490077.1154   23490085.0504
       152.0004        154.0004
 -10062247.83648  -7817625.67647  22174742.8534   22174742.8934   22174751.4414
       176.0004        177.0004
 -18144527.09148 -14117036.78947  20523865.0354   20523864.1034   20523871.4324
       202.0004        202.0004
 -18675924.56148 -13991338.96147  20512924.1054   20512923.2264   20512930.8004
       208.0004        209.0004
 03 12 22 19  2 31.0000000  0  7G28G29G27G11G26G 8G 7
 -19167838.33248 -14917037.98047  20925380.3744   20925379.6004   20925385.9594
       201.0004        201.0004
 -13311963.10248 -10109951.44547  21868326.7864   21868326.0554   21868333.7024
       186.0004        186.0004
 -10126493.20148  -7870615.08647  22449965.9934   22449965.5084   22449977.4414
       162.0004        164.0004
  -4657927.94048  -3606384.89647  23490196.4144   23490195.8304   23490204.2454
       152.0004        154.0004
 -10062783.94148  -7818043.42247  22174640.8834   22174641.0864   22174649.3764
       176.0004        177.0004
 -18143098.25848 -14115923.41547  20524136.9664   20524135.8624   20524143.2594
       202.0004        202.0004
 -18677004.17048 -13992180.21647  20512718.6564   20512717.7274   20512725.4124
       208.0004        209.0004
 03 12 22 19  2 32.0000000  0  7G28G29G27G11G26G 8G 7
 -19167428.49548 -14916718.62947  20925458.3724   20925457.7604   20925463.8184
       201.0004        201.0004
 -13311842.18748 -10109857.22747  21868349.8034   21868349.0074   21868356.6834
       186.0004        187.0004
 -10123802.01948  -7868518.06947  22450478.1174   22450477.6674   22450489.0724
       162.0004        165.0004
  -4657300.73748  -3605896.16647  23490315.8314   23490315.3084   23490322.4764
       151.0004        153.0004
 -10063319.47048  -7818460.72047  22174539.0174   22174538.8364   22174547.5474
       176.0004        176.0004
 -18141669.00948 -14114809.71847  20524408.9664   20524407.8804   20524415.4964
       202.0004        202.0004
 -18678083.33748 -13993021.12547  20512513.3064   20512512.3224   20512520.1404
       208.0004        209.0004
 03 12 22 19  2 33.0000000  0  7G28G29G27G11G26G 8G 7
 -19167018.51748 -14916399.17147  20925536.3994   20925535.8114   20925542.0044
       201.0004        201.0004
 -13311720.69948 -10109762.56947  21868372.9364   21868372.8224   21868380.2624
       186.0004        186.0004
 -10121110.54148  -7866420.81947  22450990.3504   22450989.9984   22451001.1884
       162.0004        164.0004
  -4656673.00348  -3605407.03047  23490435.3144   23490434.7974   23490443.3244
       151.0004        153.0004
 -10063854.40848  -7818877.55447  22174437.2824   22174436.7014   22174445.9124
       176.0004        176.0004
 -18140239.30948 -14113695.66947  20524681.0614   20524680.2294   20524687.4054
       202.0004        202.0004
 -18679162.03348 -13993861.66647  20512308.0174   20512307.0724   20512314.9704
       208.0004        209.0004
 03 12 22 19  2 34.0000000  0  7G28G29G27G11G26G 8G 7
 -19166608.32448 -14916079.54047  20925614.4784   20925613.8834   20925620.1864
       201.0004        201.0004
 -13311598.53848 -10109667.37847  21868396.1664   21868395.5604   21868402.9274
       186.0004        186.0004
 -10118418.66648  -7864323.25147  22451502.5654   22451502.5824   22451513.0584
       162.0004        164.0004
  -4656044.66648  -3604917.42647  23490554.8464   23490553.6004   23490563.4364
       151.0004        154.0004
 -10064388.64348  -7819293.84047  22174335.6814   22174335.4864   22174344.5754
       176.0004        177.0004
 -18138809.07648 -14112581.20247  20524953.2524   20524952.3364   20524959.8384
       202.0004        202.0004
 -18680240.17348 -13994701.77647  20512102.8154   20512102.0594   20512109.7814
       208.0004        208.0004
 03 12 22 19  2 35.0000000  0  7G28G29G27G11G26G 8G 7
 -19166197.93348 -14915759.75447  20925692.5794   20925691.7604   20925698.1044
       201.0004        201.0004
 -13311475.75148 -10109571.69947  21868419.5524   21868419.4984   21868426.2764
       186.0004        186.0004
 -10115726.40948  -7862225.39147  22452014.7754   22452014.5904   22452025.4814
       162.0004        164.0004
  -4655415.75448  -3604427.36647  23490674.5424   23490673.1154   23490682.7324
       151.0004        154.0004
 -10064922.21648  -7819709.61347  22174234.2024   22174233.8524   22174241.2484
       176.0004        176.0004
 -18137378.33448 -14111466.34147  20525225.5204   20525224.7244   20525231.8134
       202.0004        202.0004
 -18681317.80648 -13995541.48847  20511897.7424   20511896.8214   20511904.6424
       208.0004        209.0004
 03 12 22 19  2 36.0000000  0  7G28G29G27G11G26G 8G 7
 -19165787.49348 -14915439.93047  20925770.6634   20925769.5214   20925776.1964
       201.0004        201.0004
 -13311352.45648 -10109475.62547  21868443.0454   21868442.6004   21868449.2874
       186.0004        186.0004
 -10113033.91648  -7860127.34847  22452527.0654   22452526.9534   22452537.2844
       162.0004        164.0004
  -4654786.38748  -3603936.95047  23490794.2804   23490793.1424   23490802.0204
       151.0004        155.0004
 -10065455.30148  -7820125.00647  22174132.7514   22174132.1014   22174141.0464
       176.0004        177.0004
 -18135947.23648 -14110351.20147  20525497.8494   20525496.9774   20525503.9384
       202.0004        202.0004
 -18682395.04448 -13996380.89347  20511692.7694   20511691.7514   20511699.6564
       208.0004        209.0004
 03 12 22 19  2 37.0000000  0  7G28G29G27G11G26G 8G 7
 -19165376.79648 -14915119.90547  20925848.7944   20925847.8264   20925854.3214
       201.0004        201.0004
 -13311228.46148 -10109379.00947  21868466.6624   21868466.2084   21868473.4104
       186.0004        186.0004
 -10110340.99548  -7858028.96747  22453039.4584   22453039.7854   22453049.6534
       162.0004        164.0004
  -4654156.39048  -3603446.04547  23490914.2244   23490912.1334   23490921.8344
       151.0004        154.0004
 -10065987.64048  -7820539.81047  22174031.4624   22174031.2044   22174039.1654
       176.0004        177.0004
 -18134515.55148 -14109235.60147  20525770.2654   20525769.3174   20525776.5564
       202.0004        202.0004
 -18683471.69248 -13997219.83847  20511487.9074   20511486.9074   20511494.9064
       208.0004        209.0004
 03 12 22 19  2 38.0000000  0  7G28G29G27G11G26G 8G 7
 -19164965.95348 -14914799.76947  20925926.9834   20925926.2294   20925932.5014
       201.0004        201.0004
 -13311103.87448 -10109281.92947  21868490.3714   21868490.0984   21868497.2364
       186.0004        186.0004
 -10107647.73548  -7855930.32147  22453551.8884   22453551.7224   22453562.2614
       162.0004        165.0004
  -4653525.85448  -3602954.72247  23491034.2284   23491032.4934   23491041.5894
       151.0004        153.0004
 -10066519.37748  -7820954.15447  22173930.2584   22173929.9834   22173938.4274
       176.0004        176.0004
 -18133083.41248 -14108119.65247  20526042.7784   20526041.6064   20526049.1384
       202.0004        202.0004
 -18684547.84948 -13998058.40147  20511283.1504   20511282.3334   20511290.0654
       208.0004        209.0004
 03 12 22 19  2 39.0000000  0  7G28G29G27G11G26G 8G 7
 -19164554.85948 -14914479.43947  20926005.2344   20926004.5474   20926010.6654
       201.0004        201.0004
 -13310978.57048 -10109184.29447  21868514.2314   21868513.9564   21868520.8494
       186.0004        185.0004
 -10104954.05648  -7853831.36147  22454064.4154   22454064.4714   22454075.1804
       162.0004        164.0004
  -4652894.68448  -3602462.89947  23491154.3694   23491152.6344   23491161.2684
       151.0004        154.0004
 -10067050.37448  -7821367.91847  22173829.2474   22173829.2614   22173837.7634
       176.0004        177.0004
 -18131650.70148 -14107003.25647  20526315.3904   20526314.5844   20526321.8744
       202.0004        202.0004
 -18685623.42948 -13998896.51747  20511078.5104   20511077.5664   20511085.2914
       208.0004        208.0004
 03 12 22 19  2 40.0000000  0  7G28G29G27G11G26G 8G 7
 -19164143.65148 -14914159.01847  20926083.4824   20926082.8214   20926088.8514
       201.0004        201.0004
 -13310852.70748 -10109086.21747  21868538.2034   21868537.6974   21868544.4094
       186.0004        186.0004
 -10102260.05048  -7851732.14947  22454577.1164   22454577.1644   22454588.4454
       162.0004        164.0004
  -4652262.99448  -3601970.67747  23491274.6164   23491273.0074   23491282.0634
       151.0004        154.0004
 -10067580.79248  -7821781.23747  22173728.3004   22173728.3194   22173736.6994
       176.0004        177.0004
 -18130217.55448 -14105886.52247  20526588.0984   20526587.2874   20526594.5564
       202.0004        202.0004
 -18686698.56048 -13999734.28247  20510873.9434   20510872.8924   20510880.6014
       208.0004        209.0004
 03 12 22 19  2 41.0000000  0  7G28G29G27G11G26G 8G 7
 -19163732.23248 -14913838.43047  20926161.7204   20926161.1774   20926167.1024
       201.0004        201.0004
 -13310726.18148 -10108987.62647  21868562.2664   21868561.2084   21868569.4214
       186.0004        186.0004
 -10099565.70548  -7849632.66147  22455089.9364   22455089.4904   22455100.9974
       162.0004        164.0004
  -4651630.71848  -3601477.99947  23491394.9074   23491393.9714   23491402.1914
       151.0004        154.0004
 -10068110.53248  -7822194.01747  22173627.4974   22173627.4284   22173635.4284
       176.0004        177.0004
 -18128783.88348 -14104769.37847  20526860.9394   20526859.8624   20526867.3614
       202.0004        202.0004
 -18687773.16148 -14000571.63547  20510669.4664   20510668.6274   20510676.1624
       208.0004        209.0004
 03 12 22 19  2 42.0000000  0  7G28G29G27G11G26G 8G 7
 -19163320.69448 -14913517.75347  20926240.0024   20926239.4044   20926245.4314
       201.0004        201.0004
 -13310599.08948 -10108888.59547  21868586.3664   21868585.5834   21868593.2354
       186.0004        186.0004
 -10096871.05548  -7847532.93647  22455602.7764   22455602.3984   22455613.0564
       162.0004        164.0004
  -4650997.93648  -3600984.92547  23491515.3274   23491514.6714   23491522.1194
       151.0004        154.0004
 -10068639.68848  -7822606.34547  22173526.7544   22173526.5164   22173535.0484
       176.0004        177.0004
 -18127349.76948 -14103651.88747  20527133.8384   20527132.6874   20527140.2724
       202.0004        202.0004
 -18688847.30748 -14001408.63047  20510465.0684   20510464.0284   20510471.8164
       208.0004        209.0004
 03 12 22 19  2 43.0000000  0  7G28G29G27G11G26G 8G 7
 -19162908.95448 -14913196.91847  20926318.3234   20926317.6344   20926324.0344
       201.0004        201.0004
 -13310471.35748 -10108789.06647  21868610.6444   21868610.1224   21868617.7014
       186.0004        186.0004
 -10094176.01648  -7845432.90647  22456115.5664   22456115.5024   22456126.1294
       162.0004        165.0004
  -4650364.55548  -3600491.38547  23491635.7834   23491635.1784   23491642.9494
       151.0004        154.0004
 -10069168.17448  -7823018.15247  22173426.1464   22173425.8644   22173434.5484
       176.0004        176.0004
 -18125915.12848 -14102533.98447  20527406.8474   20527405.7884   20527413.2634
       202.0004        202.0004
 -18689920.91148 -14002245.20347  20510260.7724   20510259.8434   20510267.5534
       208.0004        209.0004
 03 12 22 19  2 44.0000000  0  7G28G29G27G11G26G 8G 7
 -19162497.05748 -14912875.95747  20926396.6994   20926395.9974   20926402.4144
       201.0004        201.0004
 -13310343.00248 -10108689.05547  21868635.0534   21868634.6324   21868642.5374
       186.0004        186.0004
 -10091480.63848  -7843332.61747  22456628.4224   22456628.4864   22456639.4214
       162.0004        164.0004
  -4649730.62948  -3599997.41547  23491756.3254   23491755.9034   23491763.5194
       151.0004        154.0004
 -10069696.02348  -7823429.46647  22173325.6164   22173324.8994   22173333.6754
       176.0004        176.0004
 -18124480.02448 -14101415.72747  20527679.9284   20527679.0574   20527686.4244
       202.0004        203.0004
 -18690994.02548 -14003081.39847  20510056.5684   20510055.6354   20510063.3204
       208.0004        209.0004
 03 12 22 19  2 45.0000000  0  7G28G29G27G11G26G 8G 7
 -19162084.91648 -14912554.80847  20926475.0954   20926474.5324   20926480.7414
       201.0004        201.0004
 -13310213.96548 -10108588.50547  21868659.5584   21868658.6414   21868665.9074
       186.0004        186.0004
 -10088784.82148  -7841231.98747  22457141.4694   22457141.3604   22457152.4594
       162.0004        164.0004
  -4649096.06848  -3599502.95047  23491877.0294   23491876.9764   23491883.8504
       151.0004        154.0004
 -10070223.16048  -7823840.22447  22173225.2554   22173225.3534   22173233.2994
       176.0004        177.0004
 -18123044.35148 -14100297.02447  20527953.1034   20527952.0294   20527959.4844
       202.0004        202.0004
 -18692066.55648 -14003917.13747  20509852.4734   20509851.4864   20509859.0604
       208.0004        209.0004
 03 12 22 19  2 46.0000000  0  7G28G29G27G11G26G 8G 7
 -19161672.69348 -14912233.59447  20926553.5194   20926552.9594   20926559.1554
       201.0004        201.0004
 -13310084.40648 -10108487.54947  21868684.1144   21868683.3494   21868690.9194
       186.0004        186.0004
 -10086088.76348  -7839131.16847  22457654.6614   22457654.7204   22457665.4164
       162.0004        164.0004
  -4648461.05548  -3599008.13647  23491997.7974   23491997.2554   23492004.9354
       151.0004        155.0004
 -10070749.77148  -7824250.56747  22173125.0054   22173125.0084   22173132.9984
       176.0004        177.0004
 -18121608.29548 -14099178.02247  20528226.4014   20528225.4464   20528232.8404
       202.0004        202.0004
 -18693138.67148 -14004752.55047  20509648.4374   20509647.5974   20509655.0104
       208.0004        209.0004
 03 12 22 19  2 47.0000000  0  7G28G29G27G11G26G 8G 7
 -19161260.25148 -14911912.21247  20926631.9814   20926631.3144   20926637.7794
       201.0004        201.0004
 -13309954.16048 -10108386.06047  21868708.8604   21868708.6024   21868716.2574
       185.0004        186.0004
 -10083392.29848  -7837030.02747  22458167.9704   22458167.7464   22458178.1764
       162.0004        164.0004
  -4647825.41148  -3598512.82847  23492118.7234   23492117.7154   23492125.6184
       151.0004        154.0004
 -10071275.67548  -7824660.36247  22173024.9074   22173024.9604   22173032.8204
       176.0004        176.0004
 -18120171.70148 -14098058.59947  20528499.7644   20528498.8664   20528506.3684
       202.0004        202.0004
 -18694210.23848 -14005587.53647  20509444.5364   20509443.5824   20509451.1114
       208.0004        209.0004
 03 12 22 19  2 48.0000000  0  7G28G29G27G11G26G 8G 7
 -19160847.56648 -14911590.64047  20926710.5404   20926709.6364   20926716.2744
       201.0004        201.0004
 -13309823.24948 -10108284.05547  21868733.7394   21868733.4824   21868741.5624
       185.0004        186.0004
 -10080695.42848  -7834928.57347  22458681.3194   22458681.6064   22458691.4394
       162.0004        165.0004
  -4647189.16448  -3598017.04947  23492239.8124   23492238.7104   23492247.2824
       151.0004        154.0004
 -10071800.89648  -7825069.62547  22172924.9234   22172924.8804   22172933.1854
       176.0004        176.0004
 -18118734.56448 -14096938.75347  20528773.2374   20528772.2454   20528779.8954
       202.0004        202.0004
 -18695281.25448 -14006422.09447  20509240.7534   20509239.6704   20509247.3764
       208.0004        209.0004
 03 12 22 19  2 49.0000000  0  7G28G29G27G11G26G 8G 7
 -19160434.71648 -14911268.94047  20926789.1024   20926788.5504   20926794.8464
       201.0004        201.0004
 -13309691.71148 -10108181.55747  21868758.7434   21868758.3914   21868766.1114
       185.0004        186.0004
 -10077998.19748  -7832826.83447  22459194.6724   22459194.3544   22459205.4124
       162.0004        165.0004
  -4646552.34248  -3597520.83147  23492360.9264   23492360.0824   23492369.0274
       151.0004        154.0004
 -10072325.44648  -7825478.36647  22172825.0774   22172824.5674   22172833.1064
       175.0004        176.0004
 -18117296.91848 -14095818.51147  20529046.7904   20529045.9644   20529053.5304
       202.0004        202.0004
 -18696351.75448 -14007256.25047  20509037.0854   20509036.1574   20509043.6314
       208.0004        209.0004
 03 12 22 19  2 50.0000000  0  7G28G29G27G11G26G 8G 7
 -19160021.69748 -14910947.10647  20926867.7014   20926866.8084   20926873.1934
       201.0004        201.0004
 -13309559.56848 -10108078.58647  21868783.8514   21868783.3744   21868791.3334
       185.0004        186.0004
 -10075300.62648  -7830724.83247  22459708.1204   22459707.4214   22459718.5334
       162.0004        165.0004
  -4645914.96648  -3597024.17447  23492482.1784   23492481.5614   23492490.2124
       151.0004        155.0004
 -10072849.37148  -7825886.62147  22172725.3884   22172725.3664   22172733.9394
       175.0004        176.0004
 -18115858.80448 -14094697.90547  20529320.4334   20529319.3664   20529327.1244
       202.0004        203.0004
 -18697421.75748 -14008090.01747  20508833.4824   20508832.5164   20508840.0074
       208.0004        209.0004
 03 12 22 19  2 51.0000000  0  7G28G29G27G11G26G 8G 7
 -19159608.57248 -14910625.19447  20926946.2934   20926945.5434   20926951.9414
       201.0004        201.0004
 -13309426.85648 -10107975.18247  21868809.1224   21868809.1884   21868816.6774
       185.0004        186.0004
 -10072602.77448  -7828622.61347  22460221.5544   22460221.0824   22460232.6784
       162.0004        165.0004
  -4645277.11648  -3596527.15047  23492603.5524   23492602.3474   23492611.5714
       151.0004        154.0004
 -10073372.73948  -7826294.44347  22172625.8574   22172625.7694   22172634.5664
       175.0004        176.0004
 -18114420.26948 -14093576.97047  20529594.1594   20529593.2684   20529600.9564
       202.0004        202.0004
 -18698491.31948 -14008923.44347  20508629.9704   20508628.9694   20508636.7794
       208.0004        209.0004
 03 12 22 19  2 52.0000000  0  7G28G29G27G11G26G 8G 7
 -19159195.22148 -14910303.10347  20927024.9484   20927024.3224   20927030.6254
       201.0004        201.0004
 -13309293.47248 -10107871.24647  21868834.5054   21868833.9564   21868841.4464
       185.0004        186.0004
 -10069904.51548  -7826520.07247  22460734.9724   22460734.5014   22460745.9654
       162.0004        164.0004
  -4644638.62848  -3596029.62547  23492724.9144   23492723.7944   23492732.8434
       151.0004        155.0004
 -10073895.40748  -7826701.71847  22172526.4764   22172525.8854   22172534.4384
       175.0004        176.0004
 -18112981.18548 -14092455.61047  20529867.9864   20529867.0764   20529874.4234
       202.0004        202.0004
 -18699560.32448 -14009756.43547  20508426.5654   20508425.4674   20508433.2214
       208.0004        209.0004
 03 12 22 19  2 53.0000000  0  7G28G29G27G11G26G 8G 7
 -19158781.72948 -14909980.90247  20927103.6364   20927103.0654   20927109.3474
       201.0004        201.0004
 -13309159.50148 -10107766.85647  21868860.0134   21868859.3394   21868867.1834
       185.0004        186.0004
 -10067205.95148  -7824417.29747  22461248.4084   22461248.0054   22461259.4484
       162.0004        164.0004
  -4643999.62148  -3595531.70347  23492846.3764   23492845.6014   23492854.7204
       151.0004        155.0004
 -10074417.48248  -7827108.53447  22172427.1284   22172426.9604   22172435.0804
       175.0004        176.0004
 -18111541.64048 -14091333.88947  20530141.9404   20530140.9674   20530148.4724
       202.0004        202.0004
 -18700628.83348 -14010589.04047  20508223.2424   20508222.2204   20508229.9034
       208.0004        208.0004
 03 12 22 19  2 54.0000000  0  7G28G29G27G11G26G 8G 7
 -19158368.03748 -14909658.54547  20927182.3574   20927181.7144   20927188.0344
       201.0004        201.0004
 -13309024.88048 -10107661.95947  21868885.6864   21868884.9564   21868892.8214
       185.0004        186.0004
 -10064506.99948  -7822314.22447  22461761.9804   22461761.3844   22461772.8244
       162.0004        165.0004
  -4643360.02248  -3595033.31447  23492968.0184   23492967.5564   23492975.7244
       151.0004        154.0004
 -10074938.86348  -7827514.80547  22172327.9114   22172327.7034   22172335.7374
       175.0004        176.0004
 -18110101.57848 -14090211.76647  20530415.9564   20530415.1304   20530422.4374
       202.0004        202.0004
 -18701696.82248 -14011421.23947  20508020.0134   20508019.0184   20508026.5854
       208.0004        208.0004
 03 12 22 19  2 55.0000000  0  7G28G29G27G11G26G 8G 7
 -19157954.14748 -14909336.03547  20927261.0954   20927260.3214   20927266.9234
       201.0004        201.0004
 -13308889.62148 -10107556.55947  21868911.4604   21868911.1604   21868918.6544
       185.0004        187.0004
 -10061807.67448  -7820210.87147  22462275.6824   22462275.2494   22462286.9234
       162.0004        164.0004
  -4642719.83948  -3594534.46847  23493089.7544   23493088.7764   23493097.5364
       151.0004        154.0004
 -10075459.58048  -7827920.55547  22172228.8514   22172228.6934   22172236.8684
       175.0004        176.0004
 -18108660.99448 -14089089.23347  20530690.0754   20530689.2794   20530696.7684
       202.0004        202.0004
 -18702764.27348 -14012253.01947  20507816.8764   20507815.7724   20507823.5694
       208.0004        209.0004
 03 12 22 19  2 56.0000000  0  7G28G29G27G11G26G 8G 7
 -19157540.16948 -14909013.45547  20927339.8664   20927339.1334   20927345.6244
       200.0004        201.0004
 -13308753.82648 -10107450.74347  21868937.3484   21868936.7344   21868944.8664
       185.0004        187.0004
 -10059108.10248  -7818107.31147  22462789.5404   22462789.7064   22462800.9384
       162.0004        165.0004
  -4642079.18048  -3594035.26147  23493211.5404   23493210.8364   23493219.3934
       151.0004        153.0004
 -10075979.74148  -7828325.86547  22172129.8664   22172129.1994   22172138.3194
       175.0004        176.0004
 -18107220.01248 -14087966.39247  20530964.2724   20530963.5254   20530971.0784
       202.0004        202.0004
 -18703831.31548 -14013084.47847  20507613.8164   20507612.4954   20507620.4964
       208.0004        209.0004
 03 12 22 19  2 57.0000000  0  7G28G29G27G11G26G 8G 7
 -19157125.88448 -14908690.63347  20927418.6794   20927418.0944   20927424.6794
       200.0004        201.0004
 -13308617.29048 -10107344.35447  21868963.3904   21868962.4914   21868970.3954
       185.0004        186.0004
 -10056408.03748  -7816003.36347  22463303.3794   22463302.9034   22463314.2564
       162.0004        164.0004
  -4641437.82248  -3593535.51047  23493333.5134   23493333.0384   23493341.6904
       151.0004        153.0004
 -10076499.14048  -7828730.59447  22172030.9884   22172030.0874   22172039.0564
       175.0004        176.0004
 -18105778.41448 -14086843.07147  20531238.5914   20531237.8864   20531245.1794
       202.0004        202.0004
 -18704897.71648 -14013915.44147  20507410.8934   20507409.7904   20507417.4854
       208.0004        209.0004
 03 12 22 19  2 58.0000000  0  7G28G29G27G11G26G 8G 7
 -19156711.46648 -14908367.71247  20927497.5564   20927496.7684   20927503.5314
       201.0004        201.0004
 -13308480.17548 -10107237.51147  21868989.4504   21868988.6654   21868996.6404
       185.0004        187.0004
 -10053707.63548  -7813899.15947  22463817.1234   22463816.2654   22463827.8094
       162.0004        164.0004
  -4640795.94848  -3593035.35347  23493455.6134   23493455.5324   23493463.7644
       151.0004        153.0004
 -10077017.93248  -7829134.85647  22171932.2654   22171932.4574   22171939.7714
       175.0004        176.0004
 -18104336.38348 -14085719.41247  20531512.9924   20531512.2094   20531519.3034
       202.0004        202.0004
 -18705963.64948 -14014746.03847  20507208.0464   20507206.9634   20507214.5844
       208.0004        209.0004
 03 12 22 19  2 59.0000000  0  7G28G29G27G11G26G 8G 7
 -19156296.93948 -14908044.70447  20927576.4224   20927575.8064   20927582.2154
       200.0004        201.0004
 -13308342.49748 -10107130.23447  21869015.6404   21869015.1554   21869022.8354
       185.0004        187.0004
 -10051006.94348  -7811794.72647  22464330.8724   22464330.1854   22464341.4014
       162.0004        164.0004
  -4640153.56548  -3592534.79147  23493577.7964   23493578.0884   23493585.6074
       151.0004        152.0004
 -10077536.14748  -7829538.65747  22171833.6134   22171833.7214   22171840.8874
       175.0004        176.0004
 -18102893.91448 -14084595.41247  20531787.4734   20531786.7254   20531794.0674
       202.0004        202.0004
 -18707029.13948 -14015576.28947  20507005.2904   20507004.2434   20507011.7644
       208.0004        209.0004
 03 12 22 19  3  0.0000000  0  7G28G29G27G11G26G 8G 7
 -19155882.15848 -14907721.49747  20927655.3734   20927655.0114   20927661.2884
       200.0004        201.0004
 -13308204.12548 -10107022.41947  21869041.9374   21869041.6034   21869049.4804
       185.0004        187.0004
 -10048305.81848  -7809689.96147  22464844.8134   22464844.3094   22464855.0664
       162.0004        164.0004
  -4639510.53948  -3592033.73647  23493700.1794   23493700.8824   23493708.4824
       151.0004        153.0004
 -10078053.62548  -7829941.89047  22171735.0994   22171735.7414   22171742.8394
       175.0004        176.0004
 -18101450.86448 -14083470.95947  20532062.0744   20532061.0874   20532068.7114
       202.0004        202.0004
 -18708094.03348 -14016406.07647  20506802.6294   20506801.7344   20506809.2494
       208.0004        209.0004
 03 12 22 19  3  1.0000000  0  7G28G29G27G11G26G 8G 7
 -19155467.15148 -14907398.11847  20927734.3544   20927733.9084   20927740.1334
       200.0004        201.0004
 -13308065.07648 -10106914.06947  21869068.3884   21869068.0774   21869075.9134
       185.0004        186.0004
 -10045604.31948  -7807584.90647  22465359.0204   22465358.2284   22465369.6624
       162.0004        164.0004
  -4638866.91048  -3591532.20747  23493822.5844   23493822.9374   23493830.5824
       151.0004        153.0004
 -10078570.42448  -7830344.58947  22171636.7444   22171636.7624   22171645.0584
       175.0004        177.0004
 -18100007.27948 -14082346.09047  20532336.7684   20532335.7274   20532343.4074
       202.0004        202.0004
 -18709158.37748 -14017235.43647  20506600.0884   20506599.1934   20506606.9744
       208.0004        209.0004
 03 12 22 19  3  2.0000000  0  7G28G29G27G11G26G 8G 7
 -19155051.98948 -14907074.61447  20927813.3854   20927812.7754   20927819.0264
       200.0004        201.0004
 -13307925.41948 -10106805.24347  21869094.9364   21869094.6834   21869102.1574
       185.0004        186.0004
 -10042902.48048  -7805479.57747  22465873.3384   22465872.5474   22465883.7784
       162.0004        164.0004
  -4638222.72748  -3591030.25047  23493945.1154   23493945.0854   23493952.9504
       151.0004        153.0004
 -10079086.59148  -7830746.79247  22171538.5184   22171537.4184   22171545.9544
       175.0004        177.0004
 -18098563.21248 -14081220.84747  20532611.5814   20532610.7754   20532618.3964
       202.0004        202.0004
 -18710222.21748 -14018064.40147  20506397.6174   20506396.6044   20506404.2464
       208.0004        209.0004
 03 12 22 19  3  3.0000000  0  7G28G29G27G11G26G 8G 7
 -19154636.85848 -14906751.13647  20927892.4004   20927891.6824   20927897.8584
       200.0004        201.0004
 -13307785.35148 -10106696.10147  21869121.5624   21869121.4524   21869128.5984
       185.0004        186.0004
 -10040200.48348  -7803374.12647  22466387.5394   22466386.8774   22466397.4914
       162.0004        164.0004
  -4637578.19348  -3590528.01547  23494067.7494   23494067.1784   23494075.8314
       151.0004        153.0004
 -10079602.32748  -7831148.67047  22171440.3864   22171440.8454   22171448.4804
       175.0004        177.0004
 -18097118.86848 -14080095.38747  20532886.4264   20532885.6844   20532893.2084
       202.0004        202.0004
 -18711285.76948 -14018893.14147  20506195.1984   20506194.2134   20506201.9424
       208.0004        209.0004
 03 12 22 19  3  4.0000000  0  7G28G29G27G11G26G 8G 7
 -19154221.38548 -14906427.39547  20927971.4774   20927970.8744   20927977.2324
       200.0004        201.0004
 -13307644.50548 -10106586.35447  21869148.3914   21869148.5314   21869155.5234
       185.0004        186.0004
 -10037497.96248  -7801268.26647  22466901.7624   22466900.9154   22466911.7264
       162.0004        164.0004
  -4636932.93048  -3590025.21547  23494190.5804   23494190.7794   23494198.5824
       151.0004        153.0004
 -10080117.26248  -7831549.92047  22171342.4804   22171341.8394   22171350.4714
       175.0004        177.0004
 -18095673.87348 -14078969.41947  20533161.4414   20533160.6364   20533167.9454
       202.0004        202.0004
 -18712348.64948 -14019721.36147  20505992.9134   20505992.0284   20505999.6124
       208.0004        209.0004
 03 12 22 19  3  5.0000000  0  7G28G29G27G11G26G 8G 7
 -19153805.72648 -14906103.50447  20928050.5624   20928049.9154   20928056.1584
       200.0004        201.0004
 -13307503.02648 -10106476.11347  21869175.2714   21869175.0404   21869182.4504
       185.0004        186.0004
 -10034795.09648  -7799162.14247  22467416.0424   22467416.0374   22467425.6804
       162.0004        164.0004
  -4636287.09448  -3589521.96847  23494313.5654   23494313.5904   23494321.8584
       151.0004        154.0004
 -10080631.54548  -7831950.66047  22171244.6874   22171245.4904   22171252.7884
       175.0004        176.0004
 -18094228.37248 -14077843.05847  20533436.5204   20533435.5144   20533443.2174
       202.0004        202.0004
 -18713411.01048 -14020549.17747  20505790.7484   20505789.8564   20505797.4384
       208.0004        209.0004
 03 12 22 19  3  6.0000000  0  7G28G29G27G11G26G 8G 7
 -19153389.97548 -14905779.54247  20928129.6834   20928129.1184   20928135.3844
       200.0004        201.0004
 -13307361.00448 -10106365.44847  21869202.2794   21869201.9744   21869209.5704
       185.0004        186.0004
 -10032091.94448  -7797055.79447  22467930.4184   22467930.4924   22467940.6154
       162.0004        164.0004
  -4635640.78248  -3589018.34747  23494436.6344   23494436.6494   23494444.4284
       151.0004        153.0004
 -10081145.25648  -7832350.95547  22171146.9654   22171146.9514   22171155.1244
       175.0004        176.0004
 -18092782.46948 -14076716.37947  20533711.7294   20533710.9344   20533718.3704
       202.0004        202.0004
 -18714472.95248 -14021376.66247  20505588.6664   20505587.8174   20505595.2894
       208.0004        209.0004
 03 12 22 19  3  7.0000000  0  7G28G29G27G11G26G 8G 7
 -19152974.00848 -14905455.41347  20928208.8564   20928208.2224   20928214.4424
       200.0004        201.0004
 -13307218.29648 -10106254.24547  21869229.4164   21869229.0584   21869236.9704
       185.0004        186.0004
 -10029388.40348  -7794949.14047  22468444.9234   22468445.5284   22468455.2724
       162.0004        165.0004
  -4634993.86448  -3588514.25747  23494559.7804   23494559.6464   23494567.8184
       151.0004        153.0004
 -10081658.28548  -7832750.71147  22171049.3834   22171048.6164   22171057.1004
       175.0004        175.0004
 -18091336.02748 -14075589.28247  20533986.9974   20533986.2834   20533993.7054
       202.0004        202.0004
 -18715534.33048 -14022203.70947  20505386.6904   20505385.9814   20505393.4604
       208.0004        209.0004
 03 12 22 19  3  8.0000000  0  7G28G29G27G11G26G 8G 7
 -19152557.80848 -14905131.10147  20928288.0764   20928287.4894   20928293.6534
       200.0004        201.0004
 -13307074.92648 -10106142.53147  21869256.6874   21869256.7894   21869264.2754
       185.0004        186.0004
 -10026684.47348  -7792842.18847  22468959.4784   22468959.8704   22468969.5744
       162.0004        165.0004
  -4634346.33048  -3588009.68647  23494683.0434   23494683.5184   23494691.4074
       151.0004        154.0004
 -10082170.62448  -7833149.93447  22170951.9834   22170951.4274   22170959.8734
       175.0004        177.0004
 -18089889.04448 -14074461.76647  20534262.3764   20534261.4234   20534268.9494
       202.0004        202.0004
 -18716595.13348 -14023030.30947  20505184.8274   20505183.8824   20505191.6184
       208.0004        209.0004
 03 12 22 19  3  9.0000000  0  7G28G29G27G11G26G 8G 7
 -19152141.51448 -14904806.71647  20928367.3294   20928366.7514   20928372.9824
       200.0004        201.0004
 -13306931.01748 -10106030.39347  21869284.0764   21869284.3814   21869291.6654
       185.0004        186.0004
 -10023980.25548  -7790735.01047  22469474.1154   22469474.0544   22469483.7104
       162.0004        164.0004
  -4633698.30648  -3587504.73247  23494806.3734   23494806.7574   23494814.6664
       151.0004        153.0004
 -10082682.39648  -7833548.72847  22170854.6744   22170854.3084   22170862.6734
       175.0004        176.0004
 -18088441.64048 -14073333.92147  20534537.8364   20534536.8544   20534544.2854
       202.0004        202.0004
 -18717655.52148 -14023856.58347  20504983.0474   20504981.9504   20504989.7724
       208.0004        209.0004
 03 12 22 19  3 10.0000000  0  7G28G29G27G11G26G 8G 7
 -19151724.95848 -14904482.12847  20928446.6274   20928446.1024   20928452.2424
       200.0004        201.0004
 -13306786.39948 -10105917.70747  21869311.5834   21869311.4314   21869318.8674
       185.0004        186.0004
 -10021275.61548  -7788627.50447  22469988.8484   22469988.3874   22469998.2284
       162.0004        165.0004
  -4633049.62848  -3586999.26847  23494929.8324   23494930.1094   23494938.2684
       151.0004        153.0004
 -10083193.44548  -7833946.95347  22170757.4784   22170756.2354   22170765.5454
       175.0004        176.0004
 -18086993.67248 -14072205.63447  20534813.3844   20534812.4344   20534819.6864
       202.0004        202.0004
 -18718715.32548 -14024682.40347  20504781.3774   20504780.5184   20504788.1544
       208.0004        209.0004
 03 12 22 19  3 11.0000000  0  7G28G29G27G11G26G 8G 7
 -19151308.30648 -14904157.46447  20928525.9364   20928525.2364   20928531.4944
       200.0004        201.0004
 -13306641.21548 -10105804.57747  21869339.2254   21869338.5384   21869346.8654
       185.0004        186.0004
 -10018570.67848  -7786519.76847  22470503.6714   22470503.0044   22470512.7744
       162.0004        165.0004
  -4632400.46248  -3586493.42247  23495053.4544   23495053.8044   23495062.0464
       151.0004        154.0004
 -10083703.90948  -7834344.71747  22170660.3224   22170659.5904   22170668.4374
       175.0004        177.0004
 -18085545.27148 -14071077.01247  20535089.0164   20535087.8994   20535095.7344
       202.0004        202.0004
 -18719774.68748 -14025507.88147  20504579.8004   20504578.8264   20504586.6564
       208.0004        209.0004
 03 12 22 19  3 12.0000000  0  7G28G29G27G11G26G 8G 7
 -19150891.51348 -14903832.69147  20928605.2594   20928604.5084   20928610.6684
       200.0004        201.0004
 -13306495.44948 -10105690.99647  21869366.9304   21869366.0824   21869374.7394
       185.0004        186.0004
 -10015865.41948  -7784411.77547  22471018.5024   22471017.9004   22471027.9364
       162.0004        165.0004
  -4631750.77648  -3585987.17547  23495177.1394   23495177.5234   23495186.1674
       151.0004        154.0004
 -10084213.77248  -7834742.00547  22170563.2514   22170562.6064   22170571.3334
       175.0004        176.0004
 -18084096.41948 -14069948.04047  20535364.7194   20535363.9044   20535371.5084
       202.0004        202.0004
 -18720833.58048 -14026332.99147  20504378.3474   20504377.3734   20504385.1864
       208.0004        209.0004
 03 12 22 19  3 13.0000000  0  7G28G29G27G11G26G 8G 7
 -19150474.47848 -14903507.72947  20928684.6414   20928684.1554   20928690.1234
       200.0004        201.0004
 -13306348.99548 -10105576.87547  21869394.8154   21869394.2434   21869402.7014
       185.0004        187.0004
 -10013159.75148  -7782303.46847  22471533.4994   22471532.9944   22471542.7454
       162.0004        166.0004
  -4631100.45648  -3585480.43747  23495300.9924   23495301.7144   23495310.0714
       151.0004        155.0004
 -10084722.91648  -7835138.74547  22170466.3234   22170465.4954   22170473.5544
       175.0004        176.0004
 -18082647.00748 -14068818.63047  20535640.5944   20535639.6934   20535647.1474
       202.0004        202.0004
 -18721891.90048 -14027157.65747  20504176.9784   20504176.0094   20504183.6234
       208.0004        209.0004
 03 12 22 19  3 14.0000000  0  7G28G29G27G11G26G 8G 7
 -19150057.21548 -14903182.59247  20928764.0474   20928763.3524   20928769.5434
       200.0004        201.0004
 -13306201.88248 -10105462.24347  21869422.7874   21869422.7784   21869430.5954
       186.0004        187.0004
 -10010453.68748  -7780194.85147  22472048.4844   22472048.6844   22472058.5054
       162.0004        165.0004
  -4630449.52248  -3584973.21547  23495425.0024   23495425.4124   23495433.3314
       151.0004        155.0004
 -10085231.39648  -7835534.96247  22170369.5094   22170369.2794   22170376.8184
       175.0004        176.0004
 -18081197.05748 -14067688.79947  20535916.5524   20535915.5884   20535923.0454
       202.0004        202.0004
 -18722949.65648 -14027981.88447  20503975.6884   20503974.7164   20503982.4784
       208.0004        209.0004
 03 12 22 19  3 15.0000000  0  7G28G29G27G11G26G 8G 7
 -19149639.85948 -14902857.38047  20928843.4904   20928842.8104   20928849.0094
       200.0004        201.0004
 -13306054.22748 -10105347.19047  21869450.8934   21869450.6554   21869458.8804
       186.0004        187.0004
 -10007747.34348  -7778086.01547  22472563.4834   22472563.8344   22472573.3894
       162.0004        166.0004
  -4629798.09948  -3584465.62347  23495549.0694   23495549.2364   23495557.4414
       151.0004        155.0004
 -10085739.29748  -7835930.72647  22170272.7754   22170272.4404   22170280.6534
       175.0004        176.0004
 -18079746.69248 -14066558.64547  20536192.5584   20536191.1164   20536199.1654
       202.0004        202.0004
 -18724006.98848 -14028805.77747  20503774.5044   20503773.3784   20503781.0534
       208.0004        209.0004
 03 12 22 19  3 16.0000000  0  7G28G29G27G11G26G 8G 7
 -19149222.28648 -14902532.00147  20928922.9734   20928922.5224   20928928.4824
       200.0004        201.0004
 -13305905.89448 -10105231.61047  21869479.1184   21869478.7794   21869486.4794
       186.0004        186.0004
 -10005040.59948  -7775976.86747  22473078.5684   22473078.6424   22473088.5264
       163.0004        166.0004
  -4629146.07748  -3583957.55547  23495673.2514   23495673.6334   23495681.5734
       151.0004        154.0004
 -10086246.50648  -7836325.95147  22170176.2164   22170176.0264   22170184.3574
       175.0004        176.0004
 -18078295.81048 -14065428.08947  20536468.6124   20536467.3864   20536475.1474
       202.0004        202.0004
 -18725063.75948 -14029629.23447  20503573.4094   20503572.3684   20503579.9364
       208.0004        208.0004
 03 12 22 19  3 17.0000000  0  7G28G29G27G11G26G 8G 7
 -19148804.56348 -14902206.50347  20929002.4754   20929001.8074   20929008.1494
       200.0004        201.0004
 -13305756.96748 -10105115.56547  21869507.4984   21869507.0964   21869514.8524
       186.0004        187.0004
 -10002333.53148  -7773867.47247  22473593.8354   22473593.7494   22473603.4994
       163.0004        165.0004
  -4628493.50948  -3583449.05647  23495797.5634   23495797.2674   23495804.4624
       151.0004        154.0004
 -10086753.08848  -7836720.69947  22170079.7904   22170079.5694   22170087.7294
       175.0004        176.0004
 -18076844.45648 -14064297.16947  20536744.7824   20536743.4974   20536751.3934
       202.0004        202.0004
 -18726120.05348 -14030452.31947  20503372.3984   20503371.3994   20503378.9904
       208.0004        208.0004
 03 12 22 19  3 18.0000000  0  7G28G29G27G11G26G 8G 7
 -19148386.66448 -14901880.86747  20929082.0104   20929081.1294   20929087.3714
       200.0004        201.0004
 -13305607.42348 -10104999.03547  21869535.9554   21869535.6034   21869543.4644
       186.0004        187.0004
  -9999626.11448  -7771757.79947  22474109.2514   22474109.4064   22474118.3884
       163.0004        165.0004
  -4627840.36548  -3582940.11547  23495921.9614   23495921.7484   23495928.9144
       151.0004        155.0004
 -10087259.02748  -7837114.93847  22169983.4614   22169982.5134   22169991.2824
       175.0004        177.0004
 -18075392.59548 -14063165.85147  20537021.0354   20537020.0464   20537027.5304
       202.0004        202.0004
 -18727175.82848 -14031275.00347  20503171.4834   20503170.4274   20503178.3334
       208.0004        209.0004
 03 12 22 19  3 19.0000000  0  7G28G29G27G11G26G 8G 7
 -19147968.63848 -14901555.13147  20929161.5624   20929160.7654   20929167.2314
       200.0004        201.0004
 -13305457.29548 -10104882.05347  21869564.5104   21869564.2214   21869572.6634
       186.0004        187.0004
  -9996918.38848  -7769647.88347  22474624.6614   22474624.7564   22474634.2974
       163.0004        165.0004
  -4627186.73348  -3582430.79547  23496046.4794   23496046.3904   23496053.5764
       151.0004        154.0004
 -10087764.38048  -7837508.71847  22169887.2704   22169886.7674   22169895.1244
       175.0004        178.0004
 -18073940.29148 -14062034.18747  20537297.3884   20537296.4074   20537303.8774
       202.0004        202.0004
 -18728231.14748 -14032097.32647  20502970.6504   20502969.8074   20502977.2964
       208.0004        209.0004
 03 12 22 19  3 20.0000000  0  7G28G29G27G11G26G 8G 7
 -19147550.32048 -14901229.16947  20929241.1834   20929240.3644   20929246.8814
       200.0004        201.0004
 -13305306.42648 -10104764.49047  21869593.2304   21869592.8894   21869600.7784
       186.0004        187.0004
  -9994210.20048  -7767537.61047  22475140.0694   22475140.0394   22475149.6814
       163.0004        166.0004
  -4626532.41548  -3581920.93447  23496171.0524   23496171.4994   23496177.6584
       151.0004        153.0004
 -10088268.98948  -7837901.92047  22169791.2584   22169790.7534   22169799.3204
       175.0004        177.0004
 -18072487.38548 -14060902.05547  20537573.8394   20537572.6484   20537580.1704
       202.0004        202.0004
 -18729285.84948 -14032919.17347  20502769.9424   20502769.0614   20502776.6884
       208.0004        209.0004
 03 12 22 19  3 21.0000000  0  7G28G29G27G11G26G 8G 7
 -19147131.87848 -14900903.11147  20929320.8194   20929320.0824   20929326.3164
       200.0004        201.0004
 -13305154.97648 -10104646.48547  21869622.0474   21869621.8834   21869630.1104
       186.0004        187.0004
  -9991501.71448  -7765427.09847  22475655.5254   22475655.4804   22475665.0044
       163.0004        166.0004
  -4625877.57848  -3581410.67247  23496295.7734   23496296.1084   23496301.5934
       151.0004        153.0004
 -10088772.97348  -7838294.63647  22169695.3814   22169694.9324   22169703.0714
       175.0004        176.0004
 -18071034.03348 -14059769.57347  20537850.3884   20537849.5584   20537856.8984
       202.0004        202.0004
 -18730340.08348 -14033740.65347  20502569.3034   20502568.3434   20502575.9834
       208.0004        209.0004
 03 12 22 19  3 22.0000000  0  7G28G29G27G11G26G 8G 7
 -19146713.29848 -14900576.94647  20929400.4524   20929399.7574   20929405.8274
       200.0004        201.0004
 -13305002.95548 -10104528.02847  21869650.9844   21869650.4204   21869658.6414
       186.0004        187.0004
  -9988792.89848  -7763316.33947  22476171.0224   22476170.7004   22476180.7084
       163.0004        166.0004
  -4625222.22048  -3580900.01347  23496420.5954   23496420.6504   23496426.5624
       151.0004        154.0004
 -10089276.35948  -7838686.87847  22169599.5904   22169599.1664   22169607.2224
       175.0004        177.0004
 -18069580.23348 -14058636.74547  20538127.0264   20538126.0644   20538133.6064
       202.0004        202.0004
 -18731393.85148 -14034561.77247  20502368.7514   20502367.6804   20502375.4254
       208.0004        209.0004
 03 12 22 19  3 23.0000000  0  7G28G29G27G11G26G 8G 7
 -19146294.48148 -14900250.59547  20929480.1264   20929479.4254   20929485.6314
       200.0004        201.0004
 -13304850.25848 -10104409.04547  21869680.0544   21869679.8614   21869687.9094
       186.0004        187.0004
  -9986083.66448  -7761205.25347  22476686.5244   22476686.0924   22476695.8134
       163.0004        166.0004
  -4624566.22548  -3580388.85147  23496545.5354   23496545.5714   23496552.0324
       151.0004        154.0004
 -10089779.04848  -7839078.58447  22169503.9064   22169502.7394   22169512.2534
       175.0004        177.0004
 -18068125.87748 -14057503.47947  20538403.7364   20538402.7754   20538410.4194
       202.0004        202.0004
 -18732447.05948 -14035382.45247  20502168.2904   20502167.2274   20502175.1154
       208.0004        209.0004
 03 12 22 19  3 24.0000000  0  7G28G29G27G11G26G 8G 7
 -19145875.54348 -14899924.15147  20929559.8544   20929559.0764   20929565.2664
       200.0004        201.0004
 -13304697.00048 -10104289.62647  21869709.2424   21869709.0484   21869717.3934
       186.0004        187.0004
  -9983374.12948  -7759093.93147  22477202.1734   22477201.3894   22477210.6594
       163.0004        165.0004
  -4623909.73048  -3579877.29947  23496670.6094   23496670.5064   23496677.4874
       151.0004        154.0004
 -10090281.15648  -7839469.84247  22169408.3214   22169408.1464   22169415.7564
       175.0004        177.0004
 -18066671.08048 -14056369.87547  20538680.5174   20538679.3024   20538687.2624
       202.0004        202.0004
 -18733499.80648 -14036202.77547  20501967.9234   20501967.1714   20501974.8454
       208.0004        209.0004
 03 12 22 19  3 25.0000000  0  7G28G29G27G11G26G 8G 7
 -19145456.41348 -14899597.56147  20929639.6024   20929638.8764   20929645.3824
       200.0004        201.0004
 -13304543.10048 -10104169.70347  21869738.5164   21869738.5524   21869746.2694
       186.0004        187.0004
  -9980664.23248  -7756982.33047  22477717.8994   22477717.2794   22477726.3764
       163.0004        165.0004
  -4623252.66048  -3579365.30247  23496795.7524   23496795.9224   23496802.4164
       151.0004        154.0004
 -10090782.61248  -7839860.58947  22169312.8784   22169312.1344   22169321.2394
       175.0004        177.0004
 -18065215.77548 -14055235.87347  20538957.4284   20538956.3214   20538964.0414
       202.0004        202.0004
 -18734552.02948 -14037022.69047  20501767.6714   20501767.0464   20501774.4804
       208.0004        209.0004
 03 12 22 19  3 26.0000000  0  7G28G29G27G11G26G 8G 7
 -19145037.04748 -14899270.77947  20929719.3954   20929718.9074   20929724.8424
       201.0004        201.0004
 -13304388.50448 -10104049.23747  21869767.9204   21869767.3194   21869775.1914
       186.0004        186.0004
  -9977953.92948  -7754870.41447  22478233.7054   22478232.6224   22478241.6084
       163.0004        165.0004
  -4622594.95648  -3578852.80047  23496921.0494   23496920.4704   23496926.8194
       151.0004        155.0004
 -10091283.34448  -7840250.76647  22169217.5574   22169217.3104   22169226.1734
       175.0004        177.0004
 -18063759.91548 -14054101.43947  20539234.4594   20539233.7184   20539241.4134
       202.0004        202.0004
 -18735603.67748 -14037842.15547  20501567.5634   20501566.9034   20501574.3654
       208.0004        209.0004
 03 12 22 19  3 27.0000000  0  7G28G29G27G11G26G 8G 7
 -19144617.68148 -14898944.00147  20929799.1894   20929798.5494   20929804.7094
       201.0004        201.0004
 -13304233.46448 -10103928.42847  21869797.4854   21869796.6724   21869805.2574
       186.0004        187.0004
  -9975243.44948  -7752758.35647  22478749.6034   22478748.1794   22478757.8514
       163.0004        165.0004
  -4621936.86348  -3578340.00447  23497046.4024   23497045.4144   23497051.5724
       151.0004        155.0004
 -10091783.61748  -7840640.58947  22169122.2944   22169122.5504   22169130.5054
       175.0004        176.0004
 -18062303.73348 -14052966.75247  20539511.5344   20539510.5714   20539518.1274
       202.0004        202.0004
 -18736654.97448 -14038661.34647  20501367.4864   20501366.6714   20501374.3544
       208.0004        209.0004
 03 12 22 19  3 28.0000000  0  7G28G29G27G11G26G 8G 7
 -19144198.06448 -14898617.02847  20929879.0354   20929878.3834   20929884.5244
       201.0004        201.0004
 -13304077.72548 -10103807.07347  21869827.1164   21869826.3984   21869835.0814
       186.0004        187.0004
  -9972532.54748  -7750645.96747  22479265.5514   22479264.7754   22479274.0804
       163.0004        164.0004
  -4621278.12948  -3577826.70547  23497171.8334   23497171.1324   23497177.2424
       151.0004        155.0004
 -10092283.16248  -7841029.84647  22169027.2174   22169027.6804   22169035.2794
       175.0004        178.0004
 -18060846.99548 -14051831.63647  20539788.7094   20539787.7254   20539795.5294
       202.0004        202.0004
 -18737705.70048 -14039480.09447  20501167.5284   20501166.5284   20501174.4894
       208.0004        209.0004
 03 12 22 19  3 29.0000000  0  7G28G29G27G11G26G 8G 7
 -19143778.05048 -14898289.74647  20929958.9854   20929958.2024   20929964.3924
       200.0004        201.0004
 -13303921.13648 -10103685.06147  21869856.9464   21869856.5064   21869865.0094
       186.0004        187.0004
  -9969821.07248  -7748533.13447  22479781.5534   22479780.5674   22479790.4454
       163.0004        164.0004
  -4620618.61448  -3577312.80047  23497297.4184   23497297.3594   23497303.1274
       151.0004        155.0004
 -10092781.83648  -7841418.42047  22168932.3134   22168932.6924   22168940.5984
       175.0004        177.0004
 -18059389.53348 -14050695.95247  20540066.0624   20540065.2574   20540072.9114
       202.0004        202.0004
 -18738755.68948 -14040298.26747  20500967.7324   20500966.6164   20500974.6434
       208.0004        209.0004
 03 12 22 19  3 30.0000000  0  7G28G29G27G11G26G 8G 7
 -19143358.13248 -14897962.53747  20930038.8794   20930038.0764   20930044.4924
       201.0004        201.0004
 -13303764.19648 -10103562.77047  21869886.8234   21869886.2354   21869894.7184
       186.0004        187.0004
  -9967109.48748  -7746420.21547  22480297.5764   22480296.6854   22480306.1924
       163.0004        165.0004
  -4619958.79548  -3576798.66147  23497423.0344   23497421.9274   23497429.0604
       151.0004        155.0004
 -10093280.13948  -7841806.71447  22168837.5064   22168837.2984   22168845.9684
       175.0004        177.0004
 -18057931.84948 -14049560.09247  20540343.4304   20540342.3704   20540350.3084
       202.0004        202.0004
 -18739805.45348 -14041116.26647  20500767.9854   20500767.2014   20500775.0504
       208.0004        209.0004
 03 12 22 19  3 31.0000000  0  7G28G29G27G11G26G 8G 7
 -19142937.97648 -14897635.14247  20930118.8414   20930118.0274   20930124.7704
       201.0004        201.0004
 -13303606.55948 -10103439.93347  21869916.7934   21869916.5074   21869924.5164
       186.0004        187.0004
  -9964397.51148  -7744306.99147  22480813.6594   22480812.5424   22480822.7144
       163.0004        164.0004
  -4619298.35448  -3576284.03347  23497548.7524   23497547.2514   23497555.2454
       151.0004        155.0004
 -10093777.73248  -7842194.44747  22168742.8274   22168742.8374   22168751.2564
       175.0004        176.0004
 -18056473.60648 -14048423.80147  20540620.9054   20540620.0004   20540627.8734
       202.0004        203.0004
 -18740854.62148 -14041933.79847  20500568.3544   20500567.5364   20500575.3364
       208.0004        209.0004
 03 12 22 19  3 32.0000000  0  7G28G29G27G11G26G 8G 7
 -19142517.74548 -14897307.69247  20930198.8334   20930198.3484   20930204.5694
       201.0004        201.0004
 -13303448.39848 -10103316.69147  21869946.8804   21869946.7134   21869954.4584
       186.0004        187.0004
  -9961685.26548  -7742193.55647  22481329.7914   22481328.1324   22481338.7674
       163.0004        164.0004
  -4618637.42148  -3575769.01647  23497674.5074   23497673.2694   23497681.4254
       152.0004        156.0004
 -10094274.77648  -7842581.74747  22168648.3024   22168648.7744   22168656.4264
       175.0004        176.0004
 -18055014.97048 -14047287.20447  20540898.4414   20540897.5974   20540905.3714
       202.0004        203.0004
 -18741903.37748 -14042751.01047  20500368.7794   20500367.9714   20500375.6624
       208.0004        209.0004
 03 12 22 19  3 33.0000000  0  7G28G29G27G11G26G 8G 7
 -19142097.18748 -14896979.98447  20930278.8974   20930278.2784   20930284.3344
       201.0004        201.0004
 -13303289.48848 -10103192.86947  21869977.0954   21869976.9854   21869985.1084
       186.0004        186.0004
  -9958972.53048  -7740079.74447  22481845.9824   22481844.8034   22481854.6484
       163.0004        164.0004
  -4617975.80848  -3575253.47547  23497800.4254   23497799.5854   23497807.0624
       152.0004        156.0004
 -10094771.03848  -7842968.44447  22168553.8874   22168553.9824   22168562.9164
       175.0004        177.0004
 -18053555.69948 -14046150.11247  20541176.1314   20541175.4474   20541182.9334
       202.0004        202.0004
 -18742951.48548 -14043567.71747  20500169.3294   20500168.5584   20500176.1854
       208.0004        209.0004
 03 12 22 19  3 34.0000000  0  7G28G29G27G11G26G 8G 7
 -19141676.58948 -14896652.24547  20930358.9754   20930358.4114   20930364.3624
       201.0004        201.0004
 -13303130.08648 -10103068.66247  21870007.3974   21870007.1104   21870015.6444
       186.0004        187.0004
  -9956259.55748  -7737965.74747  22482362.2474   22482361.5034   22482371.1754
       163.0004        164.0004
  -4617313.75548  -3574737.59047  23497926.3984   23497924.9554   23497932.8044
       152.0004        155.0004
 -10095266.79148  -7843354.75447  22168459.5504   22168459.7454   22168468.7834
       175.0004        176.0004
 -18052096.06648 -14045012.73747  20541453.8824   20541453.0174   20541460.5574
       202.0004        202.0004
 -18743999.20348 -14044384.12047  20499969.9634   20499968.9624   20499976.8074
       208.0004        209.0004
 03 12 22 19  3 35.0000000  0  7G28G29G27G11G26G 8G 7
 -19141255.71548 -14896324.29247  20930439.1234   20930438.2964   20930444.4724
       201.0004        201.0004
 -13302969.95248 -10102943.88447  21870037.9154   21870037.6524   21870045.8894
       186.0004        188.0004
  -9953546.14048  -7735851.39947  22482878.6364   22482877.8084   22482887.9274
       163.0004        165.0004
  -4616651.03648  -3574221.18647  23498052.5014   23498051.1564   23498059.0484
       152.0004        155.0004
 -10095761.79448  -7843740.46647  22168365.4474   22168365.2994   22168374.2014
       175.0004        176.0004
 -18050635.84748 -14043874.90647  20541731.7654   20541730.9214   20541738.7164
       202.0004        203.0004
 -18745046.33148 -14045200.06347  20499770.7224   20499769.8024   20499777.4584
       208.0004        209.0004
 03 12 22 19  3 36.0000000  0  7G28G29G27G11G26G 8G 7
 -19140834.73548 -14895996.25447  20930519.2554   20930518.3964   20930524.6004
       201.0004        201.0004
 -13302809.27148 -10102818.68247  21870068.5014   21870068.1524   21870076.2834
       186.0004        187.0004
  -9950832.44848  -7733736.83847  22483394.9404   22483394.2224   22483403.8314
       163.0004        165.0004
  -4615987.82948  -3573704.40047  23498178.6764   23498176.9924   23498184.9394
       152.0004        155.0004
 -10096256.21948  -7844125.73847  22168271.4204   22168271.2554   22168279.6674
       175.0004        177.0004
 -18049175.19948 -14042736.74047  20542009.7494   20542008.8914   20542016.6494
       202.0004        202.0004
 -18746093.01748 -14046015.66347  20499571.5434   20499570.6794   20499578.2094
       208.0004        209.0004
 03 12 22 19  3 37.0000000  0  7G28G29G27G11G26G 8G 7
 -19140413.49548 -14895668.01847  20930599.4374   20930598.4364   20930604.8144
       201.0004        201.0004
 -13302647.86848 -10102692.91547  21870099.1934   21870098.8304   21870106.9784
       186.0004        187.0004
  -9948118.29248  -7731621.91747  22483911.3454   22483910.6754   22483920.0644
       163.0004        165.0004
  -4615323.97148  -3573187.11147  23498304.9634   23498303.2654   23498311.7124
       152.0004        156.0004
 -10096749.91048  -7844510.43347  22168177.5364   22168177.6514   22168185.3414
       175.0004        177.0004
 -18047713.96548 -14041598.11847  20542287.8204   20542286.8874   20542294.8214
       202.0004        202.0004
 -18747139.10748 -14046830.79947  20499372.4404   20499371.6394   20499379.2274
       208.0004        209.0004
 03 12 22 19  3 38.0000000  0  7G28G29G27G11G26G 8G 7
 -19139992.04348 -14895339.62047  20930679.6754   20930678.7504   20930685.1274
       201.0004        201.0004
 -13302485.82848 -10102566.65147  21870130.0234   21870129.9134   21870137.7524
       186.0004        188.0004
  -9945403.78648  -7729506.72147  22484427.9254   22484427.2944   22484436.2824
       163.0004        165.0004
  -4614659.52048  -3572669.35847  23498431.4264   23498430.2564   23498438.7454
       152.0004        156.0004
 -10097242.95648  -7844894.63147  22168083.7394   22168084.2434   22168091.1454
       175.0004        176.0004
 -18046252.22548 -14040459.10447  20542565.9934   20542565.1954   20542573.0184
       202.0004        202.0004
 -18748184.65348 -14047645.51147  20499173.4774   20499172.7914   20499180.3394
       208.0004        209.0004
 03 12 22 19  3 39.0000000  0  7G28G29G27G11G26G 8G 7
 -19139570.57948 -14895011.20547  20930759.8724   20930758.8094   20930765.1034
       201.0004        201.0004
 -13302323.32148 -10102440.02347  21870160.9494   21870160.5274   21870168.4344
       186.0004        188.0004
  -9942689.08148  -7727391.37247  22484944.5584   22484943.9734   22484953.2504
       163.0004        165.0004
  -4613994.65648  -3572151.28347  23498557.9004   23498556.8564   23498564.9634
       152.0004        156.0004
 -10097735.49248  -7845278.42647  22167990.0094   22167990.7314   22167997.6344
       175.0004        177.0004
 -18044790.15348 -14039319.82947  20542844.2264   20542843.6694   20542851.0144
       202.0004        202.0004
 -18749229.84748 -14048459.94647  20498974.5694   20498973.7624   20498981.4134
       208.0004        209.0004
 03 12 22 19  3 40.0000000  0  7G28G29G27G11G26G 8G 7
 -19139148.80148 -14894682.54747  20930840.1494   20930839.4264   20930845.2624
       201.0004        201.0004
 -13302160.06848 -10102312.81247  21870191.9984   21870191.4484   21870199.5464
       186.0004        187.0004
  -9939973.89848  -7725275.64647  22485461.2514   22485460.5324   22485470.2164
       163.0004        164.0004
  -4613329.10448  -3571632.67747  23498684.5404   23498684.1624   23498691.8894
       152.0004        156.0004
 -10098227.26648  -7845661.62447  22167896.4784   22167896.1284   22167904.3774
       175.0004        176.0004
 -18043327.45448 -14038180.06647  20543122.5704   20543121.7494   20543129.4474
       202.0004        203.0004
 -18750274.41048 -14049273.89147  20498775.8104   20498774.8714   20498782.7594
       208.0004        209.0004
 03 12 22 19  3 41.0000000  0  7G28G29G27G11G26G 8G 7
 -19138726.97448 -14894353.85047  20930920.4214   20930919.4854   20930925.5814
       200.0004        201.0004
 -13301996.30748 -10102185.20647  21870223.1694   21870222.8314   21870231.0564
       186.0004        187.0004
  -9937258.47748  -7723159.73847  22485978.0074   22485976.9094   22485986.1924
       163.0004        164.0004
  -4612663.09348  -3571113.71247  23498811.2464   23498810.0564   23498818.4214
       152.0004        156.0004
 -10098718.51748  -7846044.41247  22167803.0504   22167802.6924   22167810.8944
       175.0004        177.0004
 -18041864.38948 -14037040.01547  20543400.9994   20543399.9784   20543407.8944
       202.0004        202.0004
 -18751318.59348 -14050087.53847  20498577.1134   20498576.1994   20498584.0104
       208.0004        209.0004
 03 12 22 19  3 42.0000000  0  7G28G29G27G11G26G 8G 7
 -19138304.65948 -14894024.77747  20931000.7904   20930999.9704   20931005.9904
       200.0004        201.0004
 -13301831.61748 -10102056.88047  21870254.5194   21870254.5114   21870262.1794
       186.0004        187.0004
  -9934542.40448  -7721043.31847  22486494.9344   22486494.3174   22486502.7814
       163.0004        164.0004
  -4611996.21848  -3570594.07447  23498938.0394   23498937.1034   23498945.7844
       152.0004        156.0004
 -10099208.81148  -7846426.46147  22167709.7704   22167709.0374   22167717.6314
       175.0004        177.0004
 -18040400.53048 -14035899.34847  20543679.5754   20543678.6534   20543686.4434
       202.0004        203.0004
 -18752361.96548 -14050900.55747  20498378.5734   20498377.6364   20498385.2564
       208.0004        209.0004
 03 12 22 19  3 43.0000000  0  7G28G29G27G11G26G 8G 7
 -19137882.55348 -14893695.86347  20931081.1104   20931080.3584   20931086.3654
       201.0004        201.0004
 -13301666.67748 -10101928.35647  21870285.9324   21870285.7224   21870293.8324
       186.0004        187.0004
  -9931826.35548  -7718926.92047  22487011.8124   22487010.1924   22487020.0114
       163.0004        164.0004
  -4611329.16348  -3570074.29147  23499064.9134   23499064.9504   23499072.8194
       152.0004        155.0004
 -10099698.82948  -7846808.29747  22167616.5004   22167616.3014   22167624.0054
       175.0004        177.0004
 -18038936.55048 -14034758.58447  20543958.1674   20543957.4704   20543965.1024
       202.0004        202.0004
 -18753405.18348 -14051713.45347  20498180.0714   20498179.1864   20498186.8064
       208.0004        209.0004
 03 12 22 19  3 44.0000000  0  7G28G29G27G11G26G 8G 7
 -19137460.03948 -14893366.63547  20931161.4944   20931160.7384   20931166.7304
       201.0004        201.0004
 -13301500.86248 -10101799.15047  21870317.4804   21870317.2514   21870325.3304
       186.0004        188.0004
  -9929109.70748  -7716810.05447  22487528.7134   22487526.9264   22487537.5614
       163.0004        163.0004
  -4610661.29848  -3569553.87547  23499192.0094   23499192.1864   23499200.1074
       152.0004        155.0004
 -10100187.97048  -7847189.44547  22167523.4184   22167523.2634   22167530.6064
       175.0004        176.0004
 -18037471.84448 -14033617.25947  20544236.8804   20544236.1444   20544243.8354
       202.0004        203.0004
 -18754447.67048 -14052525.78147  20497981.7334   20497980.8514   20497988.5424
       208.0004        209.0004
 03 12 22 19  3 45.0000000  0  7G28G29G27G11G26G 8G 7
 -19137037.48748 -14893037.36947  20931241.8974   20931241.1734   20931247.1754
       201.0004        201.0004
 -13301334.57348 -10101669.57647  21870349.1294   21870348.9604   21870356.7504
       186.0004        188.0004
  -9926392.84548  -7714693.02347  22488045.6184   22488043.8164   22488054.5204
       163.0004        164.0004
  -4609993.01648  -3569033.13247  23499319.1104   23499319.9384   23499326.3844
       152.0004        156.0004
 -10100676.60748  -7847570.19747  22167430.3974   22167430.1134   22167438.6794
       175.0004        176.0004
 -18036006.78248 -14032475.65547  20544515.7074   20544514.8744   20544522.3304
       202.0004        203.0004
 -18755489.79248 -14053337.82247  20497783.4534   20497782.4764   20497790.1954
       208.0004        209.0004
 03 12 22 19  3 46.0000000  0  7G28G29G27G11G26G 8G 7
 -19136614.73548 -14892707.95347  20931322.3524   20931321.4764   20931327.7644
       201.0004        201.0004
 -13301167.65448 -10101539.51347  21870380.9044   21870380.6584   21870388.6264
       186.0004        187.0004
  -9923675.62648  -7712575.71247  22488562.5454   22488561.4084   22488570.8544
       163.0004        164.0004
  -4609324.13648  -3568511.93047  23499446.3904   23499446.3974   23499453.0444
       152.0004        155.0004
 -10101164.58348  -7847950.43747  22167337.5244   22167337.5464   22167345.1544
       175.0004        177.0004
 -18034541.21348 -14031333.65447  20544794.6384   20544793.8104   20544801.3484
       202.0004        203.0004
 -18756531.36848 -14054149.44147  20497585.2744   20497584.2684   20497592.0914
       208.0004        209.0004
 03 12 22 19  3 47.0000000  0  7G28G29G27G11G26G 8G 7
 -19136191.70248 -14892378.31947  20931402.8724   20931402.0764   20931408.0844
       201.0004        201.0004
 -13301000.00348 -10101408.87847  21870412.8524   21870413.1294   21870420.4004
       186.0004        187.0004
  -9920957.90848  -7710458.02047  22489079.5994   22489079.0214   22489087.7604
       163.0004        164.0004
  -4608654.57148  -3567990.19147  23499573.7864   23499573.3704   23499581.0244
       152.0004        154.0004
 -10101651.78048  -7848330.08047  22167244.7674   22167244.9084   22167252.5044
       175.0004        176.0004
 -18033075.02848 -14030191.17647  20545073.6694   20545072.8944   20545080.5924
       202.0004        203.0004
 -18757572.33548 -14054960.58647  20497387.2164   20497386.2694   20497394.0454
       209.0004        209.0004
 03 12 22 19  3 48.0000000  0  7G28G29G27G11G26G 8G 7
 -19135768.67948 -14892048.69347  20931483.3734   20931482.6394   20931488.7304
       201.0004        202.0004
 -13300831.91548 -10101277.90347  21870444.8774   21870444.5664   21870452.5434
       186.0004        188.0004
  -9918240.07448  -7708340.23747  22489596.7184   22489596.8724   22489604.9014
       163.0004        164.0004
  -4607984.64848  -3567468.17747  23499701.2624   23499700.8724   23499708.6344
       152.0004        155.0004
 -10102138.52748  -7848709.36547  22167152.1894   22167152.3894   22167160.1474
       175.0004        176.0004
 -18031608.54148 -14029048.46147  20545352.7564   20545351.8074   20545359.9004
       202.0004        203.0004
 -18758612.96448 -14055771.46647  20497189.2414   20497188.2914   20497195.8894
       208.0004        209.0004
 03 12 22 19  3 49.0000000  0  7G28G29G27G11G26G 8G 7
 -19135345.40648 -14891718.86947  20931563.9264   20931562.9584   20931569.2154
       201.0004        201.0004
 -13300663.12948 -10101146.38347  21870477.0014   21870476.7824   21870484.6664
       186.0004        188.0004
  -9915521.78848  -7706222.09947  22490113.9664   22490113.4004   22490122.6854
       163.0004        164.0004
  -4607314.08248  -3566945.66147  23499828.8344   23499827.5174   23499836.6264
       152.0004        156.0004
 -10102624.56148  -7849088.08847  22167059.7674   22167058.9964   22167067.1194
       175.0004        177.0004
 -18030141.49048 -14027905.30547  20545631.9444   20545630.9684   20545638.9994
       202.0004        203.0004
 -18759653.01748 -14056581.89647  20496991.3264   20496990.3464   20496997.9824
       209.0004        209.0004
 03 12 22 19  3 50.0000000  0  7G28G29G27G11G26G 8G 7
 -19134922.00248 -14891388.94147  20931644.5274   20931643.4314   20931649.5764
       201.0004        201.0004
 -13300493.76848 -10101014.41347  21870509.2484   21870508.8344   21870516.6494
       186.0004        188.0004
  -9912803.21048  -7704103.72947  22490631.2944   22490630.9304   22490639.5794
       163.0004        165.0004
  -4606642.99948  -3566422.74147  23499956.4474   23499955.3534   23499964.2954
       152.0004        156.0004
 -10103109.99848  -7849466.35147  22166967.4104   22166967.0624   22166974.8844
       175.0004        177.0004
 -18028673.99648 -14026761.80447  20545911.2584   20545910.1524   20545918.0584
       202.0004        203.0004
 -18760692.61848 -14057391.97447  20496793.4634   20496792.4784   20496800.1214
       209.0004        209.0004
 03 12 22 19  3 51.0000000  0  7G28G29G27G11G26G 8G 7
 -19134498.33548 -14891058.81347  20931725.1384   20931724.0114   20931730.3324
       201.0004        201.0004
 -13300323.68148 -10100881.87847  21870541.6494   21870541.3624   21870549.0754
       186.0004        188.0004
  -9910084.18348  -7701985.00947  22491148.8344   22491148.4684   22491156.6434
       163.0004        165.0004
  -4605971.26448  -3565899.30947  23500084.2414   23500083.3814   23500092.2324
       152.0004        156.0004
 -10103594.71948  -7849844.05447  22166875.1944   22166874.8824   22166882.6614
       175.0004        177.0004
 -18027205.92448 -14025617.85447  20546190.6354   20546189.5624   20546197.0644
       202.0004        203.0004
 -18761731.61448 -14058201.58147  20496595.7174   20496594.6634   20496602.3354
       209.0004        209.0004
 03 12 22 19  3 52.0000000  0  7G28G29G27G11G26G 8G 7
 -19134074.50748 -14890728.56047  20931805.7744   20931805.2034   20931811.1254
       201.0004        201.0004
 -13300153.01248 -10100748.89147  21870574.1964   21870573.5594   21870582.0534
       186.0004        188.0004
  -9907364.82348  -7699866.02447  22491666.3134   22491665.7684   22491674.3734
       163.0004        164.0004
  -4605298.99248  -3565375.45847  23500212.0264   23500211.0794   23500219.8844
       152.0004        155.0004
 -10104078.81648  -7850221.27947  22166783.0814   22166783.4214   22166790.6444
       175.0004        177.0004
 -18025737.39348 -14024473.54947  20546470.0984   20546468.9144   20546476.6834
       202.0004        203.0004
 -18762770.12448 -14059010.80947  20496398.1004   20496397.1084   20496404.7934
       209.0004        209.0004
 03 12 22 19  3 53.0000000  0  7G28G29G27G11G26G 8G 7
 -19133650.54448 -14890398.20147  20931886.4484   20931885.7094   20931891.7744
       201.0004        201.0004
 -13299981.75548 -10100615.44147  21870606.8074   21870606.5024   21870614.5094
       186.0004        187.0004
  -9904645.15748  -7697746.80447  22492183.7774   22492182.7464   22492192.5284
       163.0004        165.0004
  -4604626.18748  -3564851.19847  23500339.9214   23500338.9074   23500348.0444
       152.0004        155.0004
 -10104562.29948  -7850598.01347  22166691.0994   22166691.5264   22166698.4534
       175.0004        176.0004
 -18024268.39748 -14023328.87547  20546749.6324   20546748.4774   20546756.1824
       202.0004        202.0004
 -18763808.16248 -14059819.66647  20496200.5484   20496199.5184   20496207.3204
       209.0004        209.0004
 03 12 22 19  3 54.0000000  0  7G28G29G27G11G26G 8G 7
 -19133226.35148 -14890067.66047  20931967.1214   20931966.4004   20931972.4374
       201.0004        201.0004
 -13299809.83348 -10100481.48147  21870639.5584   21870639.4994   21870647.0894
       186.0004        188.0004
  -9901925.09448  -7695627.28047  22492701.3714   22492700.9784   22492710.5874
       163.0004        164.0004
  -4603952.77048  -3564326.45947  23500467.9784   23500466.8224   23500476.2994
       152.0004        155.0004
 -10105045.07848  -7850974.20547  22166599.2604   22166599.0994   22166606.5624
       175.0004        177.0004
 -18022798.85548 -14022183.77947  20547029.2674   20547028.3004   20547035.9384
       202.0004        203.0004
 -18764845.64648 -14060628.09447  20496003.1254   20496002.3114   20496009.9344
       209.0004        209.0004
 03 12 22 19  3 55.0000000  0  7G28G29G27G11G26G 8G 7
 -19132802.00548 -14889737.00247  20932047.8454   20932047.1744   20932053.0464
       201.0004        201.0004
 -13299637.28948 -10100347.03447  21870672.4284   21870672.1784   21870679.6694
       186.0004        187.0004
  -9899204.68248  -7693507.48547  22493219.0354   22493218.1174   22493228.1414
       162.0004        164.0004
  -4603278.80248  -3563801.28947  23500596.1894   23500594.7434   23500604.4184
       152.0004        156.0004
 -10105527.22548  -7851349.90047  22166507.5214   22166507.4214   22166515.6024
       175.0004        177.0004
 -18021328.82748 -14021038.30747  20547308.9734   20547308.1624   20547315.8954
       202.0004        203.0004
 -18765882.62148 -14061436.12847  20495805.7994   20495804.9284   20495812.6354
       209.0004        209.0004
 03 12 22 19  3 56.0000000  0  7G28G29G27G11G26G 8G 7
 -19132377.50948 -14889406.22847  20932128.6374   20932127.9204   20932133.9804
       201.0004        201.0004
 -13299464.15248 -10100212.12247  21870705.3794   21870704.5984   21870712.6754
       187.0004        188.0004
  -9896483.94248  -7691387.43647  22493736.8444   22493735.3394   22493745.6614
       162.0004        163.0004
  -4602604.30048  -3563275.70747  23500724.5734   23500723.0014   23500732.7814
       152.0004        156.0004
 -10106008.76748  -7851725.12747  22166415.8784   22166415.5584   22166423.7884
       175.0004        177.0004
 -18019858.33648 -14019892.47047  20547588.7954   20547587.8404   20547595.7374
       202.0004        203.0004
 -18766919.12648 -14062243.79447  20495608.5594   20495607.5414   20495615.3664
       209.0004        208.0004
 03 12 22 19  3 57.0000000  0  7G28G29G27G11G26G 8G 7
 -19131952.76848 -14889075.26247  20932209.4584   20932208.6364   20932214.8954
       201.0004        201.0004
 -13299290.32748 -10100076.67947  21870738.4344   21870738.0254   21870745.5814
       187.0004        188.0004
  -9893762.79348  -7689267.06347  22494254.6894   22494253.5774   22494263.6254
       162.0004        163.0004
  -4601929.15848  -3562749.61947  23500852.9124   23500851.4914   23500861.3624
       152.0004        157.0004
 -10106489.59148  -7852099.80047  22166324.3494   22166323.5554   22166331.6724
       175.0004        176.0004
 -18018387.28448 -14018746.19747  20547868.7404   20547867.7214   20547875.6144
       202.0004        203.0004
 -18767955.04548 -14063051.00347  20495411.4314   20495410.4594   20495418.2444
       209.0004        209.0004
 03 12 22 19  3 58.0000000  0  7G28G29G27G11G26G 8G 7
 -19131527.91648 -14888744.20847  20932290.3464   20932289.4194   20932295.5694
       201.0004        201.0004
 -13299115.92548 -10099940.78347  21870771.6374   21870771.3974   21870778.9084
       187.0004        188.0004
  -9891041.34248  -7687146.45847  22494772.5134   22494771.2624   22494781.6954
       162.0004        163.0004
  -4601253.53648  -3562223.15947  23500981.4634   23500980.6354   23500989.9914
       152.0004        157.0004
 -10106969.82648  -7852474.00847  22166232.9224   22166233.1204   22166240.1374
       175.0004        177.0004
 -18016915.79448 -14017599.58447  20548148.7564   20548147.6384   20548155.6944
       202.0004        203.0004
 -18768990.51648 -14063857.86447  20495214.3924   20495213.4874   20495221.0854
       209.0004        209.0004
 03 12 22 19  3 59.0000000  0  7G28G29G27G11G26G 8G 7
 -19131102.84748 -14888412.98747  20932371.2484   20932370.3064   20932376.6354
       201.0004        201.0004
 -13298940.88248 -10099804.39147  21870804.9474   21870805.0374   21870812.2754
       187.0004        188.0004
  -9888319.51748  -7685025.56147  22495290.4534   22495288.7834   22495299.2384
       162.0004        164.0004
  -4600577.28348  -3561696.21247  23501110.2094   23501109.5394   23501119.6954
       152.0004        156.0004
 -10107449.38148  -7852847.69347  22166141.5864   22166141.4934   22166148.9884
       175.0004        176.0004
 -18015443.78248 -14016452.56447  20548428.8494   20548427.8834   20548435.9204
       202.0004        203.0004
 -18770025.43948 -14064664.29947  20495017.4554   20495016.5584   20495024.2564
       209.0004        209.0004
 03 12 22 19  4  0.0000000  0  7G28G29G27G11G26G 8G 7
 -19130677.62048 -14888081.64147  20932452.2014   20932451.2474   20932457.3694
       201.0004        201.0004
 -13298765.23748 -10099667.52347  21870838.3964   21870838.2044   21870845.6524
       187.0004        188.0004
  -9885597.35448  -7682904.39947  22495808.3974   22495807.2214   22495817.0284
       162.0004        163.0004
  -4599900.47648  -3561168.82947  23501239.0144   23501238.1354   23501248.4214
       152.0004        156.0004
 -10107928.33248  -7853220.89547  22166050.4034   22166050.4344   22166058.1834
       175.0004        176.0004
 -18013971.29248 -14015305.17247  20548709.0494   20548708.2674   20548715.8544
       202.0004        203.0004
 -18771059.86148 -14065470.34047  20494820.5864   20494819.6774   20494827.2314
       209.0004        209.0004
 03 12 22 19  4  1.0000000  0  7G28G29G27G11G26G 8G 7
 -19130252.17748 -14887750.12647  20932533.1984   20932532.3294   20932538.0904
       201.0004        201.0004
 -13298588.92948 -10099530.13947  21870871.9794   21870871.6664   21870879.2584
       187.0004        188.0004
  -9882874.78248  -7680782.92247  22496326.4554   22496325.5974   22496334.6114
       162.0004        164.0004
  -4599223.06048  -3560640.97947  23501367.9234   23501367.8624   23501377.0924
       152.0004        155.0004
 -10108406.58248  -7853593.56247  22165959.2764   22165959.1344   22165967.1004
       175.0004        176.0004
 -18012498.26748 -14014157.36247  20548989.3354   20548988.2154   20548996.1944
       202.0004        203.0004
 -18772093.74848 -14066275.96747  20494623.8134   20494622.7474   20494630.5314
       208.0004        209.0004
 03 12 22 19  4  2.0000000  0  7G28G29G27G11G26G 8G 7
 -19129826.64748 -14887418.54747  20932614.2024   20932613.1554   20932619.3394
       201.0004        201.0004
 -13298412.07348 -10099392.33147  21870905.6814   21870905.0544   21870912.7064
       187.0004        187.0004
  -9880151.93248  -7678661.22747  22496844.5854   22496843.6754   22496853.1714
       162.0004        164.0004
  -4598545.17948  -3560112.76347  23501496.9094   23501496.1444   23501506.2294
       153.0004        156.0004
 -10108884.24948  -7853965.77547  22165868.3524   22165868.3804   22165876.1024
       175.0004        176.0004
 -18011024.83648 -14013009.23647  20549269.7024   20549268.8134   20549276.6734
       202.0004        203.0004
 -18773127.20648 -14067081.25747  20494427.1574   20494426.2764   20494433.9294
       208.0004        209.0004
 03 12 22 19  4  3.0000000  0  7G28G29G27G11G26G 8G 7
 -19129400.98248 -14887086.85747  20932695.1894   20932694.1274   20932700.3424
       201.0004        201.0004
 -13298234.64848 -10099254.07947  21870939.4484   21870938.8534   21870946.7984
       187.0004        188.0004
  -9877428.78448  -7676539.29547  22497362.7934   22497362.2684   22497371.1504
       162.0004        163.0004
  -4597866.75748  -3559584.12647  23501625.9894   23501625.4434   23501635.0794
       153.0004        156.0004
 -10109361.32048  -7854337.52047  22165777.5444   22165777.1784   22165785.4644
       175.0004        176.0004
 -18009550.95048 -14011860.75347  20549550.1834   20549549.4224   20549557.1034
       203.0004        203.0004
 -18774160.18948 -14067886.17747  20494230.5864   20494229.7944   20494237.2104
       209.0004        209.0004
 03 12 22 19  4  4.0000000  0  7G28G29G27G11G26G 8G 7
 -19128975.00248 -14886754.92647  20932776.2584   20932775.3864   20932781.6484
       201.0004        200.0004
 -13298056.45248 -10099115.22547  21870973.3744   21870972.3764   21870980.5884
       187.0004        188.0004
  -9874705.15648  -7674416.98947  22497881.1524   22497881.1424   22497889.6234
       162.0004        162.0004
  -4597187.64148  -3559054.94847  23501755.2574   23501754.0394   23501764.4974
       153.0004        156.0004
 -10109837.62248  -7854708.66547  22165686.8924   22165686.4614   22165694.7684
       175.0004        176.0004
 -18008076.43748 -14010711.78347  20549830.7544   20549829.8914   20549837.7664
       203.0004        203.0004
 -18775192.52048 -14068690.59247  20494034.1534   20494033.2574   20494040.9164
       209.0004        209.0004
 03 12 22 19  4  5.0000000  0  7G28G29G27G11G26G 8G 7
 -19128548.96048 -14886422.94747  20932857.2924   20932856.3034   20932862.4964
       200.0004        201.0004
 -13297877.71548 -10098975.95247  21871007.3964   21871006.6104   21871014.8484
       187.0004        188.0004
  -9871981.29248  -7672294.49847  22498399.5064   22498398.5354   22498407.4074
       162.0004        163.0004
  -4596508.08648  -3558525.42447  23501884.5554   23501883.6774   23501894.3424
       153.0004        156.0004
 -10110313.38848  -7855079.38947  22165596.3674   22165595.7234   22165604.0704
       175.0004        176.0004
 -18006601.54048 -14009562.51547  20550111.4044   20550110.5624   20550118.5914
       203.0004        203.0004
 -18776224.45548 -14069494.69747  20493837.7874   20493836.6244   20493844.4794
       209.0004        209.0004
 03 12 22 19  4  6.0000000  0  7G28G29G27G11G26G 8G 7
 -19128122.65348 -14886090.76047  20932938.3914   20932937.4924   20932943.4304
       200.0004        201.0004
 -13297698.29148 -10098836.14447  21871041.5424   21871041.3534   21871048.9424
       187.0004        188.0004
  -9869256.99048  -7670171.67447  22498917.9314   22498917.0024   22498926.1694
       162.0004        163.0004
  -4595827.87948  -3557995.39047  23502014.0504   23502012.8744   23502023.2774
       153.0004        156.0004
 -10110788.42548  -7855449.54147  22165505.9684   22165505.9264   22165513.2254
       175.0004        176.0004
 -18005126.06348 -14008412.79447  20550392.1954   20550391.2974   20550399.0714
       203.0004        203.0004
 -18777255.79248 -14070298.33647  20493641.5444   20493640.4704   20493648.1904
       209.0004        209.0004
 03 12 22 19  4  7.0000000  0  7G28G29G27G11G26G 8G 7
 -19127696.32348 -14885758.55847  20933019.4804   20933018.7194   20933024.8244
       200.0004        201.0004
 -13297518.39548 -10098695.97047  21871075.7814   21871075.6064   21871083.1784
       187.0004        188.0004
  -9866532.49948  -7668048.69547  22499436.4124   22499435.3584   22499444.1474
       162.0004        164.0004
  -4595147.26548  -3557465.04847  23502143.5344   23502142.6064   23502152.2684
       153.0004        156.0004
 -10111262.95648  -7855819.30747  22165415.6954   22165415.9194   22165423.6494
       175.0004        175.0004
 -18003650.24848 -14007262.81147  20550673.0224   20550672.0144   20550679.9794
       203.0004        203.0004
 -18778286.78248 -14071101.70447  20493445.3374   20493444.1884   20493452.0284
       209.0004        209.0004
 03 12 22 19  4  8.0000000  0  7G28G29G27G11G26G 8G 7
 -19127269.63048 -14885426.07147  20933100.6674   20933099.6544   20933106.0584
       200.0004        201.0004
 -13297337.69948 -10098555.16947  21871110.1854   21871109.2774   21871117.3794
       187.0004        188.0004
  -9863807.45548  -7665925.28647  22499954.9604   22499954.1604   22499962.3774
       162.0004        163.0004
  -4594465.88348  -3556934.10447  23502273.2004   23502272.8304   23502281.7844
       153.0004        156.0004
 -10111736.67748  -7856188.44047  22165325.5644   22165325.8764   22165334.2624
       175.0004        176.0004
 -18002173.74848 -14006112.29347  20550954.0004   20550952.9744   20550960.7594
       203.0004        203.0004
 -18779317.05848 -14071904.51647  20493249.3084   20493248.3914   20493256.0984
       209.0004        209.0004
 03 12 22 19  4  9.0000000  0  7G28G29G27G11G26G 8G 7
 -19126842.84348 -14885093.51147  20933181.8674   20933181.0034   20933187.1624
       200.0004        201.0004
 -13297156.46748 -10098413.95547  21871144.6824   21871143.9434   21871151.9884
       187.0004        187.0004
  -9861082.13648  -7663801.66947  22500473.4894   22500472.1874   22500481.4934
       162.0004        163.0004
  -4593784.03248  -3556402.78847  23502402.9724   23502402.0954   23502411.9314
       153.0004        156.0004
 -10112209.82348  -7856557.13047  22165235.5154   22165235.8904   22165243.1404
       175.0004        176.0004
 -18000696.84748 -14004961.46147  20551235.0614   20551234.1954   20551241.7704
       203.0004        203.0004
 -18780346.92748 -14072707.01247  20493053.3394   20493052.1644   20493060.1244
       209.0004        209.0004
 03 12 22 19  4 10.0000000  0  7G28G29G27G11G26G 8G 7
 -19126415.81748 -14884760.76447  20933263.1154   20933262.2874   20933268.3944
       200.0004        201.0004
 -13296974.54448 -10098272.19947  21871179.2904   21871178.7484   21871186.3394
       187.0004        187.0004
  -9858356.39948  -7661677.72947  22500992.1114   22500990.8284   22501000.1584
       162.0004        163.0004
  -4593101.54548  -3555870.98847  23502532.8554   23502532.2854   23502542.3054
       153.0004        156.0004
 -10112682.26648  -7856925.27147  22165145.6564   22165146.0134   22165153.2484
       175.0004        176.0004
 -17999219.38248 -14003810.19247  20551516.2114   20551515.1094   20551523.1734
       203.0004        203.0004
 -18781376.21748 -14073509.05647  20492857.4844   20492856.3874   20492864.1624
       209.0004        209.0004
 03 12 22 19  4 11.0000000  0  7G28G29G27G11G26G 8G 7
 -19125988.68348 -14884427.93347  20933344.4004   20933343.4434   20933349.6784
       200.0004        201.0004
 -13296792.06548 -10098130.00847  21871214.0474   21871213.7524   21871220.9554
       187.0004        188.0004
  -9855630.40848  -7659553.58747  22501510.8634   22501510.3664   22501519.6064
       162.0004        163.0004
  -4592418.56748  -3555338.79447  23502662.7444   23502662.3414   23502671.6434
       153.0004        157.0004
 -10113154.14448  -7857292.96347  22165055.9134   22165056.0784   22165063.7454
       175.0004        176.0004
 -17997741.50248 -14002658.60147  20551797.4384   20551796.4244   20551804.4384
       203.0004        203.0004
 -18782405.06248 -14074310.75447  20492661.7194   20492660.6744   20492668.3584
       209.0004        209.0004
 03 12 22 19  4 12.0000000  0  7G28G29G27G11G26G 8G 7
 -19125561.29048 -14884094.90047  20933425.7484   20933424.8024   20933430.9364
       200.0004        201.0004
 -13296608.89148 -10097987.27347  21871248.8904   21871248.4674   21871255.7814
       187.0004        188.0004
  -9852903.96748  -7657429.09047  22502029.7944   22502029.5484   22502038.2474
       162.0004        163.0004
  -4591734.93148  -3554806.09447  23502792.9004   23502792.3674   23502802.3984
       153.0004        156.0004
 -10113625.26848  -7857660.07647  22164966.2704   22164966.3434   22164974.0704
       175.0004        177.0004
 -17996263.04748 -14001506.55947  20552078.7904   20552077.9844   20552085.9994
       203.0004        203.0004
 -18783433.30648 -14075111.98347  20492466.0624   20492465.1594   20492472.8884
       209.0004        209.0004
 03 12 22 19  4 13.0000000  0  7G28G29G27G11G26G 8G 7
 -19125133.89148 -14883761.86247  20933507.0794   20933505.9914   20933512.5834
       200.0004        201.0004
 -13296425.24748 -10097844.17647  21871283.8174   21871282.8214   21871290.6214
       187.0004        187.0004
  -9850177.32848  -7655304.43447  22502548.7374   22502548.2784   22502557.4624
       162.0004        163.0004
  -4591050.89548  -3554273.07547  23502923.0884   23502923.4234   23502932.6464
       153.0004        156.0004
 -10114095.89248  -7858026.79947  22164876.7324   22164876.4134   22164883.9134
       175.0004        176.0004
 -17994784.25748 -14000354.25747  20552360.1944   20552359.3074   20552367.1794
       203.0004        203.0004
 -18784461.21248 -14075912.94447  20492270.4434   20492269.5334   20492277.2214
       209.0004        209.0004
 03 12 22 19  4 14.0000000  0  7G28G29G27G11G26G 8G 7
 -19124706.18348 -14883428.58347  20933588.4704   20933587.2614   20933593.9864
       200.0004        201.0004
 -13296240.87148 -10097700.50547  21871318.9184   21871317.8514   21871325.7834
       187.0004        187.0004
  -9847450.21948  -7653179.41247  22503067.6314   22503067.3754   22503075.7074
       162.0004        163.0004
  -4590366.17748  -3553739.53247  23503053.3324   23503052.9454   23503063.2274
       153.0004        155.0004
 -10114565.76948  -7858392.93447  22164787.3624   22164787.3184   22164795.3024
       175.0004        176.0004
 -17993304.85348 -13999201.47647  20552641.7084   20552640.8344   20552648.4644
       203.0004        203.0004
 -18785488.48848 -14076713.41947  20492074.9454   20492074.1254   20492081.6614
       209.0004        209.0004
 03 12 22 19  4 15.0000000  0  7G28G29G27G11G26G 8G 7
 -19124278.42448 -14883095.26247  20933669.8464   20933668.7104   20933675.0724
       200.0004        201.0004
 -13296055.96748 -10097556.42747  21871354.0624   21871353.6274   21871361.3074
       187.0004        187.0004
  -9844722.85048  -7651054.19047  22503586.4914   22503586.4974   22503595.2694
       162.0004        162.0004
  -4589681.01548  -3553205.64347  23503183.5984   23503183.0864   23503193.7114
       153.0004        156.0004
 -10115035.12748  -7858758.66447  22164698.0494   22164697.2414   22164705.9974
       175.0004        175.0004
 -17991825.07148 -13998048.40047  20552923.3064   20552922.5134   20552930.1584
       203.0004        203.0004
 -18786515.35548 -14077513.57247  20491879.5344   20491878.5904   20491886.1924
       209.0004        209.0004
 03 12 22 19  4 16.0000000  0  7G28G29G27G11G26G 8G 7
 -19123850.42148 -14882761.75247  20933751.2514   20933750.2344   20933756.7164
       200.0004        201.0004
 -13295870.38048 -10097411.81747  21871389.3404   21871389.2004   21871396.4354
       187.0004        188.0004
  -9841995.08448  -7648928.66647  22504105.5204   22504105.5054   22504113.8564
       162.0004        163.0004
  -4588995.21148  -3552671.24847  23503314.0064   23503313.7234   23503325.2634
       153.0004        157.0004
 -10115503.76948  -7859123.84047  22164608.8894   22164608.8734   22164615.7384
       175.0004        176.0004
 -17990344.73348 -13996894.89047  20553205.0524   20553204.0224   20553211.9494
       203.0004        203.0004
 -18787541.63848 -14078313.27447  20491684.2364   20491683.2424   20491691.0174
       209.0004        209.0004
 03 12 22 19  4 17.0000000  0  7G28G29G27G11G26G 8G 7
 -19123422.26248 -14882428.12547  20933832.7044   20933831.7964   20933838.1734
       200.0004        201.0004
 -13295684.19448 -10097266.73847  21871424.7604   21871424.6524   21871431.8734
       187.0004        187.0004
  -9839267.00248  -7646802.89547  22504624.7074   22504624.1084   22504633.0684
       162.0004        163.0004
  -4588308.88548  -3552136.44647  23503444.5514   23503444.0964   23503455.0604
       153.0004        156.0004
 -10115971.78348  -7859488.53147  22164519.8534   22164519.8814   22164526.7294
       175.0004        176.0004
 -17988863.92448 -13995741.01647  20553486.8334   20553485.7754   20553493.8434
       203.0004        203.0004
 -18788567.44248 -14079112.60147  20491489.0204   20491488.0174   20491495.7214
       209.0004        209.0004
 03 12 22 19  4 18.0000000  0  7G28G29G27G11G26G 8G 7
 -19122993.94348 -14882094.37447  20933914.1964   20933913.3464   20933919.4954
       200.0004        201.0004
 -13295497.39648 -10097121.18047  21871460.3014   21871460.0114   21871467.6164
       187.0004        188.0004
  -9836538.57348  -7644676.85347  22505143.8914   22505142.6674   22505152.9494
       162.0004        164.0004
  -4587621.99748  -3551601.20947  23503575.2494   23503574.4994   23503585.7904
       153.0004        156.0004
 -10116439.17048  -7859852.73147  22164430.8874   22164431.1804   22164437.6794
       175.0004        175.0004
 -17987382.63348 -13994586.76647  20553768.6984   20553767.8914   20553775.7504
       203.0004        203.0004
 -18789592.75748 -14079911.54947  20491293.8924   20491292.8964   20491300.4424
       209.0004        209.0004
 03 12 22 19  4 19.0000000  0  7G28G29G27G11G26G 8G 7
 -19122565.33348 -14881760.39447  20933995.7114   20933995.0354   20934000.9654
       200.0004        201.0004
 -13295309.85248 -10096975.05047  21871495.9934   21871495.8804   21871503.1544
       187.0004        188.0004
  -9833809.67948  -7642550.44547  22505663.0784   22505661.7124   22505672.6004
       162.0004        163.0004
  -4586934.43548  -3551065.45247  23503706.0214   23503704.9094   23503715.9704
       153.0004        155.0004
 -10116905.79048  -7860216.33347  22164342.0864   22164342.2084   22164349.4444
       175.0004        175.0004
 -17985900.73648 -13993432.04547  20554050.6994   20554049.8554   20554057.6924
       203.0004        203.0004
 -18790617.42848 -14080709.99447  20491098.8924   20491097.9614   20491105.5644
       209.0004        209.0004
 03 12 22 19  4 20.0000000  0  7G28G29G27G11G26G 8G 7
 -19122136.56248 -14881426.28847  20934077.3114   20934076.6284   20934082.7184
       200.0004        201.0004
 -13295121.70548 -10096828.44447  21871531.7784   21871530.7394   21871539.5234
       187.0004        187.0004
  -9831080.44548  -7640423.77647  22506182.3434   22506182.1334   22506191.5014
       162.0004        163.0004
  -4586246.31448  -3550529.25447  23503836.9164   23503836.0504   23503846.2594
       153.0004        155.0004
 -10117371.78348  -7860579.44447  22164253.4054   22164253.2994   22164261.2894
       175.0004        176.0004
 -17984418.37148 -13992276.95947  20554332.7624   20554331.6994   20554339.8154
       203.0004        203.0004
 -18791641.61548 -14081508.06147  20490903.9694   20490902.8614   20490910.7234
       209.0004        209.0004
 03 12 22 19  4 21.0000000  0  7G28G29G27G11G26G 8G 7
 -19121707.78448 -14881092.17747  20934158.8914   20934157.9014   20934164.5734
       200.0004        201.0004
 -13294933.10848 -10096681.48947  21871567.6374   21871566.9434   21871575.1834
       187.0004        187.0004
  -9828351.03848  -7638296.96947  22506701.6754   22506701.2244   22506711.2534
       161.0004        162.0004
  -4585557.80648  -3549992.76347  23503967.9174   23503966.8714   23503977.3684
       153.0004        155.0004
 -10117837.29548  -7860942.18047  22164164.7914   22164165.0024   22164172.7914
       175.0004        176.0004
 -17982935.68148 -13991121.61447  20554614.8994   20554613.8044   20554621.6744
       203.0004        203.0004
 -18792665.47948 -14082305.87647  20490709.0964   20490708.1414   20490715.8844
       208.0004        208.0004
 03 12 22 19  4 22.0000000  0  7G28G29G27G11G26G 8G 7
 -19121278.75648 -14880757.86847  20934240.5234   20934239.6544   20934245.8924
       200.0004        200.0004
 -13294743.80148 -10096533.97547  21871603.6494   21871603.5844   21871610.7804
       187.0004        187.0004
  -9825621.20448  -7636169.82747  22507221.1184   22507219.7334   22507230.0734
       161.0004        163.0004
  -4584868.65348  -3549455.76247  23504098.9714   23504098.1844   23504107.8684
       153.0004        156.0004
 -10118302.10448  -7861304.37747  22164076.3674   22164076.4814   22164084.3214
       175.0004        176.0004
 -17981452.41348 -13989965.82647  20554897.1424   20554896.3084   20554904.1774
       203.0004        203.0004
 -18793688.74748 -14083103.22947  20490514.3474   20490513.5264   20490521.0924
       208.0004        209.0004
 03 12 22 19  4 23.0000000  0  7G28G29G27G11G26G 8G 7
 -19120849.53248 -14880423.40747  20934322.1764   20934321.3344   20934327.8474
       200.0004        201.0004
 -13294553.86248 -10096385.97547  21871639.7954   21871639.2504   21871647.3864
       187.0004        187.0004
  -9822890.98448  -7634042.38747  22507740.5934   22507739.8894   22507749.6474
       161.0004        163.0004
  -4584178.92448  -3548918.31947  23504230.1874   23504230.0544   23504239.5374
       153.0004        156.0004
 -10118766.24548  -7861666.04147  22163988.0434   22163987.8474   22163995.0064
       175.0004        175.0004
 -17979968.63248 -13988809.63247  20555179.4854   20555178.6834   20555186.4274
       203.0004        203.0004
 -18794711.47948 -14083900.16147  20490319.7014   20490318.9254   20490326.3394
       208.0004        209.0004
 03 12 22 19  4 24.0000000  0  7G28G29G27G11G26G 8G 7
 -19120420.09448 -14880088.78047  20934403.8954   20934402.9784   20934409.2574
       200.0004        201.0004
 -13294363.26448 -10096237.45747  21871676.0514   21871675.6054   21871683.4194
       187.0004        187.0004
  -9820160.37448  -7631914.64347  22508260.1594   22508259.6424   22508269.1144
       161.0004        163.0004
  -4583488.58848  -3548380.39547  23504361.5114   23504361.0374   23504371.4054
       153.0004        156.0004
 -10119229.68648  -7862027.16447  22163899.8614   22163899.5914   22163907.0644
       175.0004        176.0004
 -17978484.31548 -13987653.02447  20555461.9234   20555461.0604   20555468.8964
       203.0004        203.0004
 -18795733.65848 -14084696.66347  20490125.1854   20490124.3354   20490131.8154
       208.0004        209.0004
 03 12 22 19  4 25.0000000  0  7G28G29G27G11G26G 8G 7
 -19119990.47948 -14879754.01547  20934485.6494   20934484.6854   20934491.1094
       200.0004        201.0004
 -13294172.04348 -10096088.45747  21871712.4084   21871711.5954   21871719.6914
       187.0004        188.0004
  -9817429.41048  -7629786.62847  22508779.8684   22508779.8134   22508789.1574
       161.0004        161.0004
  -4582797.69148  -3547842.03347  23504492.9974   23504492.4234   23504502.7344
       153.0004        155.0004
 -10119692.49848  -7862387.79947  22163811.8054   22163811.4084   22163819.2544
       175.0004        177.0004
 -17976999.50248 -13986496.02847  20555744.4554   20555743.5074   20555751.5714
       203.0004        203.0004
 -18796755.32548 -14085492.76747  20489930.7484   20489929.7554   20489937.6924
       208.0004        209.0004
 03 12 22 19  4 26.0000000  0  7G28G29G27G11G26G 8G 7
 -19119560.66248 -14879419.09447  20934567.4094   20934566.4644   20934572.8734
       200.0004        200.0004
 -13293980.16848 -10095938.94147  21871748.8994   21871747.9804   21871756.2094
       187.0004        187.0004
  -9814698.07648  -7627658.32447  22509299.5794   22509299.7534   22509308.4184
       161.0004        161.0004
  -4582106.20948  -3547303.22047  23504624.6154   23504623.8304   23504633.8174
       153.0004        156.0004
 -10120154.64648  -7862747.91247  22163723.8924   22163723.6254   22163731.6584
       175.0004        176.0004
 -17975514.18148 -13985338.63847  20556027.0994   20556026.0204   20556034.4114
       203.0004        203.0004
 -18797776.46348 -14086288.45847  20489736.4404   20489735.5624   20489743.3704
       208.0004        209.0004
 03 12 22 19  4 27.0000000  0  7G28G29G27G11G26G 8G 7
 -19119130.81348 -14879084.14547  20934649.1854   20934648.5264   20934654.7164
       200.0004        200.0004
 -13293787.81948 -10095789.05947  21871785.5124   21871785.2484   21871793.1484
       187.0004        187.0004
  -9811966.54248  -7625529.85547  22509819.3624   22509819.5564   22509827.7214
       161.0004        162.0004
  -4581414.28648  -3546764.06047  23504756.3444   23504756.1874   23504765.1214
       153.0004        156.0004
 -10120616.26948  -7863107.61647  22163636.0594   22163636.2984   22163643.8174
       175.0004        175.0004
 -17974028.51248 -13984180.97647  20556309.8384   20556308.9244   20556316.9884
       203.0004        203.0004
 -18798797.24048 -14087083.86847  20489542.1974   20489541.3664   20489548.9504
       208.0004        209.0004
 03 12 22 19  4 28.0000000  0  7G28G29G27G11G26G 8G 7
 -19118700.60148 -14878748.91647  20934730.9914   20934730.3564   20934736.6324
       200.0004        201.0004
 -13293594.67148 -10095638.55647  21871822.2684   21871821.8004   21871829.9364
       187.0004        187.0004
  -9809234.47048  -7623400.97147  22510339.3394   22510338.9964   22510347.0974
       161.0004        162.0004
  -4580721.63148  -3546224.33347  23504888.0904   23504887.9504   23504897.3364
       153.0004        156.0004
 -10121077.05648  -7863466.67847  22163548.3684   22163548.2314   22163556.4454
       175.0004        176.0004
 -17972542.15748 -13983022.77947  20556592.7084   20556592.0284   20556599.6624
       203.0004        203.0004
 -18799817.31048 -14087878.72847  20489348.1094   20489347.2214   20489354.9894
       208.0004        209.0004
 03 12 22 19  4 29.0000000  0  7G28G29G27G11G26G 8G 7
 -19118270.44248 -14878413.72547  20934812.7874   20934812.3844   20934818.4514
       200.0004        201.0004
 -13293401.12648 -10095487.74147  21871859.0774   21871858.6334   21871867.0034
       187.0004        187.0004
  -9806502.28848  -7621271.99847  22510859.3184   22510858.9334   22510868.0654
       161.0004        162.0004
  -4580028.62948  -3545684.33247  23505019.9954   23505019.4554   23505029.3524
       153.0004        155.0004
 -10121537.44948  -7863825.42147  22163460.7624   22163461.2324   22163467.7914
       175.0004        175.0004
 -17971055.54448 -13981864.38247  20556875.5724   20556874.7214   20556882.5654
       203.0004        203.0004
 -18800837.10448 -14088673.37147  20489154.0614   20489153.2384   20489160.7854
       208.0004        209.0004
 03 12 22 19  4 30.0000000  0  7G28G29G27G11G26G 8G 7
 -19117839.85748 -14878078.20847  20934894.7024   20934894.0934   20934900.2724
       200.0004        201.0004
 -13293206.71648 -10095336.25847  21871896.0594   21871895.5984   21871903.5334
       187.0004        187.0004
  -9803769.48248  -7619142.54047  22511379.3644   22511378.4464   22511388.0104
       161.0004        162.0004
  -4579334.82648  -3545143.71147  23505152.0794   23505151.7114   23505161.3964
       153.0004        155.0004
 -10121996.92648  -7864183.45447  22163373.3434   22163372.8494   22163380.0944
       175.0004        174.0004
 -17969568.17748 -13980705.39647  20557158.5744   20557158.0944   20557165.5874
       203.0004        203.0004
 -18801856.14148 -14089467.42747  20488960.1364   20488959.2774   20488966.9844
       208.0004        209.0004
 03 12 22 19  4 31.0000000  0  7G28G29G27G11G26G 8G 7
 -19117409.29148 -14877742.70347  20934976.6144   20934976.0644   20934982.3794
       200.0004        201.0004
 -13293011.87348 -10095184.43847  21871933.1134   21871932.5104   21871940.5844
       187.0004        187.0004
  -9801036.51548  -7617012.96147  22511899.3764   22511898.3084   22511908.4674
       161.0004        162.0004
  -4578640.63748  -3544602.78347  23505284.1414   23505283.3854   23505294.1384
       153.0004        155.0004
 -10122455.96048  -7864541.15147  22163286.0324   22163285.6874   22163293.5744
       175.0004        175.0004
 -17968080.49948 -13979546.16847  20557441.6814   20557440.9464   20557448.6714
       203.0004        203.0004
 -18802874.85348 -14090261.22947  20488766.2714   20488765.3014   20488773.3984
       208.0004        209.0004
 03 12 22 19  4 32.0000000  0  7G28G29G27G11G26G 8G 7
 -19116978.51848 -14877407.03747  20935058.5774   20935057.7694   20935064.3214
       200.0004        200.0004
 -13292816.35948 -10095032.08947  21871970.3234   21871969.7774   21871977.5374
       187.0004        187.0004
  -9798303.14148  -7614883.06147  22512419.5074   22512418.8104   22512428.1804
       161.0004        162.0004
  -4577945.84648  -3544061.39047  23505416.3314   23505415.2974   23505426.3664
       153.0004        155.0004
 -10122914.31048  -7864898.29947  22163198.8544   22163198.1894   22163206.7024
       175.0004        175.0004
 -17966592.31048 -13978386.54247  20557724.8954   20557723.9034   20557731.8424
       203.0004        203.0004
 -18803893.01948 -14091054.60447  20488572.4854   20488571.6904   20488579.6054
       208.0004        209.0004
 03 12 22 19  4 33.0000000  0  7G28G29G27G11G26G 8G 7
 -19116547.38748 -14877071.09247  20935140.6184   20935139.7834   20935146.1604
       200.0004        201.0004
 -13292620.05148 -10094879.12547  21872007.6454   21872007.0994   21872014.7624
       187.0004        187.0004
  -9795569.27148  -7612752.77847  22512939.8224   22512939.7454   22512948.0934
       161.0004        162.0004
  -4577250.31148  -3543519.41347  23505548.6684   23505547.3914   23505558.5474
       153.0004        154.0004
 -10123371.82148  -7865254.80447  22163111.7924   22163111.6574   22163119.7144
       175.0004        176.0004
 -17965103.44448 -13977226.38847  20558008.1904   20558007.3264   20558015.0134
       203.0004        203.0004
 -18804910.50248 -14091847.44947  20488378.8394   20488378.1274   20488385.6374
       208.0004        209.0004
 03 12 22 19  4 34.0000000  0  7G28G29G27G11G26G 8G 7
 -19116116.37748 -14876735.24147  20935222.6414   20935221.9234   20935228.2794
       200.0004        200.0004
 -13292423.43148 -10094725.91447  21872045.0394   21872044.9294   21872052.1614
       187.0004        188.0004
  -9792835.35348  -7610622.45747  22513460.2414   22513459.9974   22513468.4114
       161.0004        161.0004
  -4576554.50948  -3542977.22847  23505680.9524   23505679.5094   23505690.5024
       153.0004        154.0004
 -10123829.01148  -7865611.06447  22163024.7634   22163024.6064   22163031.8604
       175.0004        176.0004
 -17963614.38248 -13976066.08347  20558291.5074   20558290.9144   20558298.6184
       203.0004        203.0004
 -18805927.76148 -14092640.11847  20488185.2494   20488184.2934   20488192.1264
       208.0004        208.0004
 03 12 22 19  4 35.0000000  0  7G28G29G27G11G26G 8G 7
 -19115685.04948 -14876399.14247  20935304.7344   20935304.0694   20935310.3944
       200.0004        200.0004
 -13292226.03348 -10094572.09847  21872082.5574   21872082.1794   21872090.3204
       187.0004        187.0004
  -9790100.93648  -7608491.74947  22513980.6804   22513979.9164   22513989.3064
       161.0004        162.0004
  -4575858.00648  -3542434.50247  23505813.4044   23505812.0594   23505823.2404
       153.0004        155.0004
 -10124285.39948  -7865966.69147  22162937.8734   22162937.1574   22162945.3094
       175.0004        176.0004
 -17962124.68348 -13974905.28247  20558574.9914   20558574.2594   20558582.1604
       203.0004        203.0004
 -18806944.37448 -14093432.28547  20487991.8124   20487990.9324   20487998.8184
       208.0004        208.0004
 03 12 22 19  4 36.0000000  0  7G28G29G27G11G26G 8G 7
 -19115253.47148 -14876062.84847  20935386.8844   20935386.0884   20935392.3714
       200.0004        200.0004
 -13292027.95148 -10094417.75647  21872120.2744   21872119.7764   21872127.9464
       187.0004        187.0004
  -9787366.09748  -7606360.71047  22514501.0004   22514499.8684   22514509.2484
       161.0004        162.0004
  -4575160.87348  -3541891.28447  23505946.0004   23505944.8734   23505956.0944
       153.0004        155.0004
 -10124741.08848  -7866321.76947  22162851.1194   22162850.6194   22162858.5454
       175.0004        177.0004
 -17960634.42748 -13973744.04547  20558858.5514   20558857.9534   20558865.6144
       203.0004        203.0004
 -18807960.40748 -14094223.99847  20487798.4284   20487797.5764   20487805.2514
       208.0004        209.0004
 03 12 22 19  4 37.0000000  0  7G28G29G27G11G26G 8G 7
 -19114821.80748 -14875726.48847  20935469.0234   20935468.3174   20935474.6624
       200.0004        200.0004
 -13291829.29948 -10094262.95847  21872158.0304   21872157.5934   21872165.7214
       187.0004        187.0004
  -9784630.98748  -7604229.45347  22515021.4174   22515020.2724   22515028.8794
       161.0004        162.0004
  -4574463.24348  -3541347.67847  23506078.6494   23506078.3714   23506089.1634
       153.0004        155.0004
 -10125196.18848  -7866676.39347  22162764.4854   22162763.9574   22162771.9854
       175.0004        176.0004
 -17959143.75648 -13972582.48547  20559142.2284   20559141.6144   20559149.0634
       203.0004        203.0004
 -18808976.01448 -14095015.37747  20487605.1514   20487604.3064   20487611.9714
       208.0004        208.0004
 03 12 22 19  4 38.0000000  0  7G28G29G27G11G26G 8G 7
 -19114389.93648 -14875389.96347  20935551.2024   20935550.4194   20935556.5524
       200.0004        201.0004
 -13291630.01248 -10094107.67247  21872195.8924   21872195.5664   21872203.9794
       187.0004        187.0004
  -9781895.49148  -7602097.90147  22515541.8434   22515541.0614   22515550.0574
       161.0004        163.0004
  -4573765.03748  -3540803.62747  23506211.4624   23506211.9094   23506221.9144
       153.0004        155.0004
 -10125650.60248  -7867030.48647  22162677.9964   22162677.9824   22162685.5984
       175.0004        177.0004
 -17957652.57448 -13971420.52747  20559426.0514   20559425.2154   20559433.0224
       203.0004        203.0004
 -18809991.07048 -14095806.33147  20487411.9754   20487411.1744   20487418.8904
       208.0004        209.0004
 03 12 22 19  4 39.0000000  0  7G28G29G27G11G26G 8G 7
 -19113957.95748 -14875053.36047  20935633.3734   20935632.6824   20935638.8744
       200.0004        200.0004
 -13291430.19248 -10093951.97047  21872233.8874   21872233.4804   21872240.9764
       187.0004        186.0004
  -9779159.72948  -7599966.14647  22516062.3514   22516062.7514   22516071.4984
       161.0004        163.0004
  -4573066.32048  -3540259.17547  23506344.4044   23506345.0084   23506354.4894
       153.0004        156.0004
 -10126104.45348  -7867384.13747  22162591.5934   22162591.7004   22162598.7824
       175.0004        176.0004
 -17956160.96948 -13970258.24147  20559709.9304   20559709.1734   20559716.9454
       203.0004        203.0004
 -18811005.70248 -14096596.95047  20487218.9134   20487218.0674   20487225.8484
       208.0004        209.0004
 03 12 22 19  4 40.0000000  0  7G28G29G27G11G26G 8G 7
 -19113525.73948 -14874716.56647  20935715.5944   20935714.9264   20935721.0984
       200.0004        201.0004
 -13291229.67548 -10093795.72347  21872272.0004   21872271.6814   21872279.3184
       187.0004        186.0004
  -9776423.54048  -7597834.05847  22516583.0534   22516582.7524   22516592.3894
       161.0004        163.0004
  -4572366.98748  -3539714.24447  23506477.4844   23506477.9804   23506488.2234
       153.0004        156.0004
 -10126557.60548  -7867737.23647  22162505.3584   22162505.0804   22162513.0724
       175.0004        176.0004
 -17954668.81048 -13969095.52147  20559993.8964   20559993.1634   20560000.8714
       203.0004        203.0004
 -18812019.75548 -14097387.12347  20487025.9754   20487025.3104   20487032.9404
       208.0004        209.0004
 03 12 22 19  4 41.0000000  0  7G28G29G27G11G26G 8G 7
 -19113093.32648 -14874379.62147  20935797.8744   20935797.2604   20935803.4134
       200.0004        200.0004
 -13291028.52848 -10093638.98647  21872310.2754   21872309.8254   21872317.7684
       187.0004        186.0004
  -9773687.01648  -7595701.70547  22517103.9324   22517103.2694   22517113.7614
       161.0004        163.0004
  -4571667.07648  -3539168.86147  23506610.6404   23506611.7234   23506621.2684
       153.0004        156.0004
 -10127010.11848  -7868089.84747  22162419.3074   22162418.8484   22162426.5634
       175.0004        176.0004
 -17953176.13748 -13967932.40047  20560277.9634   20560277.0824   20560284.6924
       203.0004        203.0004
 -18813033.28148 -14098176.88447  20486833.1154   20486832.3484   20486840.1354
       208.0004        209.0004
 03 12 22 19  4 42.0000000  0  7G28G29G27G11G26G 8G 7
 -19112660.79448 -14874042.58547  20935880.1694   20935879.5314   20935885.8734
       200.0004        201.0004
 -13290826.82148 -10093481.81447  21872348.6454   21872348.7284   21872356.2944
       187.0004        187.0004
  -9770950.18648  -7593569.10647  22517624.7204   22517623.8514   22517633.7934
       161.0004        162.0004
  -4570966.64948  -3538623.07747  23506743.8104   23506744.1824   23506753.6844
       153.0004        156.0004
 -10127462.00448  -7868441.96747  22162333.3534   22162332.8354   22162340.1914
       175.0004        176.0004
 -17951683.02648 -13966768.93947  20560562.1174   20560561.3064   20560568.9884
       203.0004        203.0004
 -18814046.35748 -14098966.29347  20486640.3524   20486639.6284   20486647.1794
       208.0004        209.0004
 03 12 22 19  4 43.0000000  0  7G28G29G27G11G26G 8G 7
 -19112227.95848 -14873705.31247  20935962.5624   20935961.7404   20935968.1834
       200.0004        201.0004
 -13290624.34548 -10093324.04547  21872387.1374   21872387.3244   21872394.9784
       187.0004        187.0004
  -9768212.84648  -7591436.12247  22518145.5704   22518145.0534   22518154.7694
       161.0004        162.0004
  -4570265.52648  -3538076.74947  23506877.2174   23506877.7424   23506886.8114
       153.0004        156.0004
 -10127913.11648  -7868793.48647  22162247.5134   22162247.3844   22162254.9574
       175.0004        176.0004
 -17950189.29148 -13965604.99247  20560846.3964   20560845.5134   20560853.2054
       203.0004        203.0004
 -18815058.78448 -14099755.19847  20486447.7164   20486446.8224   20486454.4264
       208.0004        208.0004
 03 12 22 19  4 44.0000000  0  7G28G29G27G11G26G 8G 7
 -19111794.99848 -14873367.94247  20936044.9524   20936044.4214   20936050.7984
       200.0004        201.0004
 -13290421.31348 -10093165.83847  21872425.7734   21872425.7104   21872433.2884
       187.0004        187.0004
  -9765475.21448  -7589302.90747  22518666.3434   22518666.0174   22518675.7684
       161.0004        161.0004
  -4569563.89848  -3537530.02547  23507010.6684   23507011.1044   23507019.9174
       153.0004        155.0004
 -10128363.65048  -7869144.54747  22162161.7964   22162161.2484   22162168.9224
       175.0004        176.0004
 -17948695.11548 -13964440.70447  20561130.7704   20561129.7994   20561137.4314
       203.0004        203.0004
 -18816070.76548 -14100543.75347  20486255.1594   20486254.2434   20486261.8324
       208.0004        208.0004
 03 12 22 19  4 45.0000000  0  7G28G29G27G11G26G 8G 7
 -19111362.01548 -14873030.55347  20936127.3524   20936126.9514   20936133.0524
       200.0004        201.0004
 -13290217.81448 -10093007.27147  21872464.5224   21872464.7634   21872472.3184
       187.0004        186.0004
  -9762737.39148  -7587169.54747  22519187.2984   22519186.7534   22519196.8504
       160.0004        161.0004
  -4568861.86448  -3536982.98847  23507144.2694   23507143.7044   23507153.4684
       153.0004        155.0004
 -10128813.68948  -7869495.23247  22162076.1974   22162076.0214   22162084.0744
       175.0004        176.0004
 -17947200.60148 -13963276.14747  20561415.1484   20561414.2224   20561421.7414
       203.0004        203.0004
 -18817082.39348 -14101332.03347  20486062.6334   20486061.6964   20486069.4274
       208.0004        209.0004
 03 12 22 19  4 46.0000000  0  7G28G29G27G11G26G 8G 7
 -19110928.69248 -14872692.89947  20936209.8064   20936209.0474   20936215.5684
       200.0004        201.0004
 -13290013.52648 -10092848.08547  21872503.4044   21872503.4954   21872511.3794
       187.0004        186.0004
  -9759999.05348  -7585035.78047  22519708.4684   22519708.0114   22519718.1524
       160.0004        161.0004
  -4568159.09148  -3536435.37747  23507277.8764   23507277.7814   23507287.2504
       153.0004        155.0004
 -10129262.92648  -7869845.28947  22161990.7664   22161990.2514   22161998.2834
       175.0004        176.0004
 -17945705.43548 -13962111.08747  20561699.7064   20561698.8504   20561706.4124
       203.0004        203.0004
 -18818093.34648 -14102119.78947  20485870.2774   20485869.3674   20485877.2354
       208.0004        209.0004
 03 12 22 19  4 47.0000000  0  7G28G29G27G11G26G 8G 7
 -19110495.28148 -14872355.17647  20936292.2694   20936291.4334   20936298.1054
       200.0004        201.0004
 -13289808.68348 -10092688.47247  21872542.3874   21872542.0954   21872550.3604
       186.0004        186.0004
  -9757260.46248  -7582901.81447  22520229.6164   22520228.3894   22520238.6174
       160.0004        161.0004
  -4567455.84048  -3535887.39347  23507411.5604   23507411.5994   23507420.9984
       153.0004        155.0004
 -10129711.61048  -7870194.91147  22161905.3854   22161905.7524   22161913.1014
       175.0004        176.0004
 -17944209.86248 -13960945.70447  20561984.3114   20561983.4854   20561991.0604
       203.0004        203.0004
 -18819103.87848 -14102907.21447  20485677.9964   20485677.0384   20485684.7694
       208.0004        208.0004
 03 12 22 19  4 48.0000000  0  7G28G29G27G11G26G 8G 7
 -19110061.66548 -14872017.29447  20936374.7644   20936373.9834   20936380.4714
       200.0004        200.0004
 -13289603.20348 -10092528.35347  21872581.4994   21872581.1174   21872588.7204
       186.0004        187.0004
  -9754521.49148  -7580767.55947  22520750.7954   22520749.8494   22520760.0644
       160.0004        162.0004
  -4566751.99248  -3535338.94547  23507545.3724   23507545.2874   23507555.0204
       153.0004        155.0004
 -10130159.61948  -7870544.00247  22161820.1814   22161818.8354   22161827.5034
       175.0004        177.0004
 -17942713.76548 -13959779.91347  20562269.0254   20562267.9434   20562275.7094
       203.0004        203.0004
 -18820113.84548 -14103694.20247  20485485.8504   20485484.8344   20485492.8574
       208.0004        209.0004
 03 12 22 19  4 49.0000000  0  7G28G29G27G11G26G 8G 7
 -19109627.86748 -14871679.27047  20936457.3094   20936456.9644   20936462.7154
       200.0004        200.0004
 -13289397.09948 -10092367.75547  21872620.7734   21872620.5934   21872628.3714
       186.0004        187.0004
  -9751782.15348  -7578633.01047  22521272.0374   22521271.4194   22521282.0234
       160.0004        163.0004
  -4566047.57448  -3534790.04947  23507679.3284   23507678.8574   23507689.0974
       153.0004        155.0004
 -10130606.95748  -7870892.58247  22161735.0414   22161733.8584   22161743.3224
       175.0004        176.0004
 -17941217.16048 -13958613.72947  20562553.8424   20562552.5724   20562560.5404
       203.0004        203.0004
 -18821123.30048 -14104480.78947  20485293.7844   20485292.7964   20485300.5074
       208.0004        209.0004
 03 12 22 19  4 50.0000000  0  7G28G29G27G11G26G 8G 7
 -19109193.87748 -14871341.09647  20936539.9014   20936539.3614   20936545.3404
       200.0004        200.0004
 -13289190.35848 -10092206.66347  21872660.1464   21872660.0084   21872667.7984
       186.0004        187.0004
  -9749042.44448  -7576498.17847  22521793.3304   22521792.5624   22521804.0814
       160.0004        163.0004
  -4565342.56448  -3534240.69447  23507813.5054   23507813.0384   23507823.9664
       153.0004        155.0004
 -10131053.63248  -7871240.64247  22161650.0104   22161649.5124   22161657.6294
       175.0004        176.0004
 -17939720.05948 -13957447.16347  20562838.6924   20562837.5634   20562845.4474
       203.0004        203.0004
 -18822132.23748 -14105266.97447  20485101.8004   20485101.0414   20485108.4904
       208.0004        209.0004
 03 12 22 19  4 51.0000000  0  7G28G29G27G11G26G 8G 7
 -19108759.71048 -14871002.78647  20936622.5644   20936622.0034   20936628.1234
       200.0004        201.0004
 -13288982.98748 -10092045.07647  21872699.6204   21872699.4064   21872707.2994
       186.0004        187.0004
  -9746302.39448  -7574363.08347  22522314.7884   22522314.3024   22522324.8444
       160.0004        162.0004
  -4564637.00848  -3533690.90847  23507947.7264   23507947.8204   23507957.1594
       153.0004        155.0004
 -10131499.65548  -7871588.19247  22161565.1144   22161564.6494   22161572.5734
       175.0004        176.0004
 -17938222.45248 -13956280.19847  20563123.6394   20563122.6944   20563130.3864
       203.0004        203.0004
 -18823140.65948 -14106052.75847  20484909.8954   20484909.0344   20484916.8044
       208.0004        209.0004
 03 12 22 19  4 52.0000000  0  7G28G29G27G11G26G 8G 7
 -19108325.42548 -14870664.38247  20936705.2254   20936704.7784   20936710.8644
       200.0004        200.0004
 -13288775.04848 -10091883.04347  21872739.1674   21872738.4534   21872746.4694
       186.0004        187.0004
  -9743562.06948  -7572227.76847  22522836.2644   22522835.7344   22522846.6614
       160.0004        163.0004
  -4563930.92948  -3533140.71747  23508082.0674   23508081.4864   23508091.0754
       153.0004        155.0004
 -10131945.10348  -7871935.28947  22161480.3314   22161479.8934   22161487.1934
       175.0004        176.0004
 -17936724.41948 -13955112.89947  20563408.6724   20563407.8044   20563415.4334
       203.0004        203.0004
 -18824148.62948 -14106838.18747  20484718.0844   20484717.0244   20484724.7484
       208.0004        209.0004
 03 12 22 19  4 53.0000000  0  7G28G29G27G11G26G 8G 7
 -19107890.99048 -14870325.86347  20936787.8994   20936787.3514   20936793.5934
       200.0004        200.0004
 -13288566.51648 -10091720.55347  21872778.8064   21872778.7264   21872786.4774
       186.0004        187.0004
  -9740821.41248  -7570092.19647  22523357.8784   22523357.7674   22523367.5924
       160.0004        163.0004
  -4563224.31248  -3532590.10747  23508216.4464   23508216.3414   23508225.4474
       153.0004        155.0004
 -10132389.91448  -7872281.89947  22161395.6424   22161395.6244   22161403.1584
       175.0004        176.0004
 -17935225.91348 -13953945.23347  20563693.8074   20563692.9474   20563700.7014
       203.0004        203.0004
 -18825156.10848 -14107623.23547  20484526.3634   20484525.1634   20484532.9124
       208.0004        209.0004
 03 12 22 19  4 54.0000000  0  7G28G29G27G11G26G 8G 7
 -19107456.26248 -14869987.11547  20936870.6254   20936869.7024   20936876.3084
       200.0004        200.0004
 -13288357.24248 -10091557.48647  21872818.6054   21872818.6454   21872826.4714
       186.0004        187.0004
  -9738080.26248  -7567956.24047  22523879.5964   22523879.3924   22523888.3544
       160.0004        163.0004
  -4562517.03148  -3532038.98347  23508350.9634   23508350.4054   23508360.4704
       153.0004        155.0004
 -10132833.98948  -7872627.93747  22161311.1474   22161310.4284   22161319.1544
       175.0004        176.0004
 -17933726.80348 -13952777.09747  20563979.0834   20563978.2274   20563986.0164
       203.0004        203.0004
 -18826162.96648 -14108407.80147  20484334.7474   20484333.6844   20484341.4334
       208.0004        209.0004
 03 12 22 19  4 55.0000000  0  7G28G29G27G11G26G 8G 7
 -19107021.33648 -14869648.21247  20936953.4204   20936952.8864   20936958.9524
       200.0004        200.0004
 -13288147.32148 -10091393.91347  21872858.5254   21872858.2034   21872866.2244
       186.0004        187.0004
  -9735338.74848  -7565820.00047  22524401.3044   22524401.8354   22524410.1694
       160.0004        162.0004
  -4561809.14848  -3531487.38947  23508485.6984   23508485.3564   23508495.0844
       153.0004        154.0004
 -10133277.35548  -7872973.41747  22161226.7424   22161226.1614   22161234.4324
       175.0004        176.0004
 -17932227.17348 -13951608.56147  20564264.4624   20564263.5724   20564271.1984
       203.0004        203.0004
 -18827169.29548 -14109191.95447  20484143.2144   20484142.3094   20484150.0214
       208.0004        209.0004
 03 12 22 19  4 56.0000000  0  7G28G29G27G11G26G 8G 7
 -19106586.34948 -14869309.26147  20937036.1874   20937035.6154   20937041.6844
       200.0004        200.0004
 -13287936.90748 -10091229.95547  21872898.5524   21872898.5924   21872905.8234
       186.0004        186.0004
  -9732597.00248  -7563683.57947  22524923.0374   22524923.2064   22524931.8854
       160.0004        162.0004
  -4561100.82348  -3530935.45047  23508620.3564   23508620.6994   23508629.8774
       152.0004        154.0004
 -10133720.21648  -7873318.50747  22161142.4464   22161141.7994   22161149.9004
       175.0004        175.0004
 -17930727.18448 -13950439.73847  20564549.8804   20564548.9164   20564556.7104
       203.0004        203.0004
 -18828175.23148 -14109975.79747  20483951.7894   20483950.8314   20483958.6064
       208.0004        209.0004
 03 12 22 19  4 57.0000000  0  7G28G29G27G11G26G 8G 7
 -19106151.18448 -14868970.17347  20937119.0054   20937118.4264   20937124.7824
       200.0004        201.0004
 -13287725.86748 -10091065.51147  21872938.7254   21872938.5914   21872945.9784
       186.0004        187.0004
  -9729854.90648  -7561546.87947  22525444.8984   22525444.8264   22525453.7144
       160.0004        162.0004
  -4560391.92748  -3530383.06347  23508755.1744   23508754.9544   23508764.6424
       152.0004        153.0004
 -10134162.44248  -7873663.09647  22161058.2684   22161057.6214   22161065.4844
       175.0004        176.0004
 -17929226.67848 -13949270.51647  20564835.4114   20564834.5564   20564842.2704
       203.0004        203.0004
 -18829180.64948 -14110759.24047  20483760.4574   20483759.4584   20483767.2004
       208.0004        209.0004
 03 12 22 19  4 58.0000000  0  7G28G29G27G11G26G 8G 7
 -19105715.78348 -14868630.90347  20937201.8724   20937201.1304   20937207.6304
       200.0004        201.0004
 -13287514.13848 -10090900.53347  21872979.0254   21872978.5154   21872986.5354
       186.0004        187.0004
  -9727112.39848  -7559409.85847  22525966.7974   22525966.9624   22525975.1734
       160.0004        162.0004
  -4559682.40548  -3529830.18847  23508890.1994   23508889.6384   23508900.1184
       152.0004        154.0004
 -10134603.94748  -7874007.13047  22160974.2594   22160973.5674   22160982.0974
       175.0004        176.0004
 -17927725.63048 -13948100.87047  20565121.0504   20565120.2384   20565128.0614
       203.0004        203.0004
 -18830185.49048 -14111542.23247  20483569.2484   20483568.3384   20483576.2204
       208.0004        208.0004
 03 12 22 19  4 59.0000000  0  7G28G29G27G11G26G 8G 7
 -19105280.23948 -14868291.52047  20937284.7834   20937284.3374   20937290.1334
       200.0004        201.0004
 -13287301.80648 -10090735.08547  21873019.4444   21873019.3884   21873026.8724
       186.0004        187.0004
  -9724369.55648  -7557272.58747  22526488.6724   22526488.5914   22526498.1224
       160.0004        162.0004
  -4558972.34948  -3529276.89647  23509025.2654   23509024.7544   23509035.3274
       152.0004        154.0004
 -10135044.83148  -7874350.67647  22160890.3204   22160889.9224   22160898.0314
       175.0004        176.0004
 -17926224.11448 -13946930.86047  20565406.7834   20565405.7664   20565413.3254
       203.0004        203.0004
 -18831189.85648 -14112324.85447  20483378.1244   20483377.0924   20483385.0964
       208.0004        208.0004
 03 12 22 19  5  0.0000000  0  7G28G29G27G11G26G 8G 7
 -19104844.57648 -14867952.04047  20937367.7234   20937366.9584   20937373.3084
       200.0004        200.0004
 -13287088.92648 -10090569.20247  21873059.9984   21873060.0394   21873067.5464
       186.0004        186.0004
  -9721626.43648  -7555135.10347  22527010.5464   22527009.5324   22527020.3354
       160.0004        162.0004
  -4558261.80348  -3528723.22347  23509160.5024   23509159.6414   23509170.4134
       152.0004        155.0004
 -10135485.13948  -7874693.77147  22160806.4874   22160806.1714   22160814.4774
       175.0004        175.0004
 -17924722.16348 -13945760.51147  20565692.5984   20565691.6724   20565699.2464
       203.0004        203.0004
 -18832193.77348 -14113107.12647  20483187.1034   20483186.1374   20483194.0534
       208.0004        209.0004
 03 12 22 19  5  1.0000000  0  7G28G29G27G11G26G 8G 7
 -19104408.68248 -14867612.38147  20937450.7314   20937450.0564   20937456.2814
       200.0004        201.0004
 -13286875.37548 -10090402.79847  21873100.7114   21873100.3534   21873108.5204
       186.0004        186.0004
  -9718882.90548  -7552997.29547  22527532.6054   22527532.1914   22527542.2824
       160.0004        162.0004
  -4557550.61948  -3528169.06047  23509295.8404   23509295.0794   23509305.9474
       152.0004        154.0004
 -10135924.74348  -7875036.31147  22160722.8034   22160722.6644   22160730.3204
       175.0004        175.0004
 -17923219.66748 -13944589.73447  20565978.5114   20565977.7624   20565985.3514
       203.0004        203.0004
 -18833197.12348 -14113888.95647  20482996.1994   20482995.1564   20483003.1264
       208.0004        209.0004
 03 12 22 19  5  2.0000000  0  7G28G29G27G11G26G 8G 7
 -19103972.67648 -14867272.63747  20937533.7294   20937532.8924   20937539.1104
       200.0004        201.0004
 -13286661.26148 -10090235.95547  21873141.4864   21873140.9394   21873148.9444
       186.0004        186.0004
  -9716139.09548  -7550859.26247  22528054.8694   22528054.6844   22528064.4764
       160.0004        162.0004
  -4556838.93648  -3527614.50247  23509431.3504   23509431.2514   23509441.6214
       152.0004        154.0004
 -10136363.76248  -7875378.40447  22160639.2254   22160638.8394   22160646.9694
       175.0004        175.0004
 -17921716.73148 -13943418.61847  20566264.5014   20566263.7034   20566271.3984
       203.0004        203.0004
 -18834200.00548 -14114670.42247  20482805.3734   20482804.3064   20482812.2024
       208.0004        209.0004
 03 12 22 19  5  3.0000000  0  7G28G29G27G11G26G 8G 7
 -19103536.36548 -14866932.65547  20937616.7684   20937616.1634   20937622.2184
       200.0004        201.0004
 -13286446.40048 -10090068.53347  21873182.3974   21873182.2424   21873189.7584
       186.0004        186.0004
  -9713394.81548  -7548720.86547  22528577.1914   22528576.4074   22528586.1754
       160.0004        162.0004
  -4556126.55348  -3527059.40247  23509567.0034   23509566.7944   23509576.1054
       152.0004        153.0004
 -10136802.01748  -7875719.90247  22160555.8434   22160555.1664   22160562.9504
       175.0004        176.0004
 -17920213.18648 -13942247.02647  20566550.6104   20566549.6894   20566557.7054
       203.0004        203.0004
 -18835202.25548 -14115451.39847  20482614.6364   20482613.7454   20482621.4814
       208.0004        209.0004
 03 12 22 19  5  4.0000000  0  7G28G29G27G11G26G 8G 7
 -19103100.01548 -14866592.64447  20937699.8134   20937699.2284   20937705.2714
       200.0004        201.0004
 -13286231.05248 -10089900.72847  21873223.3824   21873223.0694   21873230.3854
       186.0004        186.0004
  -9710650.31848  -7546582.29647  22529099.4704   22529098.4104   22529109.1994
       160.0004        162.0004
  -4555413.74448  -3526503.97047  23509702.7424   23509702.9834   23509712.2474
       152.0004        153.0004
 -10137239.75548  -7876061.00247  22160472.5194   22160471.8794   22160479.9854
       175.0004        176.0004
 -17918709.28348 -13941075.15447  20566836.8264   20566835.9234   20566843.8184
       203.0004        203.0004
 -18836204.13748 -14116232.08447  20482423.9874   20482423.0144   20482430.6724
       208.0004        208.0004
 03 12 22 19  5  5.0000000  0  7G28G29G27G11G26G 8G 7
 -19102663.33648 -14866252.37847  20937782.9464   20937782.3524   20937788.4514
       200.0004        201.0004
 -13286014.91548 -10089732.31347  21873264.5134   21873264.2764   21873271.7884
       186.0004        186.0004
  -9707905.31348  -7544443.33347  22529621.7124   22529621.2854   22529631.2024
       160.0004        162.0004
  -4554700.22648  -3525947.98547  23509838.6354   23509839.1394   23509848.1594
       152.0004        154.0004
 -10137676.68848  -7876401.47547  22160389.3394   22160388.6174   22160397.0774
       175.0004        176.0004
 -17917204.74048 -13939902.78747  20567123.1414   20567122.3384   20567130.0914
       203.0004        203.0004
 -18837205.35248 -14117012.25347  20482233.4414   20482232.4664   20482240.1044
       208.0004        208.0004
 03 12 22 19  5  6.0000000  0  7G28G29G27G11G26G 8G 7
 -19102226.61848 -14865912.07847  20937866.0434   20937865.1424   20937871.5784
       200.0004        201.0004
 -13285798.28448 -10089563.51647  21873305.7004   21873305.7064   21873313.2074
       186.0004        186.0004
  -9705160.07848  -7542304.19447  22530144.0164   22530143.0574   22530153.2954
       160.0004        162.0004
  -4553986.26348  -3525391.65547  23509974.6074   23509974.3814   23509983.2354
       152.0004        154.0004
 -10138113.11648  -7876741.54747  22160306.2954   22160305.6914   22160314.3484
       175.0004        176.0004
 -17915699.83448 -13938730.13447  20567409.4864   20567408.4794   20567416.4534
       203.0004        203.0004
 -18838206.18848 -14117792.12547  20482042.9834   20482041.7934   20482049.9914
       208.0004        208.0004
 03 12 22 19  5  7.0000000  0  7G28G29G27G11G26G 8G 7
 -19101789.61548 -14865571.55347  20937949.1954   20937948.3924   20937954.6894
       200.0004        201.0004
 -13285580.92048 -10089394.14347  21873347.0724   21873346.7824   21873354.1304
       186.0004        186.0004
  -9702414.38148  -7540164.69447  22530666.5234   22530666.0134   22530675.6054
       160.0004        163.0004
  -4553271.64148  -3524834.80447  23510110.7714   23510110.8534   23510118.1414
       152.0004        153.0004
 -10138548.78548  -7877081.03147  22160223.3844   22160222.9444   22160231.8134
       175.0004        177.0004
 -17914194.31048 -13937557.00447  20567695.9784   20567695.0594   20567703.0094
       203.0004        203.0004
 -18839206.40048 -14118571.51047  20481852.6184   20481851.5774   20481859.4384
       208.0004        209.0004
 03 12 22 19  5  8.0000000  0  7G28G29G27G11G26G 8G 7
 -19101352.53348 -14865230.97147  20938032.3524   20938031.6784   20938037.7754
       200.0004        200.0004
 -13285363.02648 -10089224.35847  21873388.5374   21873387.8384   21873395.5604
       186.0004        186.0004
  -9699668.45048  -7538025.01347  22531189.1454   22531188.5164   22531198.3274
       160.0004        163.0004
  -4552556.53848  -3524277.58347  23510247.0114   23510247.0814   23510254.8324
       152.0004        154.0004
 -10138983.90648  -7877420.08547  22160140.5844   22160140.5374   22160148.6704
       175.0004        177.0004
 -17912688.40148 -13936383.56647  20567982.5564   20567981.7244   20567989.4224
       203.0004        202.0004
 -18840206.20648 -14119350.57847  20481662.3104   20481661.5384   20481669.0974
       208.0004        209.0004
 03 12 22 19  5  9.0000000  0  7G28G29G27G11G26G 8G 7
 -19100915.25548 -14864890.23847  20938115.5674   20938114.9314   20938121.0554
       200.0004        201.0004
 -13285144.49448 -10089054.07447  21873430.1664   21873429.7424   21873437.2244
       186.0004        186.0004
  -9696922.14348  -7535885.03147  22531711.8324   22531711.1544   22531721.0884
       160.0004        162.0004
  -4551840.85748  -3523719.91147  23510383.3444   23510383.6314   23510391.8674
       152.0004        154.0004
 -10139418.37348  -7877758.63547  22160057.8884   22160057.3124   22160065.8324
       175.0004        177.0004
 -17911181.97748 -13935209.73347  20568269.2204   20568268.2764   20568276.0624
       203.0004        203.0004
 -18841205.49148 -14120129.24347  20481472.1294   20481471.3104   20481479.0374
       208.0004        208.0004
 03 12 22 19  5 10.0000000  0  7G28G29G27G11G26G 8G 7
 -19100477.81648 -14864549.37847  20938198.8174   20938198.1974   20938204.1314
       200.0004        201.0004
 -13284925.36448 -10088883.32347  21873471.9164   21873471.3564   21873479.2684
       186.0004        186.0004
  -9694175.48048  -7533744.78047  22532234.5944   22532233.3464   22532244.3114
       160.0004        163.0004
  -4551124.61948  -3523161.80347  23510519.7634   23510519.6684   23510528.1294
       152.0004        154.0004
 -10139852.19348  -7878096.67247  22159975.3494   22159974.9244   22159983.1624
       175.0004        177.0004
 -17909675.07548 -13934035.52647  20568555.9514   20568554.9404   20568562.8534
       203.0004        203.0004
 -18842204.27148 -14120907.51347  20481282.0624   20481281.2684   20481289.0174
       208.0004        208.0004
 03 12 22 19  5 11.0000000  0  7G28G29G27G11G26G 8G 7
 -19100040.21948 -14864208.39247  20938282.0884   20938281.3194   20938287.7404
       200.0004        201.0004
 -13284705.63148 -10088712.10247  21873513.7394   21873513.1684   21873520.7324
       186.0004        186.0004
  -9691428.48748  -7531604.27847  22532757.3564   22532756.4194   22532766.4454
       160.0004        162.0004
  -4550407.83048  -3522603.26347  23510656.1624   23510655.7134   23510664.3694
       152.0004        155.0004
 -10140285.37148  -7878434.21647  22159892.9234   22159892.6074   22159900.5504
       175.0004        177.0004
 -17908167.68748 -13932860.94147  20568842.7874   20568841.7734   20568849.6044
       203.0004        203.0004
 -18843202.55948 -14121685.39947  20481092.0574   20481091.3514   20481098.8574
       208.0004        208.0004
 03 12 22 19  5 12.0000000  0  7G28G29G27G11G26G 8G 7
 -19099602.34448 -14863867.19347  20938365.4274   20938364.5224   20938371.1384
       200.0004        201.0004
 -13284485.17948 -10088540.32247  21873555.6994   21873555.1584   21873562.7464
       186.0004        186.0004
  -9688681.05448  -7529463.42647  22533280.1564   22533279.5944   22533287.9704
       160.0004        162.0004
  -4549690.38248  -3522044.21747  23510792.6634   23510791.6714   23510800.9484
       152.0004        154.0004
 -10140717.82948  -7878771.19547  22159810.6324   22159810.9464   22159818.4074
       175.0004        176.0004
 -17906659.70848 -13931685.89647  20569129.7694   20569128.7724   20569136.6054
       203.0004        203.0004
 -18844200.23048 -14122462.80547  20480902.1924   20480901.5074   20480909.0494
       208.0004        208.0004
 03 12 22 19  5 13.0000000  0  7G28G29G27G11G26G 8G 7
 -19099164.43148 -14863525.95947  20938448.7684   20938447.8494   20938454.2194
       200.0004        201.0004
 -13284264.24548 -10088368.16947  21873597.7344   21873597.0454   21873605.0954
       186.0004        186.0004
  -9685933.41248  -7527322.41347  22533803.0114   22533802.0664   22533811.2594
       160.0004        162.0004
  -4548972.50648  -3521484.83347  23510929.3064   23510927.9244   23510937.2614
       152.0004        154.0004
 -10141149.76048  -7879107.76847  22159728.4154   22159727.8284   22159736.1184
       175.0004        177.0004
 -17905151.38148 -13930510.57547  20569416.8044   20569415.9394   20569423.7994
       203.0004        203.0004
 -18845197.53548 -14123239.92547  20480712.4154   20480711.5634   20480719.4804
       208.0004        209.0004
 03 12 22 19  5 14.0000000  0  7G28G29G27G11G26G 8G 7
 -19098726.35748 -14863184.60347  20938532.1254   20938531.3894   20938537.4314
       200.0004        201.0004
 -13284042.69548 -10088195.53547  21873639.8794   21873639.1324   21873647.2524
       186.0004        186.0004
  -9683185.44548  -7525181.13947  22534325.9334   22534326.0684   22534334.9254
       160.0004        162.0004
  -4548254.08348  -3520925.02647  23511066.0304   23511064.3734   23511074.2184
       152.0004        154.0004
 -10141581.07748  -7879443.86047  22159646.3084   22159646.4574   22159654.0334
       175.0004        176.0004
 -17903642.56748 -13929334.87647  20569703.9404   20569702.9274   20569710.8474
       203.0004        203.0004
 -18846194.34248 -14124016.65447  20480522.7264   20480521.8714   20480529.6174
       208.0004        209.0004
 03 12 22 19  5 15.0000000  0  7G28G29G27G11G26G 8G 7
 -19098287.88548 -14862842.93847  20938615.5544   20938614.8154   20938621.2084
       200.0004        201.0004
 -13283820.30048 -10088022.24347  21873682.1734   21873681.5044   21873689.4834
       186.0004        186.0004
  -9680436.91548  -7523039.43147  22534849.0174   22534849.3694   22534858.3454
       160.0004        163.0004
  -4547534.87048  -3520364.60347  23511202.9774   23511202.1804   23511212.0024
       152.0004        154.0004
 -10142011.51548  -7879779.26447  22159564.3724   22159564.2204   22159572.0474
       175.0004        176.0004
 -17902133.04348 -13928158.62747  20569991.2284   20569990.3044   20569998.1974
       203.0004        203.0004
 -18847190.42348 -14124792.82147  20480333.1924   20480332.4714   20480340.0504
       208.0004        208.0004
 03 12 22 19  5 16.0000000  0  7G28G29G27G11G26G 8G 7
 -19097849.47248 -14862501.31747  20938698.9654   20938698.2724   20938704.5264
       200.0004        201.0004
 -13283597.51948 -10087848.64847  21873724.5924   21873724.1894   21873732.0604
       186.0004        186.0004
  -9677688.25348  -7520897.62147  22535372.0754   22535372.4974   22535381.4764
       160.0004        162.0004
  -4546815.33548  -3519803.93147  23511339.9994   23511339.2354   23511349.4024
       152.0004        154.0004
 -10142441.54748  -7880114.35447  22159482.5064   22159482.3824   22159490.6974
       175.0004        177.0004
 -17900623.26248 -13926982.17447  20570278.5324   20570277.5374   20570285.4044
       203.0004        203.0004
 -18848186.21948 -14125568.76747  20480143.7114   20480142.7974   20480150.6394
       208.0004        208.0004
 03 12 22 19  5 17.0000000  0  7G28G29G27G11G26G 8G 7
 -19097410.83348 -14862159.52247  20938782.4564   20938781.7424   20938787.8494
       200.0004        201.0004
 -13283374.05048 -10087674.51947  21873767.0794   21873766.3614   21873774.0754
       186.0004        185.0004
  -9674939.18748  -7518755.49347  22535895.2104   22535895.4864   22535904.7174
       160.0004        162.0004
  -4546095.16748  -3519242.75947  23511477.1564   23511476.8494   23511485.8534
       152.0004        154.0004
 -10142870.87748  -7880448.89447  22159400.7654   22159400.5854   22159409.2524
       175.0004        177.0004
 -17899112.92748 -13925805.29447  20570565.9394   20570564.9274   20570572.8214
       203.0004        203.0004
 -18849181.45948 -14126344.27947  20479954.3434   20479953.5034   20479961.1384
       208.0004        208.0004
 03 12 22 19  5 18.0000000  0  7G28G29G27G11G26G 8G 7
 -19096971.93248 -14861817.52547  20938865.9934   20938865.0694   20938871.5204
       200.0004        201.0004
 -13283149.88648 -10087499.84647  21873809.7434   21873809.2314   21873816.8424
       186.0004        186.0004
  -9672189.68048  -7516613.02547  22536418.4744   22536418.7814   22536428.1464
       160.0004        162.0004
  -4545374.35248  -3518681.08747  23511614.3674   23511614.1284   23511623.1434
       152.0004        154.0004
 -10143299.46348  -7880782.85247  22159319.2434   22159319.2714   22159327.4904
       175.0004        176.0004
 -17897602.01448 -13924627.96247  20570853.4574   20570852.5814   20570860.2044
       203.0004        203.0004
 -18850176.08648 -14127119.31347  20479765.0894   20479764.3074   20479772.0354
       208.0004        209.0004
 03 12 22 19  5 19.0000000  0  7G28G29G27G11G26G 8G 7
 -19096532.88848 -14861475.41547  20938949.5434   20938948.8114   20938954.9824
       200.0004        201.0004
 -13282925.12848 -10087324.71247  21873852.5674   21873852.4594   21873859.6444
       186.0004        186.0004
  -9669439.86448  -7514470.31247  22536941.8114   22536941.6324   22536951.0374
       160.0004        163.0004
  -4544652.98448  -3518118.98947  23511751.6534   23511751.2164   23511761.0184
       151.0004        154.0004
 -10143727.44748  -7881116.35447  22159237.7754   22159237.8864   22159245.6764
       175.0004        176.0004
 -17896090.63948 -13923450.27047  20571141.0874   20571140.1874   20571147.8014
       203.0004        203.0004
 -18851170.23448 -14127893.97247  20479575.9274   20479575.2024   20479582.8074
       208.0004        208.0004
 03 12 22 19  5 20.0000000  0  7G28G29G27G11G26G 8G 7
 -19096093.69548 -14861133.18747  20939033.1074   20939032.5274   20939038.6994
       200.0004        201.0004
 -13282699.79048 -10087149.12747  21873895.4784   21873895.7054   21873902.5904
       186.0004        186.0004
  -9666689.72348  -7512327.35247  22537465.1634   22537464.2884   22537474.4494
       160.0004        162.0004
  -4543931.09948  -3517556.48847  23511889.0384   23511889.5584   23511897.8144
       151.0004        154.0004
 -10144154.80448  -7881449.35447  22159156.3874   22159156.5004   22159164.6344
       175.0004        177.0004
 -17894578.80748 -13922272.22147  20571428.8134   20571427.9894   20571435.6174
       203.0004        203.0004
 -18852163.90848 -14128668.26347  20479386.8524   20479385.9544   20479393.6424
       208.0004        209.0004
 03 12 22 19  5 21.0000000  0  7G28G29G27G11G26G 8G 7
 -19095654.34448 -14860790.83747  20939116.6954   20939116.0754   20939122.2284
       200.0004        201.0004
 -13282473.84548 -10086973.06747  21873938.5004   21873938.1864   21873945.3554
       186.0004        186.0004
  -9663939.24548  -7510184.12947  22537988.5654   22537987.5254   22537997.7284
       160.0004        163.0004
  -4543208.65348  -3516993.54347  23512026.4794   23512026.2614   23512034.8504
       151.0004        154.0004
 -10144581.53648  -7881781.87647  22159075.1944   22159074.7824   22159083.2394
       175.0004        176.0004
 -17893066.49448 -13921093.79747  20571716.5854   20571715.6444   20571723.5594
       203.0004        203.0004
 -18853157.09548 -14129442.17547  20479197.8834   20479197.0334   20479204.7084
       208.0004        208.0004
 03 12 22 19  5 22.0000000  0  7G28G29G27G11G26G 8G 7
 -19095214.73448 -14860448.28447  20939200.3424   20939199.6054   20939205.9324
       200.0004        201.0004
 -13282247.20448 -10086796.46547  21873981.6404   21873981.0774   21873989.0434
       186.0004        186.0004
  -9661188.33948  -7508040.57547  22538512.0694   22538511.1894   22538521.0004
       160.0004        162.0004
  -4542485.57948  -3516430.11047  23512164.0954   23512163.4074   23512173.0274
       151.0004        155.0004
 -10145007.52148  -7882113.81747  22158994.1374   22158993.8444   22159002.2804
       175.0004        176.0004
 -17891553.61448 -13919914.93247  20572004.4604   20572003.6204   20572011.2564
       203.0004        203.0004
 -18854149.68448 -14130215.62347  20479009.0264   20479008.3634   20479015.7844
       208.0004        208.0004
 03 12 22 19  5 23.0000000  0  7G28G29G27G11G26G 8G 7
 -19094775.00548 -14860105.63547  20939284.0224   20939283.1124   20939289.5554
       200.0004        201.0004
 -13282019.99548 -10086619.41947  21874024.8264   21874024.0664   21874031.9404
       186.0004        186.0004
  -9658437.14048  -7505896.78747  22539035.6624   22539034.6854   22539044.2554
       160.0004        162.0004
  -4541761.98448  -3515866.27747  23512301.8534   23512301.2874   23512310.5054
       151.0004        155.0004
 -10145432.91948  -7882445.29247  22158913.1674   22158913.5314   22158921.1074
       175.0004        176.0004
 -17890040.29548 -13918735.72247  20572292.4454   20572291.2734   20572299.0704
       203.0004        202.0004
 -18855141.81348 -14130988.70947  20478820.2504   20478819.4904   20478827.0304
       208.0004        209.0004
 03 12 22 19  5 24.0000000  0  7G28G29G27G11G26G 8G 7
 -19094335.18448 -14859762.91947  20939367.7074   20939366.8204   20939373.3754
       200.0004        201.0004
 -13281792.25748 -10086441.96347  21874068.1504   21874067.5304   21874075.2584
       186.0004        186.0004
  -9655685.66848  -7503752.78747  22539559.2744   22539558.7844   22539568.6884
       160.0004        163.0004
  -4541037.91448  -3515302.07347  23512439.7204   23512438.8764   23512448.8004
       151.0004        155.0004
 -10145857.78948  -7882776.35847  22158832.2654   22158831.9034   22158840.4244
       175.0004        176.0004
 -17888526.57348 -13917556.20047  20572580.4474   20572579.4154   20572587.1614
       203.0004        203.0004
 -18856133.51548 -14131761.46347  20478631.5524   20478630.6044   20478638.3604
       208.0004        209.0004
 03 12 22 19  5 25.0000000  0  7G28G29G27G11G26G 8G 7
 -19093895.09948 -14859419.99847  20939451.4224   20939450.7834   20939456.7054
       200.0004        201.0004
 -13281563.78048 -10086263.92947  21874111.6424   21874111.3924   21874118.7424
       186.0004        186.0004
  -9652933.74248  -7501608.43647  22540082.9984   22540081.9374   22540092.6044
       160.0004        162.0004
  -4540313.18048  -3514737.34647  23512577.7404   23512576.8384   23512586.5914
       151.0004        154.0004
 -10146281.90048  -7883106.83647  22158751.5614   22158751.6284   22158760.0204
       175.0004        177.0004
 -17887012.25248 -13916376.21147  20572868.6024   20572867.4464   20572875.3164
       203.0004        203.0004
 -18857124.61048 -14132533.74347  20478442.9844   20478442.0084   20478449.7184
       208.0004        208.0004
 03 12 22 19  5 26.0000000  0  7G28G29G27G11G26G 8G 7
 -19093454.91648 -14859077.00047  20939535.1834   20939534.5914   20939540.5224
       200.0004        201.0004
 -13281334.76948 -10086085.47847  21874155.1924   21874154.6634   21874162.5614
       185.0004        186.0004
  -9650181.56448  -7499463.87747  22540606.7654   22540605.5294   22540615.8814
       160.0004        163.0004
  -4539587.95148  -3514172.23447  23512715.8624   23512715.3914   23512724.6404
       151.0004        153.0004
 -10146705.43948  -7883436.86447  22158670.9604   22158670.8494   22158679.1074
       175.0004        176.0004
 -17885497.51848 -13915195.90047  20573156.8334   20573155.8654   20573163.7264
       203.0004        203.0004
 -18858115.27548 -14133305.68947  20478254.4494   20478253.4604   20478261.2514
       208.0004        208.0004
 03 12 22 19  5 27.0000000  0  7G28G29G27G11G26G 8G 7
 -19093014.44848 -14858733.77647  20939619.0194   20939618.3664   20939624.1754
       200.0004        201.0004
 -13281105.03148 -10085906.46247  21874198.8954   21874197.8184   21874206.0114
       185.0004        186.0004
  -9647428.92248  -7497318.96247  22541130.6144   22541129.4964   22541140.5294
       160.0004        162.0004
  -4538862.05748  -3513606.60647  23512854.0754   23512853.8084   23512862.4604
       151.0004        153.0004
 -10147128.24348  -7883766.32247  22158590.4944   22158590.2714   22158598.6224
       175.0004        176.0004
 -17883982.18748 -13914015.12847  20573445.1964   20573444.5194   20573451.9924
       203.0004        203.0004
 -18859105.32848 -14134077.15847  20478066.0614   20478065.1774   20478072.8844
       208.0004        208.0004
 03 12 22 19  5 28.0000000  0  7G28G29G27G11G26G 8G 7
 -19092573.83348 -14858390.44047  20939702.8724   20939702.3064   20939708.2744
       200.0004        201.0004
 -13280874.70548 -10085726.99247  21874242.6794   21874242.5024   21874249.9684
       185.0004        186.0004
  -9644675.96048  -7495173.80047  22541654.4484   22541653.3214   22541664.4794
       160.0004        161.0004
  -4538135.63248  -3513040.56247  23512992.3644   23512991.8444   23513000.5924
       151.0004        153.0004
 -10147550.42248  -7884095.29247  22158510.1454   22158510.1664   22158518.4534
       175.0004        176.0004
 -17882466.38848 -13912833.98747  20573733.6184   20573732.8134   20573740.5054
       203.0004        203.0004
 -18860094.90448 -14134848.25747  20477877.7454   20477876.8314   20477884.4434
       208.0004        209.0004
 03 12 22 19  5 29.0000000  0  7G28G29G27G11G26G 8G 7
 -19092133.03048 -14858046.95847  20939786.7754   20939785.9684   20939792.2764
       200.0004        201.0004
 -13280643.72748 -10085547.01147  21874286.6114   21874285.9234   21874294.0484
       185.0004        186.0004
  -9641922.63748  -7493028.35947  22542178.2844   22542177.6674   22542188.0394
       160.0004        162.0004
  -4537408.60648  -3512474.05247  23513130.8174   23513129.6594   23513137.9484
       151.0004        153.0004
 -10147971.93648  -7884423.74447  22158429.9414   22158429.5854   22158438.0454
       175.0004        177.0004
 -17880950.08448 -13911652.45347  20574022.1394   20574021.2824   20574029.0554
       203.0004        202.0004
 -18861083.94548 -14135618.93847  20477689.5284   20477688.4974   20477696.1674
       208.0004        208.0004
 03 12 22 19  5 30.0000000  0  7G28G29G27G11G26G 8G 7
 -19091692.24648 -14857703.49047  20939870.6364   20939869.8094   20939876.1194
       200.0004        200.0004
 -13280412.34348 -10085366.71147  21874330.5914   21874330.0804   21874338.4534
       185.0004        186.0004
  -9639169.16448  -7490882.80247  22542702.1804   22542700.7364   22542711.2724
       160.0004        162.0004
  -4536681.23648  -3511907.27147  23513269.3234   23513267.5454   23513276.9944
       151.0004        154.0004
 -10148393.01048  -7884751.85847  22158349.8534   22158350.4034   22158358.4804
       175.0004        176.0004
 -17879433.47948 -13910470.68047  20574310.7484   20574309.8664   20574317.7194
       203.0004        202.0004
 -18862072.67048 -14136389.37147  20477501.3794   20477500.3554   20477507.9924
       208.0004        208.0004
 03 12 22 19  5 31.0000000  0  7G28G29G27G11G26G 8G 7
 -19091251.18148 -14857359.80447  20939954.5654   20939954.0104   20939960.0154
       200.0004        200.0004
 -13280180.22448 -10085185.83747  21874374.7134   21874374.2624   21874382.2464
       185.0004        186.0004
  -9636415.23448  -7488736.89247  22543226.3254   22543224.7034   22543235.2564
       160.0004        162.0004
  -4535953.17748  -3511339.95647  23513407.9324   23513406.6064   23513415.4154
       151.0004        154.0004
 -10148813.31848  -7885079.37147  22158269.9424   22158269.9464   22158278.5734
       175.0004        178.0004
 -17877916.28248 -13909288.45147  20574599.4624   20574598.5774   20574606.2214
       203.0004        203.0004
 -18863060.78748 -14137159.33347  20477313.3684   20477312.3884   20477319.9844
       208.0004        209.0004
 03 12 22 19  5 32.0000000  0  7G28G29G27G11G26G 8G 7
 -19090809.90148 -14857015.95247  20940038.5224   20940037.8914   20940043.9224
       200.0004        201.0004
 -13279947.42648 -10085004.44347  21874418.9844   21874418.5674   21874426.3564
       185.0004        186.0004
  -9633660.92248  -7486590.67447  22543750.5784   22543748.8764   22543759.3624
       160.0004        162.0004
  -4535224.53148  -3510772.17647  23513546.6394   23513545.3954   23513553.9324
       151.0004        154.0004
 -10149232.93448  -7885406.34447  22158190.1644   22158189.9724   22158198.4224
       175.0004        176.0004
 -17876398.53848 -13908105.79847  20574888.2624   20574887.3824   20574895.1334
       203.0004        203.0004
 -18864048.34648 -14137928.86147  20477125.4754   20477124.4154   20477132.1934
       208.0004        209.0004
 03 12 22 19  5 33.0000000  0  7G28G29G27G11G26G 8G 7
 -19090368.44648 -14856671.96247  20940122.4804   20940121.7684   20940128.0864
       200.0004        201.0004
 -13279714.02748 -10084822.57547  21874463.3734   21874463.2164   21874471.0574
       185.0004        186.0004
  -9630906.24848  -7484444.18047  22544274.9204   22544273.3534   22544284.0594
       160.0004        162.0004
  -4534495.30548  -3510203.95047  23513685.4264   23513684.4694   23513692.4034
       151.0004        154.0004
 -10149651.89648  -7885732.81147  22158110.4954   22158110.1074   22158119.0594
       175.0004        177.0004
 -17874880.31248 -13906922.76647  20575177.1504   20575176.3044   20575184.1494
       203.0004        203.0004
 -18865035.40448 -14138697.99347  20476937.6864   20476936.6804   20476944.4184
       208.0004        209.0004
 03 12 22 19  5 34.0000000  0  7G28G29G27G11G26G 8G 7
 -19089926.82748 -14856327.84147  20940206.5194   20940205.8454   20940212.1954
       200.0004        200.0004
 -13279480.03248 -10084640.24047  21874507.8574   21874507.5794   21874514.9944
       185.0004        186.0004
  -9628151.25848  -7482297.43447  22544799.1414   22544798.0614   22544807.9064
       160.0004        162.0004
  -4533765.53848  -3509635.30047  23513824.3554   23513823.0654   23513831.1954
       151.0004        154.0004
 -10150070.25548  -7886058.80747  22158030.9824   22158030.8484   22158039.1184
       175.0004        177.0004
 -17873361.61148 -13905739.36447  20575466.1484   20575465.3824   20575473.2314
       203.0004        203.0004
 -18866021.96148 -14139466.74047  20476749.9924   20476748.9764   20476756.4034
       208.0004        209.0004
 03 12 22 19  5 35.0000000  0  7G28G29G27G11G26G 8G 7
 -19089484.90848 -14855983.49147  20940290.5974   20940289.7034   20940296.3904
       200.0004        201.0004
 -13279245.27248 -10084457.31447  21874552.4644   21874552.4484   21874559.8604
       185.0004        186.0004
  -9625395.78848  -7480150.31647  22545323.3214   22545323.0924   22545332.7084
       160.0004        162.0004
  -4533035.07948  -3509066.11547  23513963.3394   23513962.2364   23513970.8804
       151.0004        154.0004
 -10150487.83948  -7886384.19347  22157951.5874   22157951.2894   22157959.6404
       175.0004        177.0004
 -17871842.28348 -13904555.47447  20575755.2254   20575754.3304   20575762.4004
       203.0004        202.0004
 -18867007.87248 -14140234.98447  20476562.4114   20476561.3374   20476569.0644
       208.0004        208.0004
 03 12 22 19  5 36.0000000  0  7G28G29G27G11G26G 8G 7
 -19089042.90848 -14855639.07747  20940374.6794   20940373.9334   20940380.5984
       200.0004        201.0004
 -13279009.97948 -10084273.97347  21874597.2074   21874597.2534   21874604.4254
       185.0004        186.0004
  -9622640.06548  -7478003.00747  22545847.5694   22545847.5224   22545857.0434
       160.0004        162.0004
  -4532304.15248  -3508496.55947  23514102.4054   23514101.5874   23514109.7734
       151.0004        155.0004
 -10150904.86848  -7886709.15347  22157872.2984   22157871.7564   22157879.8014
       175.0004        177.0004
 -17870322.55548 -13903371.27447  20576044.4084   20576043.5474   20576051.3734
       203.0004        203.0004
 -18867993.38248 -14141002.91247  20476374.8994   20476373.7534   20476381.5024
       208.0004        209.0004
 03 12 22 19  5 37.0000000  0  7G28G29G27G11G26G 8G 7
 -19088600.76648 -14855294.55147  20940458.8084   20940457.9974   20940464.5644
       200.0004        200.0004
 -13278774.08148 -10084090.15547  21874642.0904   21874641.9434   21874649.7464
       185.0004        186.0004
  -9619884.03548  -7475855.46347  22546372.0404   22546371.9014   22546380.6894
       160.0004        162.0004
  -4531572.68748  -3507926.59047  23514241.5044   23514240.4914   23514249.4654
       151.0004        155.0004
 -10151321.28148  -7887033.63147  22157793.1504   22157793.2324   22157801.1364
       175.0004        177.0004
 -17868802.35448 -13902186.70347  20576333.7034   20576332.9454   20576340.6484
       203.0004        203.0004
 -18868978.40548 -14141770.46147  20476187.4884   20476186.3014   20476193.8944
       208.0004        209.0004
 03 12 22 19  5 38.0000000  0  7G28G29G27G11G26G 8G 7
 -19088158.47648 -14854949.91147  20940542.9524   20940542.3324   20940548.5574
       200.0004        201.0004
 -13278537.60148 -10083905.88647  21874687.1424   21874687.2564   21874694.7724
       185.0004        186.0004
  -9617127.69048  -7473707.66447  22546896.5914   22546896.3204   22546905.4944
       160.0004        162.0004
  -4530840.69048  -3507356.20847  23514380.7314   23514379.9154   23514389.4404
       151.0004        154.0004
 -10151737.09248  -7887357.63547  22157714.0474   22157714.2474   22157722.2334
       175.0004        177.0004
 -17867281.69248 -13901001.77147  20576623.0574   20576622.3374   20576630.0884
       203.0004        203.0004
 -18869962.95248 -14142537.64047  20476000.1484   20475998.9824   20476006.4394
       208.0004        208.0004
 03 12 22 19  5 39.0000000  0  7G28G29G27G11G26G 8G 7
 -19087715.98548 -14854605.11247  20940627.1794   20940626.6224   20940632.8174
       200.0004        201.0004
 -13278300.48748 -10083721.12547  21874732.3164   21874732.0774   21874739.8624
       185.0004        186.0004
  -9614370.94448  -7471559.54947  22547421.2524   22547419.5074   22547429.7854
       160.0004        163.0004
  -4530108.09148  -3506785.34847  23514520.1294   23514519.4864   23514528.5134
       151.0004        155.0004
 -10152152.21448  -7887681.10947  22157635.0634   22157634.4424   22157643.1704
       175.0004        177.0004
 -17865760.50248 -13899816.42947  20576912.5264   20576911.7324   20576919.5504
       203.0004        203.0004
 -18870946.93948 -14143304.38147  20475812.8844   20475811.6494   20475819.4124
       208.0004        209.0004
 03 12 22 19  5 40.0000000  0  7G28G29G27G11G26G 8G 7
 -19087273.31448 -14854260.17447  20940711.4294   20940710.7044   20940717.0494
       200.0004        201.0004
 -13278062.73748 -10083535.86547  21874777.6034   21874777.5334   21874785.3224
       185.0004        186.0004
  -9611613.84048  -7469411.16147  22547945.7974   22547943.9344   22547954.6454
       160.0004        162.0004
  -4529374.92948  -3506214.05547  23514659.6964   23514658.6984   23514667.6144
       151.0004        155.0004
 -10152566.68148  -7888004.07447  22157556.1874   22157555.1514   22157564.2304
       175.0004        176.0004
 -17864238.80848 -13898630.69747  20577202.1024   20577201.4774   20577209.3504
       203.0004        203.0004
 -18871930.41848 -14144070.72847  20475625.7314   20475624.7314   20475632.3844
       208.0004        208.0004
 03 12 22 19  5 41.0000000  0  7G28G29G27G11G26G 8G 7
 -19086830.43948 -14853915.07847  20940795.7134   20940794.7744   20940801.4504
       200.0004        201.0004
 -13277824.33748 -10083350.10247  21874823.0124   21874822.7544   21874830.6754
       185.0004        186.0004
  -9608856.37048  -7467262.48747  22548470.3724   22548469.3534   22548479.1634
       160.0004        162.0004
  -4528641.16148  -3505642.28647  23514799.3174   23514798.2434   23514808.3464
       151.0004        154.0004
 -10152980.46848  -7888326.50847  22157477.4124   22157476.7574   22157485.1374
       175.0004        177.0004
 -17862716.59848 -13897444.56247  20577491.7634   20577491.0984   20577498.6964
       203.0004        203.0004
 -18872913.36248 -14144836.65947  20475438.7044   20475437.6564   20475445.0724
       208.0004        208.0004
 03 12 22 19  5 42.0000000  0  7G28G29G27G11G26G 8G 7
 -19086387.46148 -14853569.90247  20940880.0104   20940878.9174   20940885.6154
       200.0004        201.0004
 -13277585.38948 -10083163.91147  21874868.5264   21874868.1344   21874875.8364
       185.0004        186.0004
  -9606098.63148  -7465113.61047  22548995.0464   22548994.8344   22549004.8224
       160.0004        163.0004
  -4527906.91048  -3505070.14347  23514939.0264   23514937.8934   23514947.7394
       151.0004        155.0004
 -10153393.69348  -7888648.50447  22157398.7744   22157398.2654   22157406.6884
       175.0004        177.0004
 -17861193.97348 -13896258.10147  20577781.4714   20577780.5664   20577788.4334
       203.0004        203.0004
 -18873895.87048 -14145602.24847  20475251.7394   20475250.6764   20475258.1224
       208.0004        209.0004
 03 12 22 19  5 43.0000000  0  7G28G29G27G11G26G 8G 7
 -19085944.31548 -14853224.59447  20940964.3274   20940963.5084   20940970.0784
       200.0004        201.0004
 -13277345.82548 -10082977.23847  21874914.1934   21874914.0424   21874921.6704
       185.0004        186.0004
  -9603340.53948  -7462964.45647  22549520.0114   22549519.9834   22549529.3774
       160.0004        163.0004
  -4527172.10348  -3504497.57047  23515078.9344   23515077.5764   23515087.4884
       151.0004        154.0004
 -10153806.24548  -7888969.96947  22157320.2054   22157319.8524   22157328.0964
       175.0004        177.0004
 -17859670.85048 -13895071.25547  20578071.2864   20578070.4714   20578078.2294
       203.0004        203.0004
 -18874877.84548 -14146367.42347  20475064.8594   20475063.7554   20475071.2414
       208.0004        208.0004
 03 12 22 19  5 44.0000000  0  7G28G29G27G11G26G 8G 7
 -19085500.87248 -14852879.05647  20941048.7034   20941048.3064   20941054.5654
       200.0004        201.0004
 -13277105.52548 -10082789.99047  21874960.0084   21874959.4104   21874967.3074
       185.0004        187.0004
  -9600581.99848  -7460814.94947  22550045.1294   22550045.0284   22550054.5564
       160.0004        162.0004
  -4526436.60248  -3503924.45247  23515218.9164   23515217.8884   23515226.5194
       151.0004        154.0004
 -10154218.06348  -7889290.86747  22157241.8394   22157241.0244   22157249.4334
       175.0004        177.0004
 -17858147.12248 -13893883.93747  20578361.2664   20578360.3964   20578368.3534
       203.0004        203.0004
 -18875859.21348 -14147132.12847  20474878.0944   20474877.0194   20474884.5504
       208.0004        209.0004
 03 12 22 19  5 45.0000000  0  7G28G29G27G11G26G 8G 7
 -19085057.43348 -14852533.51847  20941133.0454   20941132.3814   20941138.8104
       200.0004        201.0004
 -13276864.79148 -10082602.40247  21875005.8374   21875005.4664   21875013.0634
       185.0004        187.0004
  -9597823.27548  -7458665.29447  22550570.2104   22550569.8614   22550579.1964
       160.0004        161.0004
  -4525700.71948  -3503351.04547  23515358.9454   23515357.8174   23515366.7494
       151.0004        154.0004
 -10154629.40948  -7889611.39347  22157163.5354   22157162.9634   22157171.4244
       175.0004        177.0004
 -17856623.07948 -13892696.37547  20578651.2694   20578650.4774   20578658.3954
       203.0004        203.0004
 -18876840.24648 -14147896.56647  20474691.4154   20474690.3924   20474697.7594
       208.0004        209.0004
 03 12 22 19  5 46.0000000  0  7G28G29G27G11G26G 8G 7
 -19084613.82648 -14852187.85047  20941217.4174   20941216.6044   20941223.2404
       200.0004        201.0004
 -13276623.44548 -10082414.34747  21875051.7634   21875051.6194   21875058.9864
       185.0004        187.0004
  -9595064.20348  -7456515.36847  22551095.2304   22551094.7344   22551104.2404
       160.0004        162.0004
  -4524964.28048  -3502777.20247  23515499.0704   23515498.0604   23515506.7904
       151.0004        154.0004
 -10155040.11648  -7889931.42647  22157085.3954   22157084.8074   22157093.3014
       176.0004        177.0004
 -17855098.56248 -13891508.44047  20578941.3614   20578940.5934   20578948.4074
       203.0004        203.0004
 -18877820.78348 -14148660.62147  20474504.8024   20474503.8444   20474511.2254
       208.0004        208.0004
 03 12 22 19  5 47.0000000  0  7G28G29G27G11G26G 8G 7
 -19084169.91548 -14851841.94847  20941301.8584   20941301.2124   20941307.7834
       200.0004        201.0004
 -13276381.32848 -10082225.69247  21875097.8364   21875097.3144   21875105.5584
       185.0004        186.0004
  -9592304.64048  -7454365.05847  22551620.1904   22551619.8864   22551629.2334
       160.0004        162.0004
  -4524227.13948  -3502202.81047  23515639.2164   23515638.3044   23515647.4734
       151.0004        154.0004
 -10155450.04348  -7890250.84747  22157007.4484   22157007.2154   22157015.2964
       176.0004        177.0004
 -17853573.41548 -13890320.01647  20579231.6114   20579230.9684   20579238.8684
       203.0004        203.0004
 -18878800.67148 -14149424.17247  20474318.3394   20474317.3004   20474324.7144
       208.0004        208.0004
 03 12 22 19  5 48.0000000  0  7G28G29G27G11G26G 8G 7
 -19083725.87648 -14851495.94347  20941386.3384   20941385.6754   20941392.0274
       200.0004        201.0004
 -13276138.64248 -10082036.58347  21875144.0094   21875143.5694   21875151.5504
       185.0004        186.0004
  -9589544.78348  -7452214.52647  22552145.2354   22552145.6834   22552154.9474
       160.0004        162.0004
  -4523489.48048  -3501628.01247  23515779.5034   23515778.6544   23515788.0284
       151.0004        155.0004
 -10155859.37248  -7890569.80847  22156929.5204   22156928.8754   22156937.6944
       176.0004        177.0004
 -17852047.85548 -13889131.27147  20579521.9314   20579521.0894   20579529.0474
       203.0004        203.0004
 -18879780.11648 -14150187.37547  20474131.9414   20474130.8554   20474138.6314
       208.0004        208.0004
 03 12 22 19  5 49.0000000  0  7G28G29G27G11G26G 8G 7
 -19083281.66848 -14851149.80847  20941470.8704   20941470.3884   20941476.4634
       200.0004        200.0004
 -13275895.32748 -10081846.98847  21875190.2924   21875190.3854   21875197.8844
       186.0004        186.0004
  -9586784.58848  -7450063.72947  22552670.5224   22552670.1094   22552680.0534
       160.0004        162.0004
  -4522751.28648  -3501052.79847  23515919.8514   23515919.6434   23515928.5244
       151.0004        155.0004
 -10156268.05248  -7890888.25747  22156851.7684   22156851.1964   22156859.2204
       176.0004        178.0004
 -17850521.78948 -13887942.13147  20579812.3524   20579811.5314   20579819.4814
       203.0004        203.0004
 -18880759.04248 -14150950.17447  20473945.6594   20473944.6244   20473952.1614
       208.0004        209.0004
 03 12 22 19  5 50.0000000  0  7G28G29G27G11G26G 8G 7
 -19082837.27548 -14850803.53047  20941555.4434   20941554.9524   20941561.3214
       200.0004        200.0004
 -13275651.39748 -10081656.91747  21875236.7014   21875236.3334   21875244.2354
       186.0004        187.0004
  -9584024.05648  -7447912.67047  22553196.0474   22553195.1974   22553204.5374
       160.0004        162.0004
  -4522012.51248  -3500477.13347  23516060.4424   23516059.9614   23516069.7314
       151.0004        155.0004
 -10156676.07048  -7891206.19547  22156774.1494   22156773.6134   22156782.2764
       176.0004        178.0004
 -17848995.22448 -13886752.60047  20580102.8634   20580102.0414   20580109.9924
       203.0004        203.0004
 -18881737.44648 -14151712.56647  20473759.4654   20473758.4374   20473765.9724
       208.0004        209.0004
 03 12 22 19  5 51.0000000  0  7G28G29G27G11G26G 8G 7
 -19082392.75348 -14850457.14947  20941640.0564   20941639.4214   20941645.8464
       200.0004        201.0004
 -13275406.90048 -10081466.40547  21875283.2154   21875283.2414   21875290.8364
       186.0004        187.0004
  -9581263.22348  -7445761.37547  22553721.5234   22553720.7094   22553729.8514
       160.0004        162.0004
  -4521273.21948  -3499901.05947  23516201.1354   23516200.5574   23516209.8044
       151.0004        154.0004
 -10157083.51248  -7891523.68647  22156696.6194   22156696.4374   22156704.5164
       176.0004        178.0004
 -17847468.21948 -13885562.72947  20580393.4834   20580392.6264   20580400.4714
       203.0004        203.0004
 -18882715.39548 -14152474.60147  20473573.3844   20473572.2644   20473579.9334
       208.0004        209.0004
 03 12 22 19  5 52.0000000  0  7G28G29G27G11G26G 8G 7
 -19081948.00048 -14850110.58947  20941724.7004   20941724.0934   20941730.4014
       200.0004        201.0004
 -13275161.72248 -10081275.36047  21875329.9304   21875329.7524   21875337.0564
       186.0004        187.0004
  -9578501.97948  -7443609.75847  22554246.9104   22554246.5894   22554255.3364
       160.0004        162.0004
  -4520533.29848  -3499324.49847  23516342.0034   23516341.4734   23516350.7504
       151.0004        154.0004
 -10157490.22848  -7891840.60547  22156619.2304   22156618.8114   22156627.1054
       176.0004        179.0004
 -17845940.65148 -13884372.41747  20580684.1664   20580683.5334   20580691.1294
       203.0004        203.0004
 -18883692.77848 -14153236.19847  20473387.3814   20473386.3624   20473393.8714
       208.0004        208.0004
 03 12 22 19  5 53.0000000  0  7G28G29G27G11G26G 8G 7
 -19081503.09548 -14849763.91147  20941809.3834   20941808.6464   20941815.1734
       200.0004        201.0004
 -13274915.94648 -10081083.84647  21875376.7274   21875376.5624   21875383.8974
       186.0004        187.0004
  -9575740.40548  -7441457.88847  22554772.2924   22554771.7844   22554781.2034
       160.0004        163.0004
  -4519792.84548  -3498747.52347  23516482.9494   23516482.4434   23516491.8684
       151.0004        155.0004
 -10157896.34348  -7892157.06247  22156541.9594   22156541.7154   22156549.7314
       176.0004        178.0004
 -17844412.61448 -13883181.74147  20580974.9554   20580974.1974   20580981.9824
       203.0004        203.0004
 -18884669.67648 -14153997.41947  20473201.4664   20473200.3614   20473207.9534
       208.0004        209.0004
 03 12 22 19  5 54.0000000  0  7G28G29G27G11G26G 8G 7
 -19081057.98648 -14849417.07147  20941894.1244   20941893.4074   20941899.7144
       200.0004        201.0004
 -13274669.53348 -10080891.83047  21875423.6764   21875423.4414   21875430.6384
       186.0004        187.0004
  -9572978.45848  -7439305.72847  22555297.7864   22555298.0254   22555307.9944
       160.0004        162.0004
  -4519051.80248  -3498170.09447  23516623.9144   23516623.5584   23516633.0054
       151.0004        155.0004
 -10158301.80348  -7892473.00147  22156464.8114   22156464.8734   22156472.7274
       176.0004        178.0004
 -17842884.06848 -13881990.66647  20581265.8124   20581265.0364   20581273.0284
       203.0004        203.0004
 -18885646.02248 -14154758.20647  20473015.6634   20473014.6594   20473022.0414
       208.0004        209.0004
 03 12 22 19  5 55.0000000  0  7G28G29G27G11G26G 8G 7
 -19080612.75048 -14849070.13647  20941978.8604   20941978.1744   20941984.3574
       200.0004        201.0004
 -13274422.53148 -10080699.36547  21875470.7324   21875470.5494   21875477.8514
       186.0004        187.0004
  -9570216.20848  -7437153.33847  22555823.4974   22555822.8174   22555834.2244
       160.0004        162.0004
  -4518310.23348  -3497592.24747  23516764.9544   23516764.1204   23516773.9514
       151.0004        155.0004
 -10158706.63948  -7892788.45647  22156387.7544   22156387.2764   22156396.0884
       176.0004        177.0004
 -17841355.05548 -13880799.23247  20581556.7834   20581556.0014   20581563.8694
       203.0004        203.0004
 -18886621.89848 -14155518.63047  20472829.9314   20472829.0864   20472836.3664
       208.0004        208.0004
